Date StartTime U_cm/s V_cm/s W_cm/s Ustd_cm/s Vstd_cm/s Wstd_cm/s Uvar_(cm/s)^2 Vvar_(cm/s)^2 Wvar_(cm/s)^2 KE_(m/s)^2 TurbulentKE_(m/s)^2 HorizWindSpeed_cm/s FrictionSpeec_cm/s DragCoef SpeedOfSound_m/s SonicTemperature_C Pressure_mb 
06/13/2014  00:00:00     -389.795      -16.816      -33.092      162.410      123.394       65.454    26377.054    15226.077     4284.199        9.959        2.294      390.157       75.391        0.037      342.309       17.626      858.025
06/13/2014  00:01:00     -205.740     -111.049       11.143      186.075       95.381       57.940    34623.951     9097.522     3357.028        5.092        2.354      233.796       72.991        0.097      342.339       17.679      858.019
06/13/2014  00:02:00     -269.251      -90.956       -6.323      113.607       93.759       52.177    12906.527     8790.716     2722.454        5.261        1.221      284.199       55.336        0.038      342.276       17.570      858.047
06/13/2014  00:03:00     -244.114      -53.280      -26.606       93.245       90.416       48.394     8694.643     8175.032     2341.992        4.117        0.961      249.861       40.497        0.026      342.224       17.480      858.064
06/13/2014  00:04:00     -328.801      -55.747       -7.725      199.133       95.255       69.290    39653.923     9073.546     4801.146        8.239        2.676      333.493       80.331        0.058      342.184       17.414      858.079
06/13/2014  00:05:00     -236.876      -71.162       -6.494       85.144       82.836       48.098     7249.429     6861.746     2313.387        3.882        0.821      247.335       41.707        0.028      342.180       17.407      858.085
06/13/2014  00:06:00     -256.832     -113.420       -4.603      159.148      104.344       62.929    25328.204    10887.721     3960.027        5.950        2.009      280.761       67.738        0.058      342.182       17.410      858.083
06/13/2014  00:07:00     -293.048      -63.487      -13.531      115.285       99.810       58.069    13290.695     9962.086     3372.065        5.835        1.331      299.846       47.771        0.025      342.231       17.493      858.073
06/13/2014  00:08:00     -199.458      -92.880       -9.822      101.970       78.697       54.555    10397.794     6193.272     2976.242        3.403        0.978      220.023       57.280        0.068      342.149       17.354      858.083
06/13/2014  00:09:00     -303.103      -58.700      -13.617      106.839      106.068       67.846    11414.673    11250.502     4603.058        6.138        1.363      308.735       62.522        0.041      342.164       17.379      858.083
06/13/2014  00:10:00     -141.573       -9.822        3.543      103.662       62.188       36.493    10745.882     3867.339     1331.773        1.805        0.797      141.913       41.930        0.087      342.039       17.168      858.070
06/13/2014  00:11:00     -300.613      -53.261      -26.347      127.479       99.494       51.143    16250.778     9899.047     2615.618        6.133        1.438      305.294       54.933        0.032      342.154       17.363      858.071
06/13/2014  00:12:00     -236.116      -43.535        2.782      107.727      107.924       60.910    11605.001    11647.632     3709.970        4.230        1.348      240.096       57.101        0.057      342.119       17.305      858.087
06/13/2014  00:13:00     -187.267     -140.294      -13.254      112.171       79.980       57.957    12582.330     6396.854     3359.044        3.863        1.117      233.990       60.945        0.068      342.172       17.393      858.118
06/13/2014  00:14:00     -142.303     -102.298        2.041      122.104      102.333       64.214    14909.317    10472.050     4123.457        3.011        1.475      175.257       61.286        0.122      342.128       17.318      858.105
06/13/2014  00:15:00      -70.887        4.416        9.184       66.141       70.608       37.668     4374.658     4985.435     1418.860        0.795        0.539       71.024       21.131        0.089      342.020       17.137      858.093
06/13/2014  00:16:00     -213.736      -18.637      -18.360      184.910       94.696       52.151    34191.672     8967.328     2719.764        4.611        2.294      214.546       58.905        0.075      342.018       17.131      858.084
06/13/2014  00:17:00     -229.149        1.261       -8.107      162.862       87.501       64.863    26524.023     7656.423     4207.156        4.547        1.919      229.152       83.415        0.133      341.999       17.099      858.096
06/13/2014  00:18:00     -363.449     -103.105      -23.267      141.829      114.196       73.445    20115.429    13040.771     5394.205        9.090        1.928      377.791       77.837        0.042      342.106       17.280      858.105
06/13/2014  00:19:00     -346.999      -66.346       -7.774      146.877      125.270       63.414    21572.719    15692.669     4021.357        8.307        2.064      353.285       74.037        0.044      342.070       17.219      858.107
06/13/2014  00:20:00     -289.140      -33.733      -12.994      106.260      102.941       55.073    11291.193    10596.910     3032.981        5.491        1.246      291.101       60.570        0.043      342.057       17.197      858.106
06/13/2014  00:21:00     -291.728      -78.847       -5.585      132.380      104.913       59.279    17524.450    11006.704     3514.059        6.169        1.602      302.196       59.326        0.039      342.054       17.192      858.114
06/13/2014  00:22:00     -202.329      -74.188       -3.992      110.279       82.271       40.932    12161.496     6768.471     1675.390        3.353        1.030      215.502       42.821        0.039      342.038       17.165      858.122
06/13/2014  00:23:00     -160.423       -0.243       -0.640      102.434       82.988       56.078    10492.667     6887.017     3144.741        2.313        1.026      160.423       64.278        0.161      341.959       17.033      858.146
06/13/2014  00:24:00     -321.823      -38.240      -16.304      113.118       81.648       50.358    12795.597     6666.439     2535.959        6.364        1.100      324.087       51.345        0.025      342.041       17.169      858.170
06/13/2014  00:25:00     -271.412      -79.881      -11.498       79.857      118.863       50.107     6377.171    14128.447     2510.698        5.159        1.151      282.923       39.847        0.020      342.030       17.151      858.161
06/13/2014  00:26:00     -335.265      -69.167      -19.341      101.181      102.935       55.434    10237.506    10595.608     3072.974        7.073        1.195      342.326       50.766        0.022      342.007       17.111      858.132
06/13/2014  00:27:00     -297.863      -97.391      -20.305      164.462      108.033       59.041    27047.738    11671.166     3485.831        7.040        2.110      313.381       71.177        0.052      342.006       17.110      858.103
06/13/2014  00:28:00     -345.568      -85.185      -25.674      123.220      122.939       61.745    15183.143    15113.924     3812.411        8.071        1.705      355.913       58.768        0.027      342.023       17.139      858.118
06/13/2014  00:29:00     -210.800      -60.733        3.206      124.292      108.639       53.643    15448.406    11802.393     2877.546        3.913        1.506      219.374       62.649        0.082      341.969       17.049      858.148
06/13/2014  00:30:00     -274.768      -44.423      -16.865      131.778       93.769       55.746    17365.422     8792.593     3107.620        5.350        1.463      278.336       59.444        0.046      341.980       17.066      858.154
06/13/2014  00:31:00     -260.316      -46.133       -5.471       95.371       84.645       50.968     9095.540     7164.732     2597.756        4.439        0.943      264.373       51.179        0.037      341.925       16.973      858.162
06/13/2014  00:32:00     -238.067      -70.121       -5.788       98.539       94.915       61.168     9709.947     9008.937     3741.518        4.204        1.123      248.179       56.971        0.053      341.942       17.001      858.176
06/13/2014  00:33:00     -223.787      -33.437      -20.595      102.896       81.683       44.819    10587.603     6672.035     2008.779        3.544        0.963      226.271       46.791        0.043      341.948       17.012      858.166
06/13/2014  00:34:00     -257.986      -28.537      -13.387      120.646       85.172       54.272    14555.497     7254.279     2945.466        4.615        1.238      259.559       59.970        0.053      341.946       17.009      858.137
06/13/2014  00:35:00     -393.697        3.322      -35.308      121.497       80.024       42.951    14761.469     6403.774     1844.772        8.963        1.151      393.711       47.201        0.014      341.984       17.073      858.092
06/13/2014  00:36:00     -307.556      -66.711      -20.220       80.949       76.996       44.100     6552.809     5928.393     1944.789        5.694        0.721      314.708       35.453        0.013      341.964       17.038      858.103
06/13/2014  00:37:00     -242.989      -63.233      -13.535       90.572       90.576       50.914     8203.257     8204.100     2592.204        4.111        0.950      251.082       43.112        0.029      341.933       16.984      858.096
06/13/2014  00:38:00     -272.116      -40.918      -24.459       95.680       78.069       43.847     9154.590     6094.702     1922.526        4.674        0.859      275.175       37.071        0.018      341.932       16.984      858.056
06/13/2014  00:39:00     -289.050      -48.476      -12.718      152.977      113.115       63.510    23401.895    12795.044     4033.491        6.314        2.012      293.087       65.569        0.050      341.930       16.981      858.058
06/13/2014  00:40:00     -329.661      -81.506       -2.309      156.367      103.149       68.436    24450.637    10639.789     4683.507        7.754        1.989      339.588       65.495        0.037      341.903       16.935      858.061
06/13/2014  00:41:00     -331.173     -102.603      -12.033      110.788       96.837       53.557    12274.089     9377.479     2868.395        7.243        1.226      346.703       51.894        0.022      341.930       16.980      858.056
06/13/2014  00:42:00     -308.721      -42.271       -6.220      146.820      103.524       67.043    21556.069    10717.174     4494.725        6.694        1.838      311.602       75.834        0.059      341.986       17.078      858.068
06/13/2014  00:43:00     -321.533      -60.947      -21.979      107.880       87.385       53.460    11638.120     7636.125     2857.941        6.485        1.107      327.259       59.816        0.033      341.954       17.021      858.067
06/13/2014  00:44:00     -273.542      -65.072      -14.162      119.232       80.984       57.396    14216.311     6558.344     3294.330        5.166        1.203      281.175       58.991        0.044      341.936       16.991      858.082
06/13/2014  00:45:00     -208.197      -54.262        6.023      115.367       92.505       44.015    13309.493     8557.109     1937.322        3.506        1.190      215.152       37.423        0.030      341.936       16.992      858.091
06/13/2014  00:46:00     -300.794      -43.618      -19.225       95.583       88.168       54.849     9136.039     7773.671     3008.381        5.633        0.996      303.940       53.415        0.031      341.933       16.987      858.072
06/13/2014  00:47:00     -229.305      -38.268       -8.205      113.536       89.275       64.916    12890.384     7969.980     4214.052        3.959        1.254      232.477       57.739        0.062      341.924       16.971      858.045
06/13/2014  00:48:00     -269.791      -44.496      -14.664      147.827       76.444       56.435    21852.749     5843.610     3184.888        5.293        1.544      273.436       63.592        0.054      341.886       16.908      858.053
06/13/2014  00:49:00     -312.426      -78.836      -33.779       96.770       78.961       40.921     9364.469     6234.810     1674.525        6.112        0.864      322.219       36.725        0.013      341.894       16.920      858.071
06/13/2014  00:50:00     -294.213      -45.882      -30.451       81.303      105.819       50.495     6610.102    11197.618     2549.743        5.497        1.018      297.769       36.487        0.015      341.916       16.955      858.087
06/13/2014  00:51:00     -162.029       10.866      -21.393       89.482       57.903       33.690     8007.050     3352.701     1135.009        1.966        0.625      162.393       33.566        0.043      341.922       16.970      858.048
06/13/2014  00:52:00     -322.976      -33.507      -32.636       98.818       67.558       45.432     9764.929     4564.122     2064.038        6.144        0.820      324.710       43.473        0.018      341.829       16.809      858.025
06/13/2014  00:53:00     -295.837      -68.796       -7.312      137.724       94.306       58.775    18968.023     8893.585     3454.490        6.180        1.566      303.730       65.941        0.047      341.840       16.830      858.037
06/13/2014  00:54:00     -240.004      -71.531      -12.519      127.176       96.825       53.571    16173.800     9375.071     2869.894        4.564        1.421      250.437       56.089        0.050      341.888       16.911      858.029
06/13/2014  00:55:00     -423.850      -29.588      -31.960      108.752       95.170       59.223    11827.074     9057.290     3507.364       10.296        1.220      424.882       61.901        0.021      341.980       17.066      858.021
06/13/2014  00:56:00     -299.281      -45.174      -17.531      100.876       88.801       48.643    10176.019     7885.599     2366.166        5.617        1.021      302.671       50.433        0.028      341.938       16.996      858.030
06/13/2014  00:57:00     -261.613      -73.273      -14.345       84.860       77.494       51.721     7201.259     6005.310     2675.113        4.495        0.794      271.680       47.220        0.030      341.877       16.891      858.050
06/13/2014  00:58:00     -286.575      -55.994      -16.348       86.290       61.627       43.437     7445.923     3797.904     1886.788        4.933        0.657      291.994       45.821        0.025      341.908       16.943      858.078
06/13/2014  00:59:00     -217.522      -18.356      -12.304       57.786       63.074       37.767     3339.232     3978.371     1426.327        2.827        0.437      218.295       26.328        0.015      341.824       16.803      858.097
06/13/2014  01:00:00      -76.481       27.912       -5.650      103.093       66.707       39.622    10628.120     4449.758     1569.901        1.165        0.832       81.415       43.958        0.292      341.797       16.759      858.094
06/13/2014  01:01:00     -164.505      -71.035       -9.790       72.535       50.042       31.769     5261.355     2504.218     1009.254        2.049        0.439      179.187       27.819        0.024      341.841       16.833      858.109
06/13/2014  01:02:00      -68.326      -38.757       -4.825       81.299       57.619       36.934     6609.521     3320.006     1364.103        0.874        0.565       78.553       32.114        0.167      341.760       16.696      858.112
06/13/2014  01:03:00     -121.452      -17.139       -4.660       68.738       39.237       38.252     4724.966     1539.579     1463.233        1.140        0.386      122.655       38.867        0.100      341.761       16.697      858.118
06/13/2014  01:04:00     -246.090     -107.184      -17.508       87.899       82.194       43.538     7726.244     6755.877     1895.576        4.436        0.819      268.419       27.494        0.010      341.812       16.781      858.111
06/13/2014  01:05:00     -268.190       21.047      -35.167       79.054       70.818       38.446     6249.538     5015.144     1478.118        4.317        0.637      269.014       37.276        0.019      341.826       16.803      858.076
06/13/2014  01:06:00     -231.653      -54.169      -19.751       81.194       69.403       48.622     6592.482     4816.831     2364.118        3.538        0.689      237.902       48.779        0.042      341.751       16.679      858.074
06/13/2014  01:07:00     -178.156      -67.720      -26.676       56.778       62.649       35.857     3223.796     3924.883     1285.759        2.273        0.422      190.593       27.936        0.021      341.657       16.520      858.078
06/13/2014  01:08:00     -138.330      -35.300      -29.661       68.013       59.516       36.824     4625.822     3542.212     1356.040        1.539        0.476      142.763       18.116        0.016      341.606       16.434      858.074
06/13/2014  01:09:00     -222.843      -74.075      -16.747       65.772       51.864       42.156     4325.994     2689.842     1777.115        3.211        0.440      234.832       26.534        0.013      341.535       16.311      858.087
06/13/2014  01:10:00     -207.201      -77.326      -29.350       74.888       68.642       32.321     5608.157     4711.790     1044.649        3.057        0.568      221.160       19.530        0.008      341.582       16.391      858.091
06/13/2014  01:11:00     -110.102       25.691        5.082       58.544       48.985       41.025     3427.401     2399.502     1683.032        1.016        0.375      113.060       35.087        0.096      341.610       16.442      858.088
06/13/2014  01:12:00     -106.030      -35.148       -1.128       82.618       72.665       46.348     6825.805     5280.180     2148.157        1.336        0.713      111.704       46.087        0.170      341.552       16.344      858.089
06/13/2014  01:13:00     -302.195      -91.228      -24.138      102.660       85.837       47.930    10538.994     7367.981     2297.327        6.021        1.010      315.665       45.707        0.021      341.571       16.372      858.109
06/13/2014  01:14:00     -367.154      -58.625      -27.066       85.544       84.475       56.024     7317.717     7136.091     3138.705        7.828        0.880      371.805       52.811        0.020      341.586       16.398      858.120
06/13/2014  01:15:00     -253.682      -56.642      -23.082       81.703       84.626       47.793     6675.414     7161.585     2284.197        4.211        0.806      259.928       11.155        0.002      341.539       16.319      858.106
06/13/2014  01:16:00     -197.278      -65.863      -15.710       91.857       77.906       61.545     8437.720     6069.392     3787.726        3.090        0.915      207.983       45.772        0.048      341.525       16.294      858.116
06/13/2014  01:17:00     -164.704      -80.380        5.261      144.775      100.405       69.621    20959.902    10081.231     4847.104        3.474        1.794      183.271       77.489        0.179      341.494       16.241      858.130
06/13/2014  01:18:00     -263.544     -109.449      -22.752      128.461       80.246       48.203    16502.172     6439.381     2323.496        5.360        1.263      285.368       32.086        0.013      341.475       16.211      858.145
06/13/2014  01:19:00     -150.150      -28.053       -7.045       74.311       60.103       51.607     5522.068     3612.317     2663.286        1.759        0.590      152.749       45.026        0.087      341.459       16.185      858.140
06/13/2014  01:20:00     -174.038        5.362      -11.058      100.322      108.791       51.357    10064.415    11835.386     2637.500        2.748        1.227      174.121       38.677        0.049      341.443       16.156      858.127
06/13/2014  01:21:00     -182.750      -68.317      -30.234       78.867       66.359       42.819     6220.030     4403.472     1833.457        2.572        0.623      195.102       23.527        0.015      341.356       16.010      858.117
06/13/2014  01:22:00     -184.098      -27.259      -17.414      102.317       71.668       57.208    10468.743     5136.250     3272.740        2.690        0.944      186.105       53.188        0.082      341.353       16.005      858.106
06/13/2014  01:23:00     -267.802      -59.012      -29.365       85.041       80.598       39.877     7231.969     6496.045     1590.136        4.569        0.766      274.227       34.296        0.016      341.393       16.070      858.094
06/13/2014  01:24:00     -138.611       36.641      -16.445      118.676       97.298       59.229    14083.954     9466.833     3508.113        2.394        1.353      143.372       61.864        0.186      341.425       16.126      858.092
06/13/2014  01:25:00     -130.003       26.153      -14.132       85.102      103.083       57.939     7242.321    10626.156     3356.907        1.950        1.061      132.608       54.056        0.166      341.456       16.178      858.089
06/13/2014  01:26:00     -138.408        6.837      -14.394       98.281       77.323       60.380     9659.133     5978.770     3645.707        1.934        0.964      138.577       45.088        0.106      341.492       16.240      858.105
06/13/2014  01:27:00     -142.926      141.792      -17.138       98.610      108.669       52.023     9723.925    11809.004     2706.407        3.253        1.212      201.328       68.653        0.116      341.434       16.141      858.100
06/13/2014  01:28:00     -198.039      117.222      -24.871      117.299      106.308       48.794    13759.065    11301.482     2380.887        4.050        1.372      230.131       51.118        0.049      341.400       16.085      858.094
06/13/2014  01:29:00     -158.069       81.983      -20.064       81.173       90.314       48.659     6589.065     8156.585     2367.689        2.461        0.856      178.065       49.388        0.077      341.367       16.028      858.095
06/13/2014  01:30:00     -143.664       19.391       -5.477       62.550       88.610       48.633     3912.472     7851.702     2365.149        1.758        0.706      144.967       39.141        0.073      341.353       16.005      858.088
06/13/2014  01:31:00     -128.244       20.733       -6.970       70.312       83.585       39.560     4943.790     6986.478     1565.005        1.521        0.675      129.909       37.996        0.086      341.340       15.983      858.060
06/13/2014  01:32:00     -110.267       51.878       -9.773       66.462       73.945       39.919     4417.167     5467.935     1593.506        1.321        0.574      121.861       22.928        0.035      341.417       16.113      858.030
06/13/2014  01:33:00     -204.957      -53.552      -23.347       91.722       78.481       49.693     8413.004     6159.338     2469.425        3.123        0.852      211.837       40.073        0.036      341.361       16.018      858.011
06/13/2014  01:34:00     -217.656      -39.730      -19.097       65.910       84.827       48.400     4344.190     7195.649     2342.562        3.160        0.694      221.252       29.027        0.017      341.291       15.899      858.009
06/13/2014  01:35:00     -142.597       23.350      -12.354       88.745       65.786       46.372     7875.675     4327.858     2150.386        1.769        0.718      144.496       47.301        0.107      341.380       16.050      857.970
06/13/2014  01:36:00     -105.631      -32.641       -1.803      105.090       83.015       44.874    11043.961     6891.487     2013.695        1.608        0.997      110.559       50.329        0.207      341.443       16.158      857.945
06/13/2014  01:37:00      -51.472      -31.957       -5.866       64.862       38.167       23.182     4207.124     1456.694      537.410        0.495        0.310       60.585       17.981        0.088      341.406       16.097      857.956
06/13/2014  01:38:00      -59.114      -31.370       -7.601       62.555       49.853       26.423     3913.138     2485.324      698.183        0.582        0.355       66.921       28.253        0.178      341.334       15.975      857.972
06/13/2014  01:39:00        7.186        5.329        6.859       55.651       38.287       40.348     3096.996     1465.905     1627.976        0.316        0.310        8.947       27.308        9.317      341.312       15.937      858.024
06/13/2014  01:40:00      -11.137      -63.131       -3.126       62.626       36.210       24.551     3922.008     1311.193      602.761        0.498        0.292       64.106       27.009        0.178      341.321       15.952      858.049
06/13/2014  01:41:00      -27.434      -82.782       16.204       90.301       63.759       45.442     8154.335     4065.186     2065.011        1.107        0.714       87.209       45.376        0.271      341.298       15.913      858.046
06/13/2014  01:42:00      -96.233     -101.759       -2.010       61.865       36.654       26.397     3827.308     1343.521      696.822        1.274        0.293      140.056       25.563        0.033      341.380       16.050      858.056
06/13/2014  01:43:00     -113.056      -85.730        4.932       76.464       57.374       40.133     5846.782     3291.829     1610.691        1.545        0.537      141.884       40.186        0.080      341.328       15.963      858.071
06/13/2014  01:44:00      -61.892      -53.187       13.275       64.004       56.180       40.399     4096.508     3156.156     1632.119        0.786        0.444       81.605       36.712        0.202      341.223       15.787      858.074
06/13/2014  01:45:00      -72.324      -29.531       -1.427       79.701       55.160       27.614     6352.260     3042.640      762.551        0.813        0.508       78.120       34.816        0.199      341.243       15.821      858.077
06/13/2014  01:46:00       -8.478       -6.454        6.084       32.220       20.552       16.891     1038.145      422.372      285.299        0.095        0.087       10.655       19.148        3.230      341.129       15.629      858.085
06/13/2014  01:47:00      -21.837      -34.605       -5.421       24.134       18.380       13.868      582.430      337.842      192.308        0.141        0.056       40.919       11.069        0.073      341.300       15.917      858.087
06/13/2014  01:48:00      -65.735      -47.091       10.781       67.717       33.495       27.411     4585.546     1121.893      751.357        0.656        0.323       80.862       36.245        0.201      341.220       15.783      858.090
06/13/2014  01:49:00      -93.189       10.620       -8.737       29.895       31.248       18.698      893.735      976.430      349.606        0.555        0.111       93.792        9.022        0.009      341.212       15.768      858.065
06/13/2014  01:50:00      -36.593       30.361       -7.033       26.152       38.963       11.743      683.947     1518.091      137.895        0.232        0.117       47.548        9.801        0.042      341.210       15.765      858.055
06/13/2014  01:51:00      -21.395       44.163       -9.202       17.601       30.608       17.727      309.791      936.845      314.238        0.203        0.078       49.073       18.460        0.142      341.140       15.646      858.065
06/13/2014  01:52:00        4.058       62.720       -2.970       32.453       25.695       19.840     1053.208      660.243      393.608        0.303        0.105       62.851       18.774        0.089      341.161       15.682      858.081
06/13/2014  01:53:00       -3.700      100.082       -4.163       31.785       44.392       22.940     1010.281     1970.611      526.224        0.678        0.175      100.151       26.456        0.070      341.237       15.809      858.089
06/13/2014  01:54:00       -7.680      147.972      -25.954       40.575       40.418       15.713     1646.371     1633.610      246.908        1.308        0.176      148.171       14.184        0.009      341.249       15.830      858.087
06/13/2014  01:55:00       15.620      109.303      -26.185       28.962       32.520       16.383      838.801     1057.560      268.413        0.752        0.108      110.413       14.370        0.017      341.215       15.775      858.084
06/13/2014  01:56:00      -18.455      177.219      -39.982       37.981       41.982       19.503     1442.594     1762.497      380.366        1.846        0.179      178.178       19.269        0.012      341.261       15.851      858.085
06/13/2014  01:57:00      -49.520      150.253      -24.591       39.991       31.900       24.326     1599.285     1017.604      591.763        1.442        0.160      158.203       18.104        0.013      341.284       15.890      858.095
06/13/2014  01:58:00      -59.236       79.392      -15.528       44.995       33.674       22.654     2024.513     1133.924      513.223        0.686        0.184       99.056       19.989        0.041      341.287       15.896      858.101
06/13/2014  01:59:00       18.290       76.391        6.151       58.393       36.979       34.509     3409.695     1367.460     1190.882        0.609        0.298       78.550       41.582        0.280      341.189       15.729      858.086
06/13/2014  02:00:00        5.126       60.844        8.533       35.171       45.518       38.635     1237.010     2071.847     1492.649        0.430        0.240       61.060       40.860        0.448      341.212       15.769      858.064
06/13/2014  02:01:00       23.457       88.234      -22.083       36.589       33.816       15.859     1338.776     1143.545      251.499        0.578        0.137       91.298       10.222        0.013      341.094       15.568      858.071
06/13/2014  02:02:00       30.914       50.133       -2.809       25.279       35.679       19.130      639.032     1272.959      365.953        0.288        0.114       58.898       16.257        0.076      340.940       15.308      858.071
06/13/2014  02:03:00      128.887       65.396       14.759       43.448       33.356       28.628     1887.755     1112.593      819.547        1.246        0.191      144.529       15.200        0.011      340.826       15.113      858.064
06/13/2014  02:04:00       92.386       40.997       17.342       62.054       41.317       36.275     3850.643     1707.065     1315.897        0.869        0.344      101.074       19.915        0.039      340.758       14.999      858.062
06/13/2014  02:05:00      134.647       60.609       25.329       59.552       40.304       42.041     3546.451     1624.389     1767.433        1.469        0.347      147.659       27.954        0.036      340.731       14.953      858.054
06/13/2014  02:06:00      108.254       64.965       25.441       53.309       38.114       35.637     2841.812     1452.659     1269.987        1.107        0.278      126.252       25.870        0.042      340.517       14.592      858.061
06/13/2014  02:07:00       81.284       53.130        5.742       48.559       36.860       27.926     2357.942     1358.680      779.836        0.698        0.225       97.108       26.229        0.073      340.411       14.412      858.062
06/13/2014  02:08:00       62.712       62.118      -13.758       42.709       52.954       33.518     1824.056     2804.170     1123.435        0.687        0.288       88.269       28.344        0.103      340.615       14.758      858.084
06/13/2014  02:09:00       51.208       81.025       -5.510       34.262       39.256       32.516     1173.896     1541.024     1057.273        0.649        0.189       95.850       24.485        0.065      340.684       14.876      858.093
06/13/2014  02:10:00       29.318      148.387      -29.745       44.790       50.976       22.289     2006.118     2598.586      496.801        1.443        0.255      151.256       22.696        0.023      341.086       15.555      858.093
06/13/2014  02:11:00       14.489      101.099      -18.197       34.728       30.052       16.685     1206.067      903.151      278.382        0.657        0.119      102.132       17.928        0.031      341.107       15.590      858.092
06/13/2014  02:12:00       42.311       89.460      -18.365       26.367       44.710       22.078      695.209     1999.028      487.440        0.666        0.159       98.961       25.493        0.066      340.984       15.382      858.092
06/13/2014  02:13:00       47.881       72.213       -7.757       36.205       29.923       26.590     1310.794      895.395      707.030        0.524        0.146       86.645       20.894        0.058      340.935       15.298      858.087
06/13/2014  02:14:00       -4.858       22.141       -9.906       26.957       35.414       14.140      726.661     1254.138      199.933        0.140        0.109       22.668       14.244        0.395      341.160       15.681      858.083
06/13/2014  02:15:00       31.536      -10.607       14.707       17.647       17.909       22.874      311.432      320.736      523.222        0.124        0.058       33.272       11.715        0.124      340.840       15.138      858.070
06/13/2014  02:16:00       15.965       11.053       11.812       21.463       15.288       25.251      460.668      233.719      637.597        0.092        0.067       19.418       18.002        0.860      340.266       14.168      858.066
06/13/2014  02:17:00       38.129       15.524        7.551       22.088       21.048       17.668      487.870      443.014      312.146        0.150        0.062       41.168       10.967        0.071      340.538       14.629      858.072
06/13/2014  02:18:00       -0.994       16.709       10.248       12.243       17.517       12.255      149.879      306.851      150.196        0.050        0.030       16.739        9.776        0.341      340.528       14.611      858.059
06/13/2014  02:19:00      -10.850       16.637        4.302       28.725       24.958       11.339      825.134      622.913      128.568        0.099        0.079       19.862        7.741        0.152      340.720       14.936      858.051
06/13/2014  02:20:00       34.211       21.755       -1.148       32.365       27.347       24.946     1047.526      747.885      622.278        0.203        0.121       40.542       17.644        0.189      340.396       14.389      858.046
06/13/2014  02:21:00      -11.101       -2.185       12.383       41.009       21.004       18.518     1681.760      441.152      342.913        0.137        0.123       11.314       24.855        4.826      340.655       14.826      858.037
06/13/2014  02:22:00       30.421       64.453       -8.570       19.038       16.030       13.211      362.433      256.957      174.521        0.297        0.040       71.271        9.226        0.017      340.802       15.074      858.026
06/13/2014  02:23:00       -0.099       67.893       -9.539       26.299       22.342       20.174      691.655      499.171      407.000        0.315        0.080       67.893       18.577        0.075      340.842       15.142      858.017
06/13/2014  02:24:00      -16.515       44.575        3.769       30.754       15.290       12.422      945.836      233.775      154.314        0.180        0.067       47.536       13.034        0.075      340.978       15.371      858.027
06/13/2014  02:25:00        5.472       32.996        3.769       24.153       14.668       21.564      583.370      215.141      464.985        0.120        0.063       33.447        9.965        0.089      340.969       15.358      858.023
06/13/2014  02:26:00       14.285       37.862        9.172       15.053       15.118       13.786      226.588      228.540      190.040        0.118        0.032       40.467        9.746        0.058      340.590       14.715      858.022
06/13/2014  02:27:00        8.610       -4.173        4.733       19.753       16.971       15.561      390.168      288.002      242.156        0.052        0.046        9.568       14.524        2.305      340.519       14.596      858.025
06/13/2014  02:28:00       40.692       -2.529       -5.637       20.713       25.675       17.966      429.041      659.207      322.786        0.155        0.071       40.770       11.185        0.075      340.428       14.442      858.033
06/13/2014  02:29:00       26.567       -3.406       -0.088       20.414       23.938       14.050      416.740      573.039      197.390        0.095        0.059       26.785       16.422        0.376      340.154       13.979      858.033
06/13/2014  02:30:00       25.103       -4.923        8.629       20.875       17.002       12.093      435.786      289.058      146.251        0.080        0.044       25.581        8.720        0.116      340.274       14.180      858.020
06/13/2014  02:31:00        4.481       10.457        7.776       15.053       11.129       14.268      226.603      123.852      203.584        0.037        0.028       11.377        8.548        0.565      340.382       14.364      858.007
06/13/2014  02:32:00      -15.962       47.318       -1.456       22.955       26.862       12.875      526.946      721.572      165.765        0.195        0.071       49.938       14.588        0.085      340.877       15.202      857.991
06/13/2014  02:33:00      -47.128       49.560       -1.547       26.378       30.931       21.437      695.798      956.709      459.549        0.340        0.106       68.391       15.738        0.053      340.854       15.163      857.979
06/13/2014  02:34:00      -71.695       65.083      -17.304       35.840       29.921       20.409     1284.516      895.238      416.540        0.614        0.130       96.830       18.213        0.035      340.887       15.218      857.980
06/13/2014  02:35:00      -75.540       69.637      -12.274       24.194       22.732       14.974      585.365      516.737      224.228        0.602        0.066      102.741       12.983        0.016      340.909       15.255      857.987
06/13/2014  02:36:00      -74.158       82.789      -11.040       38.117       35.177       25.097     1452.938     1237.445      629.855        0.790        0.166      111.146       19.813        0.032      340.821       15.106      858.005
06/13/2014  02:37:00      -31.878       29.889       -0.837       26.005       23.043       18.450      676.263      530.988      340.397        0.173        0.077       43.699       18.733        0.184      340.831       15.124      858.015
06/13/2014  02:38:00       23.076       14.969       17.964       19.127       20.330       11.724      365.844      413.328      137.454        0.100        0.046       27.506        9.547        0.120      340.348       14.306      858.025
06/13/2014  02:39:00       -0.351      -25.379        5.879       12.811       16.408       12.653      164.127      269.220      160.107        0.064        0.030       25.381        9.868        0.151      340.342       14.296      858.042
06/13/2014  02:40:00      -12.380        2.805        7.638       16.595       17.058       15.493      275.388      290.965      240.039        0.051        0.040       12.694       13.305        1.099      340.129       13.938      858.047
06/13/2014  02:41:00      -12.315       -8.207        1.755        9.658        7.077        9.165       93.279       50.090       84.003        0.022        0.011       14.799        4.251        0.082      340.371       14.346      858.047
06/13/2014  02:42:00      -15.448       -7.923       -4.444       10.521        8.376        5.704      110.691       70.161       32.534        0.027        0.011       17.361        2.238        0.017      340.588       14.713      858.046
06/13/2014  02:43:00      -50.887        3.175       -5.686       31.373       22.031       17.229      984.288      485.363      296.842        0.220        0.088       50.986       14.363        0.079      340.810       15.087      858.047
06/13/2014  02:44:00       -1.433       17.603        6.762       22.755       18.791       17.772      517.808      353.087      315.843        0.077        0.059       17.661       12.804        0.526      340.701       14.904      858.041
06/13/2014  02:45:00       18.937       22.905       10.503       14.032       11.499       15.250      196.888      132.233      232.551        0.078        0.028       29.719        9.889        0.111      340.539       14.630      858.049
06/13/2014  02:46:00        1.599       32.593       -5.785       22.425        9.877        8.794      502.883       97.563       77.335        0.089        0.034       32.632        6.300        0.037      340.733       14.957      858.032
06/13/2014  02:47:00      -18.702       25.258       -2.463        7.687       13.236        9.224       59.086      175.196       85.080        0.066        0.016       31.428        8.686        0.076      340.733       14.954      858.031
06/13/2014  02:48:00      -64.242       22.792       -6.650       24.579       16.348       12.598      604.110      267.243      158.711        0.286        0.052       68.166        7.427        0.012      340.804       15.077      858.032
06/13/2014  02:49:00      -58.105       47.544       -9.280       35.128       34.207       20.953     1233.959     1170.152      439.036        0.428        0.142       75.078       19.892        0.070      340.697       14.896      858.039
06/13/2014  02:50:00      -77.399      -19.811       -6.841       28.507       23.627       12.219      812.637      558.215      149.313        0.397        0.076       79.895        9.326        0.014      340.546       14.641      858.043
06/13/2014  02:51:00      -66.883       68.169       -8.949       39.803       58.278       22.136     1584.300     3396.277      489.988        0.733        0.274       95.500       17.377        0.033      340.597       14.728      858.044
06/13/2014  02:52:00     -142.011      146.188      -21.529       80.912       86.870       39.823     6546.716     7546.363     1585.857        2.884        0.784      203.809       29.390        0.021      340.628       14.777      858.055
06/13/2014  02:53:00     -170.900       90.168      -31.392       64.383       61.504       43.991     4145.151     3782.784     1935.196        2.409        0.493      193.228       43.226        0.050      340.608       14.744      858.053
06/13/2014  02:54:00     -174.715      147.418      -29.644       84.003       86.179       49.584     7056.581     7426.840     2458.538        3.504        0.847      228.599       40.273        0.031      340.625       14.772      858.048
06/13/2014  02:55:00     -179.415      260.084      -50.754       96.287      107.707       48.999     9271.143    11600.728     2400.912        6.284        1.164      315.965       50.752        0.026      340.543       14.633      858.038
06/13/2014  02:56:00     -207.152      210.479      -37.970      112.108      115.827       67.845    12568.307    13415.979     4602.979        5.962        1.529      295.320       74.397        0.063      340.540       14.629      858.045
06/13/2014  02:57:00     -214.518      243.788      -40.604       92.892      124.669       64.552     8628.845    15542.380     4166.967        6.771        1.417      324.732       67.255        0.043      340.540       14.626      858.044
06/13/2014  02:58:00     -180.287      222.046      -30.327      125.855      129.269       66.135    15839.366    16710.353     4373.801        5.982        1.846      286.021       64.298        0.051      340.487       14.538      858.033
06/13/2014  02:59:00     -192.820      238.499      -46.242       96.260       82.821       45.824     9265.997     6859.259     2099.827        5.721        0.911      306.694       45.000        0.022      340.441       14.461      858.024
06/13/2014  03:00:00     -192.324      275.441      -46.311       97.062      131.240       69.381     9421.113    17223.874     4813.750        7.322        1.573      335.941       78.575        0.055      340.465       14.501      858.007
06/13/2014  03:01:00     -180.933      184.135      -28.884       78.329       88.533       57.852     6135.509     7838.061     3346.906        4.240        0.866      258.152       53.162        0.042      340.438       14.456      858.002
06/13/2014  03:02:00     -196.861      119.648      -42.364       77.949       58.358       45.825     6076.041     3405.684     2099.974        3.322        0.579      230.369       35.905        0.024      340.479       14.525      858.022
06/13/2014  03:03:00     -218.955      183.005      -43.086       75.461       80.606       44.646     5694.423     6497.393     1993.283        4.873        0.709      285.363       38.105        0.018      340.419       14.421      858.015
06/13/2014  03:04:00     -135.214       98.286       -5.159       78.170       52.870       52.094     6110.603     2795.215     2713.752        1.979        0.581      167.161       51.591        0.095      340.371       14.343      858.022
06/13/2014  03:05:00     -149.159      139.856      -29.083       88.545      139.293       54.191     7840.223    19402.445     2936.611        3.641        1.509      204.470       44.160        0.047      340.371       14.342      858.032
06/13/2014  03:06:00     -191.730      276.972      -33.339      117.115      131.889       89.176    13716.035    17394.830     7952.432        7.682        1.953      336.859       81.063        0.058      340.287       14.197      858.001
06/13/2014  03:07:00     -236.272      306.627      -44.735      135.373      155.704       68.327    18325.798    24243.704     4668.536        9.953        2.362      387.098       69.741        0.032      340.354       14.313      857.988
06/13/2014  03:08:00     -166.597      340.665      -55.229       96.879      133.677       59.638     9385.478    17869.575     3556.672        8.883        1.541      379.219       65.087        0.029      340.459       14.490      857.967
06/13/2014  03:09:00     -190.864      210.719      -41.142       99.856      111.877       61.852     9971.178    12516.504     3825.628        5.441        1.316      284.309       46.133        0.026      340.390       14.374      857.957
06/13/2014  03:10:00     -173.691      205.136      -33.541      108.809      148.169       65.346    11839.326    21954.123     4270.131        5.571        1.903      268.793       64.445        0.057      340.425       14.433      857.995
06/13/2014  03:11:00     -113.756       96.544      -19.285       53.090       78.737       45.300     2818.500     6199.503     2052.050        1.685        0.554      149.201       33.356        0.050      340.360       14.326      858.041
06/13/2014  03:12:00     -115.732       57.143      -13.323       81.409       85.354       45.643     6627.356     7285.306     2083.296        1.641        0.800      129.070       29.303        0.052      340.369       14.341      858.054
06/13/2014  03:13:00     -154.614       27.967      -18.280       89.002       83.505       47.730     7921.290     6973.100     2278.137        2.109        0.859      157.123       54.846        0.122      340.301       14.225      858.069
06/13/2014  03:14:00     -167.969      100.120      -12.218      136.061       81.095       61.665    18512.638     6576.445     3802.534        3.363        1.445      195.544       56.540        0.084      340.222       14.091      858.077
06/13/2014  03:15:00     -178.154      132.366      -26.746       82.720      119.232       57.685     6842.673    14216.223     3327.581        3.718        1.219      221.945       54.152        0.060      340.193       14.043      858.068
06/13/2014  03:16:00     -198.417      199.609      -61.091       94.664      118.799       65.885     8961.260    14113.229     4340.827        5.517        1.371      281.448       61.676        0.048      340.117       13.913      858.073
06/13/2014  03:17:00     -118.168       60.521        8.558       92.455       93.681       53.525     8547.858     8776.090     2864.897        1.894        1.009      132.765       45.495        0.117      340.104       13.892      858.089
06/13/2014  03:18:00     -197.773      146.502      -39.168      112.932       96.639       62.235    12753.731     9339.066     3873.256        4.403        1.298      246.124       57.930        0.055      340.138       13.949      858.100
06/13/2014  03:19:00     -240.320      259.681      -40.335      122.979      126.304       81.978    15123.907    15952.809     6720.389        8.230        1.890      353.819       75.706        0.046      340.140       13.952      858.076
06/13/2014  03:20:00     -238.222      206.156      -40.405       96.285      104.144       67.105     9270.789    10845.994     4503.036        6.275        1.231      315.040       54.979        0.030      340.172       14.005      858.083
06/13/2014  03:21:00     -252.226      138.028      -43.088      127.442      107.935       52.396    16241.437    11649.996     2745.384        5.758        1.532      287.523       46.723        0.026      340.167       13.996      858.063
06/13/2014  03:22:00     -146.217       50.747      -21.624       66.495       88.259       36.429     4421.583     7789.681     1327.090        1.898        0.677      154.773       28.079        0.033      340.160       13.988      858.061
06/13/2014  03:23:00     -177.042      106.506      -27.911       87.381       56.425       44.559     7635.520     3183.732     1985.510        2.813        0.640      206.609       47.869        0.054      340.152       13.974      858.073
06/13/2014  03:24:00     -137.477      101.092       -4.449       95.104       81.232       56.688     9044.702     6598.694     3213.503        2.399        0.943      170.645       65.834        0.149      340.108       13.900      858.087
06/13/2014  03:25:00     -190.304      150.956      -28.423      110.587      139.145       66.653    12229.396    19361.357     4442.588        4.792        1.802      242.906       66.086        0.074      340.168       14.000      858.098
06/13/2014  03:26:00     -179.067       52.912      -17.157      110.342       79.078       43.586    12175.353     6253.356     1899.709        2.774        1.016      186.721       54.151        0.084      340.115       13.911      858.113
06/13/2014  03:27:00     -147.469       91.481      -19.561       90.894       61.594       51.621     8261.747     3793.827     2664.747        2.261        0.736      173.539       43.724        0.063      340.049       13.800      858.121
06/13/2014  03:28:00     -232.277      227.797      -48.996      117.125      133.852       62.336    13718.329    17916.283     3885.831        7.188        1.776      325.336       79.325        0.059      340.147       13.964      858.139
06/13/2014  03:29:00     -251.487      220.255      -45.557      106.947      124.659       64.072    11437.666    15539.767     4105.213        7.245        1.554      334.302       59.252        0.031      340.132       13.937      858.120
06/13/2014  03:30:00     -233.487      316.869      -64.738       80.793       82.466       49.668     6527.563     6800.641     2466.940        8.745        0.790      393.602       36.104        0.008      340.110       13.901      858.111
06/13/2014  03:31:00     -254.485      254.100      -74.537      109.293       85.637       56.406    11944.936     7333.715     3181.625        7.867        1.123      359.623       58.678        0.027      340.207       14.063      858.085
06/13/2014  03:32:00     -208.056      203.405      -39.615       78.207       90.912       57.130     6116.396     8265.010     3263.869        5.193        0.882      290.966       50.749        0.030      340.144       13.956      858.091
06/13/2014  03:33:00     -256.041      289.250      -60.662       78.005      109.665       64.338     6084.810    12026.310     4139.315        8.757        1.113      386.293       53.584        0.019      340.067       13.827      858.096
06/13/2014  03:34:00     -203.568      195.828      -46.867       89.401      158.351       59.131     7992.586    25075.140     3496.514        5.927        1.828      282.469       61.086        0.047      340.068       13.832      858.092
06/13/2014  03:35:00     -191.917       26.209      -29.735       62.424       95.244       39.172     3896.767     9071.407     1534.474        2.645        0.725      193.698       25.268        0.017      340.147       13.964      858.104
06/13/2014  03:36:00      -77.460       49.136        2.079       81.452       94.944       51.394     6634.402     9014.394     2641.392        1.335        0.915       91.730       50.576        0.304      340.163       13.992      858.112
06/13/2014  03:37:00     -182.829      182.879      -25.438      104.506      112.381       58.580    10921.421    12629.555     3431.614        4.725        1.349      258.595       65.652        0.064      340.232       14.110      858.128
06/13/2014  03:38:00     -244.877      296.450      -57.295      135.810      150.262       69.328    18444.225    22578.665     4806.389        9.847        2.291      384.510       82.403        0.046      340.220       14.085      858.124
06/13/2014  03:39:00      -97.503      175.186      -17.102       60.901      112.449       48.943     3708.991    12644.724     2395.400        2.962        0.937      200.492       50.026        0.062      340.133       13.941      858.086
06/13/2014  03:40:00     -134.758      181.407      -17.314      103.867      133.611       61.015    10788.260    17851.866     3722.818        4.186        1.618      225.983       65.194        0.083      340.165       13.994      858.078
06/13/2014  03:41:00     -144.702      209.964      -25.867       63.958      106.340       57.470     4090.576    11308.266     3302.797        4.219        0.935      254.997       57.104        0.050      340.141       13.954      858.077
06/13/2014  03:42:00     -173.260      248.131      -51.161       69.562      119.307       61.151     4838.868    14234.100     3739.402        5.850        1.141      302.635       54.326        0.032      340.152       13.972      858.092
06/13/2014  03:43:00     -189.956      182.150      -41.815       89.120       85.912       53.612     7942.334     7380.849     2874.253        4.460        0.910      263.177       50.600        0.037      340.255       14.145      858.113
06/13/2014  03:44:00     -209.841      246.384      -47.748       83.721      119.134       59.775     7009.169    14192.830     3572.996        6.589        1.239      323.633       50.497        0.024      340.061       13.817      858.131
06/13/2014  03:45:00     -210.751      264.739      -46.244       97.972      112.413       61.284     9598.528    12636.755     3755.705        7.131        1.300      338.382       56.178        0.028      340.037       13.777      858.122
06/13/2014  03:46:00     -160.787      184.470      -30.894       77.020      100.376       54.838     5932.099    10075.425     3007.203        3.992        0.951      244.707       50.905        0.043      340.053       13.805      858.127
06/13/2014  03:47:00     -196.581      109.761      -26.952       95.270       79.031       57.899     9076.417     6245.963     3352.322        3.504        0.934      225.147       53.067        0.056      340.077       13.845      858.159
06/13/2014  03:48:00     -155.942       60.609       -9.438      123.110       80.689       60.107    15155.961     6510.725     3612.825        2.667        1.264      167.306       64.035        0.146      340.079       13.850      858.183
06/13/2014  03:49:00     -121.079       95.963      -17.595       73.043      106.183       41.735     5335.303    11274.895     1741.786        2.126        0.918      154.496       37.538        0.059      340.109       13.900      858.175
06/13/2014  03:50:00     -108.267        4.551      -27.167       85.531      115.644       37.202     7315.557    13373.510     1383.987        1.727        1.104      108.363       27.942        0.066      340.104       13.893      858.169
06/13/2014  03:51:00     -103.395       -6.799       -9.824       92.865       98.703       32.107     8623.840     9742.193     1030.838        1.511        0.970      103.618       35.327        0.116      340.070       13.837      858.177
06/13/2014  03:52:00     -153.388       43.028      -26.065      110.940       89.405       40.061    12307.608     7993.342     1604.866        2.398        1.095      159.309       48.015        0.091      340.098       13.882      858.200
06/13/2014  03:53:00     -179.824       68.602      -21.719       60.566       66.379       39.552     3668.212     4406.221     1564.381        2.357        0.482      192.466       35.805        0.035      340.068       13.830      858.214
06/13/2014  03:54:00     -192.193      118.248      -40.400       94.434      110.942       57.922     8917.782    12308.192     3354.909        3.856        1.229      225.657       48.717        0.047      340.033       13.771      858.218
06/13/2014  03:55:00     -225.720      229.036      -48.000       95.995      128.778       61.091     9215.024    16583.850     3732.057        6.762        1.477      321.569       66.296        0.043      340.029       13.764      858.223
06/13/2014  03:56:00     -167.384      137.484      -19.569       84.338      108.247       51.505     7112.844    11717.434     2652.780        3.439        1.074      216.608       48.946        0.051      340.072       13.837      858.194
06/13/2014  03:57:00     -169.904       71.890      -26.088      118.648      105.651       58.225    14077.429    11162.105     3390.197        3.167        1.431      184.487       52.552        0.081      340.249       14.136      858.159
06/13/2014  03:58:00     -249.450      190.978      -41.178      124.659      131.394       71.219    15539.900    17264.365     5072.130        6.913        1.894      314.162       66.914        0.045      340.210       14.069      858.182
06/13/2014  03:59:00     -206.376      255.565      -40.553       85.077      118.525       59.739     7238.138    14048.200     3568.718        6.720        1.243      328.488       63.214        0.037      340.099       13.883      858.203
06/13/2014  04:00:00     -208.402      126.517      -34.065       76.666       66.752       49.484     5877.644     4455.779     2448.661        3.669        0.639      243.799       38.736        0.025      340.225       14.095      858.230
06/13/2014  04:01:00     -229.257      -73.529       -8.671      137.355      128.725       55.608    18866.365    16570.253     3092.284        4.828        1.926      240.760       55.680        0.053      340.078       13.847      858.248
06/13/2014  04:02:00     -181.588      -44.487       -6.615      119.761       74.490       45.850    14342.606     5548.723     2102.192        2.849        1.100      186.958       52.957        0.080      339.824       13.421      858.268
06/13/2014  04:03:00     -235.862      -84.265       -9.927      103.023       90.179       45.423    10613.737     8132.207     2063.294        4.182        1.040      250.463       43.993        0.031      339.839       13.443      858.253
06/13/2014  04:04:00     -172.096      131.948      -15.484      101.450      158.083       54.693    10292.061    24990.130     2991.322        4.276        1.914      216.858       61.476        0.080      339.979       13.679      858.249
06/13/2014  04:05:00     -173.658      170.778      -22.424       81.774      109.605       50.777     6686.920    12013.252     2578.265        4.055        1.064      243.561       52.877        0.047      340.134       13.941      858.223
06/13/2014  04:06:00     -181.061      126.328      -46.993       63.911       94.349       44.793     4084.594     8901.767     2006.403        3.297        0.750      220.776       42.913        0.038      340.202       14.057      858.214
06/13/2014  04:07:00     -155.379       93.687      -26.019       76.176       81.605       46.987     5802.858     6659.424     2207.752        2.413        0.734      181.438       41.079        0.051      340.216       14.081      858.215
06/13/2014  04:08:00     -143.099      100.266      -26.753       64.288      103.161       51.728     4132.942    10642.162     2675.773        2.435        0.873      174.730       28.679        0.027      340.172       14.008      858.222
06/13/2014  04:09:00     -245.711      165.757      -55.642       96.495       97.622       56.415     9311.191     9530.015     3182.665        5.648        1.101      296.394       62.484        0.044      340.156       13.980      858.236
06/13/2014  04:10:00     -171.488      111.286      -16.629      111.358      128.204       57.878    12400.515    16436.334     3349.808        3.712        1.609      204.433       51.737        0.064      340.149       13.968      858.243
06/13/2014  04:11:00     -245.668      -85.433      -27.952       91.345       72.303       47.486     8343.924     5227.733     2254.949        4.213        0.791      260.099       32.806        0.016      340.105       13.893      858.224
06/13/2014  04:12:00     -185.690      -65.055       -6.828       83.432       92.808       52.395     6960.937     8613.309     2745.185        2.854        0.916      196.756       47.513        0.058      340.017       13.745      858.236
06/13/2014  04:13:00     -174.227      -61.752      -21.212       87.262       65.307       46.945     7614.739     4264.958     2203.830        2.435        0.704      184.847       27.995        0.023      340.002       13.719      858.238
06/13/2014  04:14:00     -102.689      -22.612        1.495       91.953       69.954       37.522     8455.285     4893.572     1407.922        1.290        0.738      105.149       31.981        0.093      339.962       13.653      858.240
06/13/2014  04:15:00     -159.167      -14.944       -8.055       77.233       86.829       39.493     5964.942     7539.226     1559.675        2.034        0.753      159.867       36.778        0.053      340.161       13.990      858.245
06/13/2014  04:16:00     -240.386      -17.343      -37.762       96.464       74.715       32.224     9305.268     5582.315     1038.361        3.772        0.796      241.011       36.252        0.023      340.088       13.865      858.255
06/13/2014  04:17:00     -143.021      -13.753      -10.583       64.675       73.309       40.991     4182.809     5374.193     1680.257        1.599        0.562      143.681       34.092        0.056      339.997       13.713      858.253
06/13/2014  04:18:00     -100.353       11.788      -29.966       79.669       68.376       49.346     6347.129     4675.209     2435.065        1.228        0.673      101.043       45.674        0.204      340.106       13.896      858.240
06/13/2014  04:19:00     -128.857      128.597      -27.534       71.337       65.201       45.807     5088.948     4251.162     2098.320        2.267        0.572      182.047       32.938        0.033      340.173       14.009      858.213
06/13/2014  04:20:00      -85.076       84.644       -1.564       48.386       80.413       38.101     2341.199     6466.320     1451.723        1.233        0.513      120.011       30.853        0.066      340.167       14.000      858.214
06/13/2014  04:21:00     -175.736      -40.227      -17.464       93.304       53.734       34.715     8705.661     2887.300     1205.153        2.280        0.640      180.281       38.809        0.046      340.219       14.087      858.223
06/13/2014  04:22:00     -267.691      -32.288      -33.917       67.498       83.004       41.221     4556.001     6889.624     1699.141        4.350        0.657      269.631       35.184        0.017      340.085       13.857      858.250
06/13/2014  04:23:00     -146.931      -75.725       -5.782       94.828       69.423       45.204     8992.395     4819.531     2043.401        2.160        0.793      165.297       42.886        0.067      339.864       13.486      858.260
06/13/2014  04:24:00     -126.347       -9.432        0.318       61.543       73.377       44.693     3787.589     5384.186     1997.439        1.361        0.558      126.699       36.267        0.082      339.773       13.336      858.272
06/13/2014  04:25:00     -140.086      -22.448       -9.412       50.523       51.404       28.387     2552.560     2642.418      805.818        1.311        0.300      141.873       27.303        0.037      339.728       13.262      858.282
06/13/2014  04:26:00     -152.787       -1.022       -8.540       63.372       52.192       32.939     4016.060     2724.030     1084.987        1.562        0.391      152.790       33.784        0.049      339.888       13.529      858.276
06/13/2014  04:27:00      -82.847      -28.957      -10.579       26.266       54.306       19.813      689.908     2949.181      392.553        0.592        0.202       87.761       21.666        0.061      339.872       13.502      858.263
06/13/2014  04:28:00      -78.306        1.765       -3.382       74.708       36.127       26.542     5581.359     1305.166      704.477        0.687        0.380       78.326       33.771        0.186      339.890       13.533      858.255
06/13/2014  04:29:00      -46.387      -15.520       -1.139       37.471       23.539       14.100     1404.045      554.091      198.812        0.228        0.108       48.914       12.306        0.063      339.871       13.502      858.231
06/13/2014  04:30:00      -66.604      -37.412       -0.525       44.626       40.362       18.767     1991.440     1629.106      352.189        0.490        0.199       76.392       19.349        0.064      339.968       13.662      858.244
06/13/2014  04:31:00        7.939       -3.266        0.906       66.242       22.683       32.072     4388.026      514.515     1028.596        0.300        0.297        8.585       39.941       21.645      339.926       13.594      858.266
06/13/2014  04:32:00      -31.257       60.885       14.106       68.513       51.731       46.828     4694.050     2676.142     2192.830        0.722        0.478       68.439       44.586        0.424      339.952       13.639      858.273
06/13/2014  04:33:00      -48.464       55.855       -8.595       27.851       41.029       17.447      775.670     1683.372      304.383        0.415        0.138       73.950       20.801        0.079      339.976       13.678      858.285
06/13/2014  04:34:00      -48.717      124.398       -6.071       45.204       51.836       31.623     2043.387     2686.998     1000.027        1.181        0.287      133.598       30.060        0.051      339.948       13.632      858.291
06/13/2014  04:35:00      -31.857       -5.611        1.424       27.507       23.669       20.441      756.614      560.215      417.821        0.139        0.087       32.347       18.688        0.334      339.907       13.563      858.295
06/13/2014  04:36:00       -6.558      -36.087       17.360       21.664       40.010       26.252      469.348     1600.811      689.149        0.220        0.138       36.679        6.933        0.036      339.911       13.569      858.302
06/13/2014  04:37:00      -25.905       36.561       23.981       16.931       38.039       28.398      286.659     1446.997      806.430        0.256        0.127       44.809       19.530        0.190      339.902       13.554      858.315
06/13/2014  04:38:00       34.134      -76.093      -19.589       19.901       28.668       15.201      396.069      821.833      231.072        0.439        0.072       83.399       12.345        0.022      339.864       13.491      858.321
06/13/2014  04:39:00       16.779      -55.574       -3.317       51.950       23.492       22.539     2698.840      551.876      508.028        0.357        0.188       58.052       15.373        0.070      339.946       13.628      858.324
06/13/2014  04:40:00      -42.148      -53.270       -7.802       18.783       20.657       12.782      352.815      426.727      163.384        0.281        0.047       67.927        7.982        0.014      339.959       13.649      858.340
06/13/2014  04:41:00       -5.194      -14.984        6.081       14.465       10.119        7.892      209.250      102.393       62.278        0.033        0.019       15.858        5.734        0.131      339.957       13.645      858.350
06/13/2014  04:42:00      -14.489      -17.155       -8.670       16.337       10.145       12.748      266.884      102.922      162.523        0.056        0.027       22.455       12.243        0.297      339.998       13.715      858.355
06/13/2014  04:43:00       22.699      -52.677        7.614       29.656       31.033       21.890      879.475      963.077      479.157        0.283        0.116       57.359       21.973        0.147      339.942       13.620      858.365
06/13/2014  04:44:00       -7.845      -16.820       17.049       43.416       22.127       14.800     1884.978      489.616      219.047        0.161        0.130       18.559       20.751        1.250      339.776       13.341      858.381
06/13/2014  04:45:00     -102.063      -63.257       -3.268       37.040       31.808       22.644     1371.925     1011.766      512.773        0.866        0.145      120.076       19.905        0.027      339.773       13.335      858.400
06/13/2014  04:46:00       -3.410        7.983       -2.157       36.950       23.393       11.570     1365.279      547.215      133.862        0.106        0.102        8.681       13.675        2.482      339.780       13.348      858.399
06/13/2014  04:47:00       13.257       37.318       24.769       31.227       22.710       15.823      975.129      515.763      250.365        0.196        0.087       39.603       13.713        0.120      339.645       13.120      858.365
06/13/2014  04:48:00      -15.359      -14.650       14.067       14.792       19.347       22.206      218.810      374.289      493.088        0.087        0.054       21.225        6.683        0.099      339.544       12.949      858.356
06/13/2014  04:49:00      -49.767       16.920       -3.947       20.247       12.011        9.108      409.951      144.266       82.959        0.171        0.032       52.564        7.146        0.018      339.725       13.257      858.370
06/13/2014  04:50:00      -58.508      -34.705       -5.406       25.025       17.196       12.937      626.251      295.705      167.353        0.287        0.054       68.027       13.320        0.038      339.679       13.179      858.384
06/13/2014  04:51:00      -36.031      -36.324        3.257       33.984       26.974       15.501     1154.896      727.589      240.295        0.238        0.106       51.163       19.023        0.138      339.650       13.129      858.393
06/13/2014  04:52:00        2.669      -22.637       10.564       16.108       24.236       10.645      259.480      587.402      113.316        0.080        0.048       22.794       12.527        0.302      339.664       13.152      858.385
06/13/2014  04:53:00        2.363       15.660        0.221       12.360       10.002        5.386      152.770      100.049       29.013        0.027        0.014       15.837        7.172        0.205      339.673       13.168      858.377
06/13/2014  04:54:00      -50.145      -20.603       -7.408       20.259       17.762       10.949      410.447      315.504      119.871        0.192        0.042       54.212       10.375        0.037      339.818       13.413      858.394
06/13/2014  04:55:00      -47.939      -18.973       -3.033       18.156       10.146        9.428      329.634      102.949       88.888        0.159        0.026       51.557        5.151        0.010      339.690       13.196      858.409
06/13/2014  04:56:00        8.697       11.568        8.061        7.800       12.574        5.945       60.835      158.113       35.341        0.026        0.013       14.473        7.489        0.268      339.617       13.074      858.409
06/13/2014  04:57:00       -8.859        3.044        2.928       20.335        6.940        8.427      413.498       48.161       71.014        0.031        0.027        9.367       11.849        1.600      339.596       13.039      858.404
06/13/2014  04:58:00      -48.875       23.918       -5.777       16.667       17.251       10.183      277.803      297.582      103.702        0.184        0.034       54.414       11.924        0.048      339.540       12.943      858.414
06/13/2014  04:59:00      -86.180       77.018      -23.116       17.697       23.779       10.069      313.174      565.452      101.385        0.744        0.049      115.580        7.287        0.004      339.414       12.733      858.434
06/13/2014  05:00:00     -102.208       55.618      -17.130       18.242       31.028       15.479      332.773      962.737      239.590        0.768        0.077      116.361       13.418        0.013      339.478       12.838      858.446
06/13/2014  05:01:00     -114.535       37.189      -15.734       25.131       41.877       19.210      631.544     1753.694      369.014        0.875        0.138      120.421       14.482        0.014      339.278       12.501      858.460
06/13/2014  05:02:00      -81.520       66.834      -19.867       24.728       19.133       12.807      611.465      366.067      164.015        0.632        0.057      105.415       11.502        0.012      339.312       12.557      858.468
06/13/2014  05:03:00      -71.172       54.255      -10.660       24.308       24.390       15.828      590.882      594.855      250.510        0.478        0.072       89.493        7.031        0.006      339.398       12.705      858.457
06/13/2014  05:04:00      -62.253       64.697      -20.881       15.184       20.709       10.491      230.548      428.879      110.064        0.463        0.038       89.784        4.714        0.003      339.509       12.893      858.456
06/13/2014  05:05:00      -53.304       -9.088      -12.092       19.996       16.635       10.271      399.826      276.725      105.493        0.193        0.039       54.073       10.891        0.041      339.515       12.900      858.470
06/13/2014  05:06:00      -59.959      -25.754       -5.089       13.256       13.499       11.291      175.723      182.224      127.486        0.238        0.024       65.256        8.872        0.018      339.629       13.093      858.481
06/13/2014  05:07:00      -50.756      -53.211       -0.560       21.115       15.602       12.974      445.832      243.437      168.323        0.313        0.043       73.536       12.189        0.027      339.793       13.369      858.484
06/13/2014  05:08:00      -19.743       -7.167        5.364       25.062       21.103       12.623      628.121      445.355      159.328        0.085        0.062       21.004       13.215        0.396      339.736       13.274      858.492
06/13/2014  05:09:00      -14.694       27.344       -1.957       12.396       10.708       10.999      153.661      114.651      120.987        0.068        0.019       31.043        9.494        0.094      339.511       12.894      858.499
06/13/2014  05:10:00      -22.761        5.684       -2.089       17.742       18.207        8.478      314.783      331.499       71.871        0.064        0.036       23.460        9.685        0.170      339.543       12.950      858.496
06/13/2014  05:11:00      -55.557       60.843      -12.276       19.631       29.337       12.511      385.360      860.650      156.536        0.417        0.070       82.392        9.814        0.014      340.222       14.095      858.482
06/13/2014  05:12:00       11.878       46.637        2.461       26.983       12.491       14.381      728.078      156.036      206.814        0.171        0.055       48.126       15.195        0.100      340.210       14.073      858.473
06/13/2014  05:13:00       22.717      135.220      -21.171       15.778       17.821       11.415      248.935      317.578      130.310        0.997        0.035      137.115       11.239        0.007      340.104       13.895      858.477
06/13/2014  05:14:00       14.803      120.005      -23.403       11.648       31.927        6.779      135.682     1019.353       45.949        0.818        0.060      120.915       11.573        0.009      340.180       14.018      858.479
06/13/2014  05:15:00       11.197      112.829      -13.651       30.822       31.234       20.754      949.995      975.569      430.729        0.770        0.118      113.384       17.258        0.023      340.026       13.761      858.485
06/13/2014  05:16:00      -26.149      102.852       -4.809       38.215       46.885       24.935     1460.373     2198.238      621.730        0.778        0.214      106.124       18.789        0.031      339.868       13.496      858.484
06/13/2014  05:17:00      -21.217       67.256       -0.059       18.185       46.462       16.255      330.706     2158.682      264.221        0.386        0.138       70.523       21.653        0.094      339.833       13.439      858.489
06/13/2014  05:18:00      -23.333       10.397        3.767       15.561       10.288       10.456      242.154      105.844      109.326        0.056        0.023       25.544        7.584        0.088      339.574       13.000      858.494
06/13/2014  05:19:00      -49.208       14.747        4.874       28.617       18.525       11.570      818.953      343.177      133.864        0.198        0.065       51.371       11.956        0.054      339.663       13.150      858.495
06/13/2014  05:20:00      -78.508        3.011       -0.328       26.588       17.540       12.504      706.931      307.658      156.348        0.367        0.059       78.566       10.719        0.019      339.636       13.106      858.503
06/13/2014  05:21:00      -74.390      -25.585       -1.555       38.873       34.398       15.868     1511.139     1183.202      251.809        0.457        0.147       78.667        8.394        0.011      339.230       12.422      858.504
06/13/2014  05:22:00     -159.348      -68.530       -1.327       35.761       33.915       19.848     1278.840     1150.195      393.929        1.646        0.141      173.460       10.228        0.003      339.083       12.173      858.501
06/13/2014  05:23:00     -129.527      -39.620        0.961       49.182       27.981       21.707     2418.889      782.918      471.200        1.101        0.184      135.451       23.671        0.031      339.043       12.106      858.500
06/13/2014  05:24:00      -72.920      -40.188        7.307       50.916       30.242       20.364     2592.440      914.609      414.689        0.545        0.196       83.261       22.853        0.075      339.021       12.069      858.507
06/13/2014  05:25:00      -75.220      -66.489        2.265       56.748       38.062       21.318     3220.349     1448.738      454.472        0.760        0.256      100.393       28.240        0.079      339.272       12.490      858.518
06/13/2014  05:26:00      -56.950      -33.340       11.381       47.182       21.888       17.704     2226.172      479.078      313.424        0.375        0.151       65.992       24.047        0.133      339.364       12.647      858.524
06/13/2014  05:27:00      -51.061       -1.235        3.851       24.649       20.296       14.209      607.583      411.914      201.888        0.192        0.061       51.076        5.567        0.012      339.242       12.442      858.533
06/13/2014  05:28:00      -72.107      -38.999       -4.481       23.303       15.125       12.680      543.008      228.773      160.787        0.384        0.047       81.977        7.796        0.009      339.253       12.458      858.537
06/13/2014  05:29:00      -81.911      -39.945       -0.841       15.055       14.674        8.907      226.648      215.339       79.333        0.441        0.026       91.132        5.433        0.004      339.218       12.401      858.539
06/13/2014  05:30:00      -68.513      -14.634        0.694       27.087       26.656       12.267      733.717      710.546      150.484        0.325        0.080       70.059        9.487        0.018      339.199       12.368      858.547
06/13/2014  05:31:00      -96.279       -0.694      -10.922        8.611       13.963        9.580       74.147      194.956       91.780        0.488        0.018       96.282        4.497        0.002      339.170       12.319      858.540
06/13/2014  05:32:00      -81.828       -3.165       -9.912       12.328       19.772        8.501      151.972      390.915       72.270        0.371        0.031       81.890        6.460        0.006      339.570       12.994      858.536
06/13/2014  05:33:00      -81.184       17.071      -12.564       17.566       12.846        9.219      308.549      165.029       84.998        0.380        0.028       82.959        7.247        0.008      339.371       12.661      858.533
06/13/2014  05:34:00      -50.934       27.431      -11.669       21.182       24.938       12.138      448.662      621.880      147.339        0.235        0.061       57.851       16.009        0.077      339.164       12.310      858.532
06/13/2014  05:35:00      -54.500        4.760       -9.510       14.968       23.067       11.536      224.040      532.076      133.088        0.199        0.044       54.708       10.230        0.035      339.058       12.132      858.527
06/13/2014  05:36:00      -25.951      -12.671       -5.544       20.078       14.144       10.678      403.109      200.063      114.015        0.079        0.036       28.879        9.175        0.101      339.103       12.208      858.517
06/13/2014  05:37:00      -49.856      -49.378       -9.593       24.436       28.907       14.010      597.107      835.630      196.283        0.332        0.081       70.170       13.054        0.035      338.920       11.900      858.512
06/13/2014  05:38:00      -58.366      -26.747        6.912       49.897       30.173       20.647     2489.676      910.390      426.313        0.400        0.191       64.202       25.343        0.156      338.846       11.774      858.526
06/13/2014  05:39:00     -157.967      -49.305       -3.553       28.768       41.666       20.291      827.604     1736.095      411.719        1.519        0.149      165.483       12.618        0.006      338.791       11.683      858.540
06/13/2014  05:40:00     -110.447      -23.308       -1.801       40.698       30.318       22.931     1656.343      919.204      525.834        0.792        0.155      112.880       21.964        0.038      338.662       11.464      858.555
06/13/2014  05:41:00      -87.204       -6.236        5.563       50.989       32.490       24.634     2599.911     1055.626      606.837        0.597        0.213       87.426       29.712        0.115      338.499       11.192      858.560
06/13/2014  05:42:00     -127.169      -14.995       -6.255       51.417       32.609       28.166     2643.697     1063.361      793.303        1.047        0.225      128.050       21.137        0.027      338.387       11.005      858.571
06/13/2014  05:43:00     -141.313        6.821      -12.970       28.882       23.914       18.210      834.165      571.903      331.597        1.096        0.087      141.477       13.351        0.009      338.489       11.175      858.569
06/13/2014  05:44:00      -81.688        4.343        2.234       35.932       21.798       21.945     1291.117      475.170      481.576        0.447        0.112       81.803       21.454        0.069      338.489       11.174      858.561
06/13/2014  05:45:00     -105.664       -4.053       -0.454       30.173       18.715       13.115      910.422      350.265      172.001        0.631        0.072      105.741       12.731        0.014      338.522       11.231      858.563
06/13/2014  05:46:00     -104.243       -5.223       -7.085       26.403       15.474       14.366      697.132      239.448      206.369        0.604        0.057      104.373       13.145        0.016      338.609       11.376      858.563
06/13/2014  05:47:00      -80.006       -4.094       -2.449       33.408       22.708       16.725     1116.096      515.665      279.741        0.417        0.096       80.110       17.901        0.050      338.690       11.514      858.543
06/13/2014  05:48:00      -99.155      -22.214       -8.148       21.983       15.120       11.938      483.272      228.629      142.522        0.562        0.043      101.613        5.680        0.003      338.692       11.517      858.540
06/13/2014  05:49:00      -53.518       -7.114       -4.613       21.559       14.717        8.478      464.798      216.597       71.876        0.184        0.038       53.988        8.648        0.026      338.807       11.708      858.546
06/13/2014  05:50:00      -50.785      -40.536      -13.867       19.820       21.964       15.328      392.841      482.400      234.936        0.276        0.056       64.980       11.504        0.031      338.952       11.951      858.560
06/13/2014  05:51:00       -3.759      -25.197        5.085       16.433       22.114       17.022      270.028      489.041      289.752        0.086        0.052       25.476       12.870        0.255      338.764       11.638      858.568
06/13/2014  05:52:00      -55.137      -15.111       -4.697       16.336       13.774       11.131      266.862      189.715      123.902        0.194        0.029       57.171        6.304        0.012      338.744       11.604      858.563
06/13/2014  05:53:00      -64.068      -13.641       -6.055       16.121       19.627       10.901      259.898      385.227      118.822        0.255        0.038       65.504        8.347        0.016      338.676       11.489      858.557
06/13/2014  05:54:00      -51.558       -6.803       -5.862       15.899       10.825        6.632      252.776      117.187       43.989        0.158        0.021       52.004        4.921        0.009      338.831       11.751      858.546
06/13/2014  05:55:00      -32.866      -11.653       -3.030        9.650       10.158        6.370       93.121      103.178       40.583        0.073        0.012       34.871        5.204        0.022      338.916       11.893      858.530
06/13/2014  05:56:00      -20.790       -5.321       -2.739        6.824        6.318        5.764       46.570       39.911       33.220        0.029        0.006       21.460        4.995        0.054      338.947       11.945      858.521
06/13/2014  05:57:00      -16.213        1.886       -2.918        6.346        6.447        6.253       40.278       41.566       39.104        0.020        0.006       16.322        3.497        0.046      339.018       12.064      858.519
06/13/2014  05:58:00      -71.315      -13.156       -6.472       31.822       13.270       11.730     1012.648      176.083      137.599        0.331        0.066       72.519       15.658        0.047      338.786       11.673      858.553
06/13/2014  05:59:00     -135.880      -38.646      -14.436       30.585       26.649       18.250      935.421      710.154      333.059        1.107        0.099      141.269       13.042        0.009      338.503       11.200      858.580
06/13/2014  06:00:00      -38.682      -24.281        2.605       50.763       36.110       28.787     2576.926     1303.900      828.691        0.340        0.235       45.671       32.417        0.504      338.520       11.228      858.625
06/13/2014  06:01:00      -40.125      -10.235        5.312       24.105       27.562       16.660      581.074      759.652      277.554        0.168        0.081       41.409       15.116        0.133      338.459       11.125      858.645
06/13/2014  06:02:00      -45.130       -2.732       -9.425       17.028       16.026        8.360      289.936      256.819       69.896        0.137        0.031       45.213        5.381        0.014      338.500       11.194      858.626
06/13/2014  06:03:00      -51.701       -1.477       -9.773       25.290       18.532       12.777      639.596      343.428      163.246        0.196        0.057       51.722       11.086        0.046      338.606       11.371      858.605
06/13/2014  06:04:00      -86.246      -24.939       -8.102       32.329       31.228       14.315     1045.158      975.187      204.912        0.518        0.111       89.779       16.436        0.034      338.754       11.621      858.601
06/13/2014  06:05:00      -86.553      -52.060      -10.082       45.198       40.508       29.306     2042.892     1640.934      858.850        0.742        0.227      101.003       23.673        0.055      338.729       11.580      858.619
06/13/2014  06:06:00     -113.682      -46.918       -9.227       56.719       28.348       22.509     3217.003      803.618      506.643        0.987        0.226      122.984       26.859        0.048      338.634       11.418      858.645
06/13/2014  06:07:00      -85.771      -26.078       -7.158       33.410       21.996       12.931     1116.209      483.831      167.202        0.493        0.088       89.648       14.797        0.027      338.757       11.625      858.636
06/13/2014  06:08:00      -69.406      -22.853      -10.640       17.759       14.626       10.995      315.378      213.909      120.895        0.305        0.033       73.071        8.750        0.014      338.900       11.864      858.631
06/13/2014  06:09:00     -108.741      -50.224       -2.841       30.234       23.948       12.722      914.079      573.510      161.857        0.800        0.082      119.779       15.748        0.017      338.882       11.835      858.635
06/13/2014  06:10:00     -126.496      -75.559       -3.115       28.755       21.402       19.140      826.857      458.037      366.327        1.169        0.083      147.345       13.480        0.008      338.890       11.849      858.649
06/13/2014  06:11:00      -75.376      -42.398        0.473       31.717       26.209       19.408     1005.999      686.906      376.688        0.477        0.103       86.481       14.947        0.030      338.822       11.734      858.644
06/13/2014  06:12:00     -115.215      -51.572      -11.874       15.513       14.062       12.447      240.643      197.748      154.936        0.833        0.030      126.230        2.238        0.000      338.854       11.788      858.644
06/13/2014  06:13:00     -100.358      -31.632       -8.047       20.394       30.751       13.973      415.908      945.617      195.258        0.635        0.078      105.225       10.934        0.011      338.699       11.529      858.658
06/13/2014  06:14:00      -98.908      -18.788       -7.470       26.676       17.960       15.763      711.625      322.577      248.457        0.574        0.064      100.676       12.832        0.016      338.669       11.479      858.670
06/13/2014  06:15:00     -105.274       -1.038       -7.593       17.408       20.702       12.021      303.032      428.573      144.512        0.601        0.044      105.279        6.432        0.004      338.694       11.521      858.665
06/13/2014  06:16:00     -106.572      -16.399       -7.443       33.648       23.315       15.109     1132.217      543.577      228.278        0.679        0.095      107.827       12.250        0.013      338.848       11.778      858.661
06/13/2014  06:17:00      -36.544       -9.386        4.404       18.128       14.834       12.029      328.639      220.039      144.703        0.107        0.035       37.730        7.927        0.044      338.881       11.834      858.656
06/13/2014  06:18:00      -37.791       11.734       -3.085       14.837       15.268        9.576      220.145      233.117       91.704        0.106        0.027       39.571        7.299        0.034      339.059       12.134      858.643
06/13/2014  06:19:00      -58.825       -2.192      -12.028       22.593       18.636       11.776      510.445      347.284      138.673        0.230        0.050       58.865       12.007        0.042      339.205       12.377      858.639
06/13/2014  06:20:00      -51.936      -19.127        6.589       26.011       28.520       17.057      676.566      813.389      290.932        0.244        0.089       55.346       17.742        0.103      339.144       12.277      858.655
06/13/2014  06:21:00      -37.693      -21.366        8.987       37.457       22.332       14.717     1403.041      498.714      216.587        0.204        0.106       43.327       17.252        0.159      339.042       12.104      858.666
06/13/2014  06:22:00      -26.011      -31.436        2.182       23.304       20.225       16.104      543.067      409.039      259.341        0.144        0.061       40.802       14.900        0.133      339.092       12.189      858.686
06/13/2014  06:23:00       -9.798      -44.692        7.491       30.102       18.294       18.024      906.127      334.686      324.882        0.186        0.078       45.754       16.358        0.128      339.050       12.117      858.707
06/13/2014  06:24:00      -35.971      -46.481        7.376       19.733       35.587       11.831      389.383     1266.439      139.961        0.265        0.090       58.774       15.432        0.069      339.125       12.243      858.724
06/13/2014  06:25:00      -10.072      -16.964        8.278       16.674       24.834       14.096      278.033      616.708      198.699        0.078        0.055       19.728       13.869        0.494      339.221       12.405      858.726
06/13/2014  06:26:00      -29.590       -0.646       -1.634       12.263        7.793       12.542      150.390       60.729      157.300        0.062        0.018       29.597        2.825        0.009      339.051       12.119      858.740
06/13/2014  06:27:00      -11.381       -9.467        1.745       27.629       18.304       19.898      763.370      335.054      395.946        0.086        0.075       14.803        6.070        0.168      339.045       12.111      858.746
06/13/2014  06:28:00      -92.150      -53.008        2.918       32.200       44.904       24.230     1036.845     2016.343      587.099        0.747        0.182      106.309       22.315        0.044      338.980       12.002      858.763
06/13/2014  06:29:00      -28.037      -55.142        4.523       24.909       27.898       17.525      620.440      778.305      307.143        0.278        0.085       61.860       16.451        0.071      338.995       12.026      858.766
06/13/2014  06:30:00      -27.704      -56.914        9.189        7.811       14.538        9.551       61.005      211.343       91.222        0.223        0.018       63.299        9.031        0.020      339.063       12.142      858.732
06/13/2014  06:31:00      -27.096       -9.060        9.646       14.659       12.733       10.997      214.895      162.124      120.941        0.070        0.025       28.571       11.010        0.148      339.260       12.471      858.728
06/13/2014  06:32:00      -22.538      -20.689        0.523       24.606       14.456       12.386      605.440      208.971      153.406        0.095        0.048       30.594       11.222        0.135      339.239       12.435      858.728
06/13/2014  06:33:00       -1.507       -1.836       22.684        8.298        8.802        6.927       68.850       77.483       47.980        0.036        0.010        2.375        2.326        0.959      339.814       13.405      858.750
06/13/2014  06:34:00        1.723       -2.140       25.193       16.031        8.112        8.654      256.990       65.803       74.888        0.052        0.020        2.747        6.645        5.851      339.817       13.411      858.758
06/13/2014  06:35:00      -36.027      -31.582        1.832       44.789       25.026       20.530     2006.036      626.303      421.483        0.268        0.153       47.910       20.150        0.177      339.413       12.730      858.774
06/13/2014  06:36:00      -37.062      -27.094       -0.177       32.967       30.506       18.309     1086.799      930.608      335.236        0.223        0.118       45.910       14.440        0.099      339.284       12.510      858.773
06/13/2014  06:37:00      -26.478        9.521       13.561       14.788       12.629       13.189      218.699      159.489      173.939        0.076        0.028       28.138        5.886        0.044      339.398       12.704      858.767
06/13/2014  06:38:00      -15.015       12.415        9.420       11.475       12.745       14.817      131.666      162.433      219.545        0.049        0.026       19.483       10.994        0.318      339.421       12.744      858.772
06/13/2014  06:39:00      -35.130      -22.274        8.573       26.556       24.461       17.300      705.231      598.338      299.300        0.170        0.080       41.596       10.429        0.063      339.321       12.574      858.784
06/13/2014  06:40:00      -43.002      -60.851        8.654       32.007       41.127       17.414     1024.467     1691.455      303.259        0.432        0.151       74.512       21.019        0.080      339.451       12.792      858.807
06/13/2014  06:41:00      -85.920      -76.857       -5.199       18.296       25.108       15.638      334.757      630.389      244.544        0.726        0.060      115.279       14.755        0.016      339.322       12.574      858.827
06/13/2014  06:42:00      -29.810      -42.663       13.907       24.109       27.648       13.295      581.221      764.422      176.769        0.221        0.076       52.046       14.725        0.080      339.426       12.751      858.833
06/13/2014  06:43:00      -67.152      -12.180        2.202       28.019       19.971       15.368      785.072      398.827      236.169        0.304        0.071       68.248       16.813        0.061      339.456       12.804      858.831
06/13/2014  06:44:00      -50.651       18.977       -0.819       18.014       24.414       12.492      324.490      596.057      156.045        0.200        0.054       54.089       12.383        0.052      339.443       12.780      858.822
06/13/2014  06:45:00      -47.998       26.904       -4.737       18.922       11.586       12.663      358.028      134.241      160.341        0.185        0.033       55.024       13.382        0.059      339.485       12.851      858.800
06/13/2014  06:46:00      -38.727        2.899        0.250       19.444       14.638       12.045      378.055      214.265      145.089        0.112        0.037       38.836       11.442        0.087      339.795       13.374      858.798
06/13/2014  06:47:00      -51.766      -23.158       -1.173       11.330       11.009        8.391      128.360      121.187       70.416        0.177        0.016       56.709        4.419        0.006      339.694       13.202      858.817
06/13/2014  06:48:00      -32.345      -23.372        0.906       14.814       11.853       12.212      219.455      140.482      149.134        0.105        0.025       39.905        7.492        0.035      339.707       13.224      858.823
06/13/2014  06:49:00      -22.248       -5.548        2.789       13.744        7.754       13.750      188.909       60.120      189.062        0.049        0.022       22.929       12.113        0.279      340.008       13.734      858.806
06/13/2014  06:50:00       -3.946        8.711       20.927        8.284       13.600       13.381       68.632      184.967      179.050        0.048        0.022        9.564        8.476        0.786      340.291       14.212      858.790
06/13/2014  06:51:00        5.443       26.490        2.479       18.732       17.179       12.549      350.881      295.134      157.487        0.077        0.040       27.044        8.431        0.097      339.730       13.263      858.802
06/13/2014  06:52:00       -8.724       53.861        5.567       15.907       29.548       16.009      253.039      873.071      256.275        0.219        0.069       54.563        7.639        0.020      340.178       14.020      858.819
06/13/2014  06:53:00      -14.477       17.958       10.385       22.604       24.269       15.339      510.927      588.978      235.292        0.099        0.067       23.067        8.837        0.147      340.163       13.995      858.844
06/13/2014  06:54:00      -33.614      -31.475        1.667       18.811       13.075        8.347      353.835      170.945       69.666        0.136        0.030       46.050        7.109        0.024      339.892       13.537      858.852
06/13/2014  06:55:00      -26.469      -16.663       12.740       24.596       13.272       15.624      604.943      176.137      244.094        0.108        0.051       31.277       15.552        0.247      340.118       13.918      858.854
06/13/2014  06:56:00      -11.032       -9.511       10.618       26.372       19.386       15.984      695.492      375.836      255.480        0.083        0.066       14.566       11.598        0.634      340.184       14.029      858.858
06/13/2014  06:57:00       14.696        2.008       24.364       12.756       13.331       13.451      162.710      177.719      180.926        0.067        0.026       14.833        6.127        0.171      340.379       14.360      858.849
06/13/2014  06:58:00        2.493       -1.780       27.642       13.892       12.604       11.186      192.999      158.860      125.132        0.063        0.024        3.063        8.077        6.955      340.558       14.661      858.838
06/13/2014  06:59:00       -3.724        4.779       24.940        9.944       11.193       10.602       98.875      125.294      112.409        0.050        0.017        6.059        5.599        0.854      340.678       14.864      858.839
06/13/2014  07:00:00       -6.171        2.067       22.595       10.599        8.044       12.353      112.334       64.712      152.606        0.044        0.016        6.508        7.241        1.238      340.747       14.982      858.848
06/13/2014  07:01:00        4.694        9.058       16.510        8.715       11.140       11.950       75.960      124.110      142.794        0.036        0.017       10.202        6.543        0.411      340.327       14.271      858.853
06/13/2014  07:02:00       -1.456       13.512       17.848       11.888       17.083       15.992      141.329      291.823      255.759        0.060        0.034       13.590        9.885        0.529      340.574       14.690      858.850
06/13/2014  07:03:00       24.103       26.723       -1.188       18.090       12.858       17.944      327.260      165.324      322.004        0.106        0.041       35.987        8.585        0.057      339.850       13.465      858.848
06/13/2014  07:04:00       20.520       26.824       11.239       20.533       21.798       16.412      421.602      475.139      269.366        0.122        0.058       33.773       13.828        0.168      340.254       14.149      858.842
06/13/2014  07:05:00       10.548       42.858       -9.132       14.120       26.273       12.255      199.380      690.251      150.185        0.154        0.052       44.137       13.439        0.093      340.242       14.127      858.830
06/13/2014  07:06:00       46.564       36.350       11.177       28.561       22.961       20.810      815.713      527.206      433.066        0.269        0.089       59.072       15.459        0.068      340.342       14.298      858.820
06/13/2014  07:07:00       31.916       87.764        2.410       32.933       49.556       32.693     1084.579     2455.795     1068.840        0.667        0.230       93.388       33.808        0.131      340.395       14.387      858.817
06/13/2014  07:08:00       16.435      126.722      -12.684       29.634       36.066       29.391      878.165     1300.774      863.835        0.977        0.152      127.783       24.609        0.037      340.290       14.208      858.800
06/13/2014  07:09:00        5.330       96.522       -5.022       17.807       26.365       18.989      317.097      695.093      360.582        0.537        0.069       96.669       16.190        0.028      340.429       14.443      858.792
06/13/2014  07:10:00       30.539       36.136        1.088       23.789       17.306       14.405      565.932      299.481      207.514        0.166        0.054       47.312       11.149        0.056      340.448       14.475      858.808
06/13/2014  07:11:00       41.120       31.286       10.874       26.829       28.117       17.025      719.785      790.593      289.836        0.229        0.090       51.669       12.430        0.058      340.379       14.359      858.823
06/13/2014  07:12:00       13.749       29.844       45.307       16.640       37.182       13.690      276.895     1382.518      187.415        0.249        0.092       32.859       14.437        0.193      340.469       14.511      858.812
06/13/2014  07:13:00       79.517       66.898       28.971       59.598       36.996       31.239     3551.929     1368.718      975.862        0.877        0.295      103.915       37.868        0.133      340.264       14.164      858.793
06/13/2014  07:14:00       91.271       53.796        8.798       32.358       31.154       25.062     1047.064      970.560      628.108        0.697        0.132      105.945       17.506        0.027      340.260       14.159      858.791
06/13/2014  07:15:00       26.766       24.969       14.394       24.434       22.124       22.560      597.001      489.480      508.948        0.157        0.080       36.605        7.077        0.037      340.503       14.568      858.793
06/13/2014  07:16:00       22.637        2.532       19.932       20.807        9.716       15.706      432.924       94.399      246.689        0.084        0.039       22.778       11.075        0.236      340.447       14.475      858.778
06/13/2014  07:17:00       35.054       10.458       21.929       26.371       15.927       22.641      695.428      253.660      512.608        0.164        0.073       36.581       14.181        0.150      340.179       14.022      858.758
06/13/2014  07:18:00       28.757       -6.962       18.833       22.057       20.718       18.924      486.520      429.216      358.108        0.125        0.064       29.588       14.130        0.228      340.435       14.456      858.741
06/13/2014  07:19:00       36.572      -13.392       -0.082       16.839       27.383       23.831      283.536      749.812      567.921        0.156        0.080       38.946       16.040        0.170      340.177       14.019      858.741
06/13/2014  07:20:00       38.291       28.278        7.182       30.956       24.701       22.782      958.259      610.147      519.024        0.220        0.104       47.601       17.051        0.128      340.396       14.388      858.745
06/13/2014  07:21:00       17.280       57.515        8.651       23.651       29.984       19.682      559.378      899.018      387.376        0.276        0.092       60.054       14.890        0.061      340.584       14.707      858.748
06/13/2014  07:22:00       22.460       57.651       -0.721       21.802       16.217       19.887      475.345      262.986      395.486        0.248        0.057       61.871       15.557        0.063      340.374       14.350      858.755
06/13/2014  07:23:00        9.666       19.854        2.387       12.508       27.350       15.074      156.443      748.010      227.238        0.081        0.057       22.082       12.175        0.304      340.558       14.661      858.757
06/13/2014  07:24:00       11.976       -4.197        8.245       11.756       22.193       13.361      138.215      492.536      178.506        0.052        0.040       12.690       10.488        0.683      340.464       14.504      858.755
06/13/2014  07:25:00       13.832       14.883        8.265       23.074       23.933       19.341      532.398      572.769      374.087        0.098        0.074       20.318       19.704        0.940      340.853       15.161      858.759
06/13/2014  07:26:00       33.539        1.200       13.653       24.597       18.606       21.094      604.995      346.187      444.973        0.135        0.070       33.560       15.216        0.206      340.981       15.378      858.761
06/13/2014  07:27:00       45.232        9.289       15.466       28.867       19.158       21.336      833.277      367.039      455.236        0.201        0.083       46.176       15.677        0.115      340.738       14.967      858.762
06/13/2014  07:28:00       46.337       28.648        5.399       25.561       22.340       23.192      653.368      499.076      537.873        0.234        0.085       54.478       16.010        0.086      340.433       14.450      858.763
06/13/2014  07:29:00       22.762       26.342       -1.642       14.356       19.694       14.835      206.106      387.841      220.076        0.101        0.041       34.814        9.138        0.069      340.555       14.658      858.763
06/13/2014  07:30:00       18.051       30.006        8.863       13.013       24.011       14.001      169.349      576.533      196.024        0.112        0.047       35.017       13.477        0.148      340.796       15.063      858.760
06/13/2014  07:31:00       25.427       42.355       15.734       33.140       39.875       22.666     1098.291     1590.041      513.727        0.294        0.160       49.401       21.698        0.193      340.922       15.277      858.747
06/13/2014  07:32:00       73.207       48.050       -3.343       18.680       21.267       17.647      348.933      452.268      311.428        0.440        0.056       87.568        8.800        0.010      340.489       14.547      858.720
06/13/2014  07:33:00       79.794       38.894       14.315       31.346       22.960       24.722      982.542      527.182      611.164        0.510        0.106       88.769       18.124        0.042      340.652       14.820      858.703
06/13/2014  07:34:00       61.219       41.146       17.720       36.636       20.617       24.067     1342.197      425.057      579.238        0.405        0.117       73.761        6.640        0.008      340.622       14.770      858.707
06/13/2014  07:35:00       27.109       25.728       29.899       18.000       17.251       20.932      323.998      297.597      438.143        0.168        0.053       37.374        9.118        0.060      340.532       14.617      858.705
06/13/2014  07:36:00       35.281       26.690       17.285       24.955       16.621       15.999      622.752      276.259      255.955        0.171        0.058       44.239       12.830        0.084      340.456       14.489      858.705
06/13/2014  07:37:00       12.521       31.547       35.906       23.932       23.875       21.783      572.755      570.016      474.486        0.203        0.081       33.941       15.192        0.200      340.861       15.174      858.702
06/13/2014  07:38:00       72.523       47.014        8.032       25.822       17.339       18.087      666.799      300.637      327.156        0.441        0.065       86.429        9.337        0.012      340.586       14.707      858.697
06/13/2014  07:39:00       32.950       31.360        9.692       26.080       23.219       19.423      680.173      539.106      377.249        0.188        0.080       45.488       18.280        0.161      340.857       15.168      858.720
06/13/2014  07:40:00       16.217       15.690        9.855       22.664       17.224       25.674      513.636      296.653      659.180        0.104        0.073       22.565       18.730        0.689      340.931       15.291      858.740
06/13/2014  07:41:00        2.892       16.774       25.135       11.295       16.454       10.456      127.572      270.720      109.332        0.071        0.025       17.021        8.368        0.242      340.861       15.175      858.741
06/13/2014  07:42:00       15.212       20.326       19.179       23.963       14.796       14.224      574.228      218.928      202.322        0.100        0.050       25.388       12.232        0.232      340.883       15.212      858.755
06/13/2014  07:43:00       14.623       13.907       11.655       24.314       22.668       19.637      591.146      513.838      385.603        0.102        0.075       20.180       14.917        0.546      341.242       15.821      858.763
06/13/2014  07:44:00       61.572       38.971       11.323       32.003       32.522       26.645     1024.166     1057.658      709.931        0.411        0.140       72.868       15.896        0.048      340.972       15.361      858.755
06/13/2014  07:45:00       46.610       49.808       45.474       53.762       28.511       34.315     2890.318      812.887     1177.522        0.580        0.244       68.216       32.624        0.229      340.701       14.904      858.756
06/13/2014  07:46:00       87.958       75.182       39.384       64.819       32.097       40.547     4201.521     1030.227     1644.020        1.091        0.344      115.710       44.738        0.149      340.813       15.093      858.746
06/13/2014  07:47:00      107.245       57.677       19.508       40.130       33.449       31.251     1610.410     1118.836      976.602        0.946        0.185      121.771       15.556        0.016      340.923       15.278      858.739
06/13/2014  07:48:00       27.430        1.558       18.885       34.593       34.155       31.031     1196.661     1166.560      962.902        0.222        0.166       27.474       21.616        0.619      341.601       16.429      858.765
06/13/2014  07:49:00       76.604       49.069       13.235       50.024       36.051       29.614     2502.353     1299.663      876.966        0.656        0.234       90.972       23.933        0.069      341.017       15.438      858.773
06/13/2014  07:50:00      125.959       71.499        8.108       29.980       29.440       25.262      898.806      866.740      638.181        1.172        0.120      144.837       18.601        0.016      340.830       15.121      858.777
06/13/2014  07:51:00       98.378       55.146        3.380       43.934       38.182       26.106     1930.213     1457.836      681.521        0.840        0.203      112.780       18.107        0.026      340.860       15.173      858.770
06/13/2014  07:52:00      108.878       60.240       16.267       34.645       43.107       32.310     1200.304     1858.181     1043.920        0.992        0.205      124.432       18.793        0.023      340.911       15.258      858.765
06/13/2014  07:53:00      136.211       85.352       21.632       53.967       39.645       40.155     2912.400     1571.747     1612.424        1.620        0.305      160.744       29.164        0.033      340.889       15.221      858.753
06/13/2014  07:54:00      146.195       90.150       17.571       65.326       40.921       37.981     4267.465     1674.528     1442.541        1.860        0.369      171.756       28.661        0.028      340.806       15.079      858.744
06/13/2014  07:55:00      139.362       73.056       29.303       48.415       26.074       38.390     2344.025      679.857     1473.757        1.506        0.225      157.350       27.174        0.030      340.711       14.922      858.763
06/13/2014  07:56:00       38.961       48.098       11.371       36.307       46.125       32.023     1318.192     2127.548     1025.453        0.422        0.224       61.898       16.337        0.070      340.954       15.330      858.761
06/13/2014  07:57:00       83.107       64.881       19.736       35.477       30.792       29.108     1258.611      948.119      847.253        0.728        0.153      105.434       14.653        0.019      341.010       15.426      858.755
06/13/2014  07:58:00       94.435       45.065        6.161       49.957       28.144       26.913     2495.678      792.083      724.301        0.750        0.201      104.637       15.270        0.021      341.027       15.454      858.733
06/13/2014  07:59:00       82.891       31.085       14.111       47.893       30.277       32.444     2293.704      916.721     1052.636        0.615        0.213       88.528       25.919        0.086      341.301       15.919      858.723
06/13/2014  08:00:00       44.301       42.862       15.080       32.993       27.328       22.652     1088.569      746.825      513.119        0.319        0.117       61.642       19.091        0.096      341.407       16.100      858.727
06/13/2014  08:01:00       71.861       68.376       26.658       34.742       37.803       35.252     1206.997     1429.069     1242.683        0.721        0.194       99.193       12.489        0.016      341.265       15.859      858.714
06/13/2014  08:02:00       22.311       43.775       45.584       35.281       32.710       30.615     1244.762     1069.952      937.268        0.387        0.163       49.133       26.942        0.301      341.563       16.363      858.707
06/13/2014  08:03:00      128.674       86.589       29.625       72.472       45.349       39.627     5252.238     2056.514     1570.284        1.690        0.444      155.096       45.657        0.087      341.116       15.605      858.715
06/13/2014  08:04:00       95.090       79.851       11.261       42.217       38.817       34.483     1782.304     1506.766     1189.085        1.001        0.224      124.171       26.426        0.045      341.146       15.656      858.722
06/13/2014  08:05:00       77.493       76.477       59.226       64.015       35.758       31.499     4097.934     1278.604      992.211        1.086        0.318      108.876       21.767        0.040      341.167       15.692      858.711
06/13/2014  08:06:00       -0.422       14.106       35.472       19.672       33.996       24.757      386.993     1155.727      612.933        0.181        0.108       14.113       16.522        1.371      341.585       16.400      858.738
06/13/2014  08:07:00       45.784       51.272        0.359       36.571       26.819       25.294     1337.457      719.265      639.784        0.371        0.135       68.738       12.419        0.033      341.149       15.662      858.758
06/13/2014  08:08:00       44.259       46.393       19.543       32.374       26.344       31.821     1048.055      694.009     1012.591        0.362        0.138       64.118       24.858        0.150      341.092       15.565      858.759
06/13/2014  08:09:00       42.509       42.264       39.167       34.979       40.997       29.585     1223.565     1680.756      875.267        0.445        0.189       59.944       16.000        0.071      341.509       16.270      858.728
06/13/2014  08:10:00       20.800       21.890       43.349       39.621       47.475       27.102     1569.857     2253.898      734.513        0.367        0.228       30.196       21.816        0.522      341.772       16.719      858.709
06/13/2014  08:11:00       39.517       63.772       25.524       51.468       27.424       37.960     2648.908      752.054     1440.939        0.556        0.242       75.023       37.213        0.246      341.643       16.498      858.681
06/13/2014  08:12:00       87.465       58.464        0.257       34.887       23.871       30.023     1217.092      569.837      901.407        0.688        0.134      105.206       22.127        0.044      341.455       16.180      858.689
06/13/2014  08:13:00       50.936        6.928       30.370       37.721       44.032       42.022     1422.877     1938.791     1765.810        0.435        0.256       51.406       30.931        0.362      341.360       16.019      858.711
06/13/2014  08:14:00       73.667       41.266       54.808       63.026       64.128       43.592     3972.323     4112.346     1900.305        1.006        0.499       84.438       33.873        0.161      341.400       16.087      858.697
06/13/2014  08:15:00        6.740       51.631       83.524       37.445       51.430       27.234     1402.116     2645.005      741.697        0.724        0.239       52.070       20.701        0.158      341.814       16.788      858.649
06/13/2014  08:16:00       17.963        7.981       52.689       49.815       35.621       38.399     2481.549     1268.866     1474.456        0.419        0.261       19.656       28.832        2.152      341.994       17.094      858.652
06/13/2014  08:17:00       61.119      -21.726       36.079       87.643       88.599       42.473     7681.314     7849.719     1803.954        1.142        0.867       64.866       55.321        0.727      341.540       16.324      858.674
06/13/2014  08:18:00       64.590       41.146       56.004       64.666       55.989       46.747     4181.637     3134.794     2185.313        0.925        0.475       76.583       37.052        0.234      341.543       16.329      858.706
06/13/2014  08:19:00       14.866      -18.190       14.959       37.578       41.199       27.930     1412.126     1697.388      780.057        0.233        0.194       23.492       22.091        0.884      341.847       16.845      858.724
06/13/2014  08:20:00       23.576       92.438       -8.522       34.967       35.696       28.067     1222.714     1274.221      787.752        0.623        0.164       95.397       21.157        0.049      341.727       16.640      858.724
06/13/2014  08:21:00       47.511       80.614        5.916       57.031       47.993       35.259     3252.560     2303.329     1243.232        0.779        0.340       93.573       31.811        0.116      342.014       17.128      858.725
06/13/2014  08:22:00       89.246       80.208       17.981       41.152       23.313       31.853     1693.459      543.494     1014.593        0.899        0.163      119.993       14.458        0.015      341.597       16.420      858.755
06/13/2014  08:23:00       73.652       29.502        1.847       48.990       54.928       46.620     2400.037     3017.059     2173.409        0.694        0.380       79.340       34.961        0.194      341.542       16.328      858.757
06/13/2014  08:24:00       99.060       88.296       51.795       46.575       37.649       43.862     2169.216     1417.413     1923.865        1.290        0.276      132.699       21.160        0.025      341.705       16.602      858.739
06/13/2014  08:25:00      185.742      138.726       62.251       84.161       47.245       60.522     7083.045     2232.059     3662.921        3.530        0.649      231.830       26.069        0.013      341.819       16.793      858.702
06/13/2014  08:26:00      268.559      151.931       52.514       90.776       81.024       71.578     8240.329     6564.951     5123.458        5.894        0.996      308.556       49.511        0.026      341.683       16.564      858.693
06/13/2014  08:27:00      200.941      120.077       23.469       98.160       71.159       59.985     9635.358     5063.569     3598.190        3.682        0.915      234.085       46.631        0.040      341.723       16.629      858.710
06/13/2014  08:28:00       71.996       74.331       -6.735       84.310       66.051       41.586     7108.209     4362.786     1729.365        1.197        0.660      103.482       17.624        0.029      341.895       16.925      858.715
06/13/2014  08:29:00      118.329       94.248       15.372       66.136       49.729       43.749     4373.942     2472.948     1913.950        1.594        0.438      151.276       29.726        0.039      341.780       16.730      858.742
06/13/2014  08:30:00       90.035       96.698        5.051       63.386       72.128       55.242     4017.828     5202.389     3051.699        1.487        0.614      132.124       42.109        0.102      341.893       16.921      858.770
06/13/2014  08:31:00       50.658       83.028        1.299       68.651       57.326       41.828     4712.932     3286.305     1749.552        0.960        0.487       97.262       34.496        0.126      342.075       17.231      858.785
06/13/2014  08:32:00       49.402       83.753       -5.700       46.919       36.942       34.137     2201.425     1364.746     1165.302        0.711        0.237       97.237       17.731        0.033      342.016       17.130      858.793
06/13/2014  08:33:00       63.667      238.377      -33.087       41.226       59.267       45.459     1699.601     3512.560     2066.536        3.462        0.364      246.733       35.213        0.020      341.937       16.991      858.794
06/13/2014  08:34:00       25.051      131.387      -15.930       42.519       93.605       36.952     1807.867     8761.956     1365.418        1.504        0.597      133.754       49.846        0.139      342.067       17.217      858.787
06/13/2014  08:35:00        3.019      208.398      -29.038       34.710       45.577       22.943     1204.793     2077.254      526.378        2.404        0.190      208.420       24.765        0.014      341.890       16.914      858.779
06/13/2014  08:36:00       12.380      155.121       -2.630       40.201       81.472       41.979     1616.146     6637.632     1762.278        1.712        0.501      155.615       46.116        0.088      342.276       17.572      858.768
06/13/2014  08:37:00       42.490      105.818      -10.499       48.872       75.455       31.663     2388.496     5693.457     1002.516        1.110        0.454      114.030       36.070        0.100      342.466       17.895      858.754
06/13/2014  08:38:00       41.685       39.392       18.462       50.957       42.374       33.457     2596.618     1795.527     1119.381        0.457        0.276       57.353       18.651        0.106      342.745       18.370      858.762
06/13/2014  08:39:00       81.693       53.093       21.022       52.831       43.181       40.710     2791.096     1864.581     1657.320        0.812        0.316       97.430       14.178        0.021      342.354       17.704      858.752
06/13/2014  08:40:00       97.969       43.991        8.014       69.578       88.984       46.718     4841.152     7918.169     2182.562        1.327        0.747      107.393       15.063        0.020      342.198       17.438      858.726
06/13/2014  08:41:00       24.175      -57.332       21.749       37.114       50.243       31.113     1377.416     2524.406      968.006        0.461        0.243       62.220       20.038        0.104      342.341       17.684      858.728
06/13/2014  08:42:00       40.640       -8.187       30.972       53.946       57.143       41.356     2910.202     3265.292     1710.293        0.528        0.394       41.457       33.470        0.652      342.158       17.372      858.706
06/13/2014  08:43:00       71.000       25.802       54.076       76.122       55.580       35.785     5794.545     3089.083     1280.588        0.940        0.508       75.543       28.129        0.139      342.404       17.790      858.667
06/13/2014  08:44:00       86.163       48.349       46.777       95.379       53.542       49.933     9097.179     2866.752     2493.332        1.320        0.723       98.801       40.846        0.171      342.793       18.451      858.636
06/13/2014  08:45:00      165.983       99.892       53.554       90.515       50.759       64.178     8193.024     2576.468     4118.861        2.764        0.744      193.724       58.870        0.092      342.137       17.333      858.639
06/13/2014  08:46:00       39.347       48.678       53.769       61.578       56.036       41.209     3791.824     3140.044     1698.186        0.772        0.432       62.591       26.364        0.177      342.467       17.897      858.635
06/13/2014  08:47:00       49.964      -22.644       53.603       52.894       89.835       66.757     2797.797     8070.261     4456.493        1.060        0.766       54.856       66.507        1.470      342.553       18.043      858.650
06/13/2014  08:48:00       39.003       14.967       84.395       77.228      120.734       90.811     5964.155    14576.741     8246.721        1.882        1.439       41.776       95.509        5.227      342.281       17.580      858.654
06/13/2014  08:49:00       59.745      -73.681       23.177       67.973       83.809       58.807     4620.310     7023.957     3458.298        1.232        0.755       94.859       62.299        0.431      342.117       17.301      858.642
06/13/2014  08:50:00      -32.911      -32.167       23.567       87.907       74.351       42.889     7727.660     5528.023     1839.493        0.888        0.755       46.020       44.425        0.932      342.796       18.456      858.727
06/13/2014  08:51:00       67.039       54.977       89.240       83.719      110.454       81.423     7008.866    12200.093     6629.696        2.065        1.292       86.699       82.421        0.904      342.363       17.719      858.688
06/13/2014  08:52:00     -297.240     -138.081      -15.186      198.592      214.693       86.272    39438.954    46093.084     7442.783       10.029        4.649      327.747      100.383        0.094      342.408       17.794      858.624
06/13/2014  08:53:00     -481.866     -197.118      -18.633      214.644      158.026       97.204    46071.844    24972.296     9448.583       17.593        4.025      520.625       83.219        0.026      342.582       18.090      858.502
06/13/2014  08:54:00     -376.271       51.334      -30.123      193.523      184.741       82.051    37451.312    34129.378     6732.314       11.170        3.916      379.757       74.862        0.039      342.799       18.458      858.484
06/13/2014  08:55:00     -418.640      170.274      -54.033      209.068      247.915       85.898    43709.372    61461.793     7378.458       15.984        5.627      451.944       78.284        0.030      342.749       18.373      858.313
06/13/2014  08:56:00     -503.079     -272.648      -50.475      121.611      156.710       68.448    14789.257    24558.091     4685.119       18.699        2.202      572.211       62.869        0.012      342.533       18.007      858.305
06/13/2014  08:57:00     -281.883     -287.378       22.904      375.904      217.287      144.563   141303.588    47213.437    20898.569       18.595       10.471      402.547      186.920        0.216      342.544       18.025      858.211
06/13/2014  08:58:00       47.797     -307.123      -49.492      210.921      192.466       81.273    44487.842    37043.031     6605.254        9.358        4.407      310.820      102.063        0.108      342.655       18.214      858.486
06/13/2014  08:59:00      -84.892      -71.176       10.124      114.545       88.839       55.466    13120.470     7892.398     3076.532        1.823        1.204      110.783       38.097        0.118      342.737       18.355      858.631
06/13/2014  09:00:00       56.489     -202.255      -17.645      101.094       99.840       53.713    10220.066     9967.980     2885.113        3.374        1.154      209.996       43.709        0.043      342.572       18.072      858.690
06/13/2014  09:01:00       48.643     -153.900       10.927       85.497       90.089       48.723     7309.708     8116.094     2373.923        2.198        0.890      161.404       43.844        0.074      342.497       17.946      858.708
06/13/2014  09:02:00       58.311      -35.662       23.811       62.057      129.102       52.285     3851.031    16667.288     2733.760        1.424        1.163       68.352       64.854        0.900      342.680       18.257      858.716
06/13/2014  09:03:00       17.499      -32.472       46.903       63.450       73.101       42.355     4025.959     5343.777     1793.955        0.736        0.558       36.887       42.366        1.319      342.628       18.171      858.680
06/13/2014  09:04:00        2.577      -76.238       16.711       71.512       87.727       56.501     5113.990     7695.998     3192.349        1.105        0.800       76.282       45.981        0.363      342.756       18.388      858.751
06/13/2014  09:05:00       43.196       47.792      102.984       74.975      112.547       81.646     5621.247    12666.721     6666.109        1.985        1.248       64.420       96.778        2.257      342.337       17.675      858.660
06/13/2014  09:06:00       96.020     -144.467      -20.116       71.808      100.268       59.993     5156.347    10053.740     3599.165        2.465        0.940      173.466       60.959        0.123      342.721       18.327      858.694
06/13/2014  09:07:00       49.870      -20.261       65.779      120.520      129.072       93.928    14525.058    16659.710     8822.440        2.361        2.000       53.829       99.172        3.394      342.637       18.185      858.675
06/13/2014  09:08:00      -64.590      -78.826       22.850       55.839       83.112       56.013     3118.017     6907.596     3137.483        1.203        0.658      101.909       42.378        0.173      342.781       18.431      858.675
06/13/2014  09:09:00       27.582       68.283      113.716       69.025       99.284       70.494     4764.423     9857.366     4969.370        1.897        0.980       73.644       73.830        1.005      342.864       18.571      858.641
06/13/2014  09:10:00       20.413       11.645       39.010       62.916      100.430       76.235     3958.479    10086.218     5811.815        1.096        0.993       23.501       78.730       11.223      342.410       17.799      858.612
06/13/2014  09:11:00      -52.408      -76.701       16.254       83.332      100.006       35.620     6944.183    10001.188     1268.817        1.355        0.911       92.895       43.827        0.223      342.964       18.741      858.633
06/13/2014  09:12:00     -208.419     -236.759        0.718      201.757      149.811       85.959    40706.045    22443.219     7388.891        8.500        3.527      315.425       90.954        0.083      342.780       18.428      858.655
06/13/2014  09:13:00     -519.449     -109.066       -3.927      209.640      214.012      104.892    43949.133    45801.346    11002.237       19.122        5.038      530.775      108.252        0.042      342.691       18.275      858.577
06/13/2014  09:14:00     -384.525     -195.121       -6.731      244.033      207.990       94.952    59552.118    43259.829     9015.878       14.888        5.591      431.198      107.235        0.062      342.838       18.525      858.510
06/13/2014  09:15:00     -348.711     -244.639       -4.729      246.845      159.693      107.840    60932.329    25501.737    11629.538       13.975        4.903      425.967      129.799        0.093      342.880       18.594      858.523
06/13/2014  09:16:00     -254.419     -165.141        0.705      174.969      154.301       76.698    30614.305    23808.948     5882.548        7.614        3.015      303.316       90.466        0.089      342.880       18.596      858.516
06/13/2014  09:17:00     -256.088     -212.436        4.953      167.987      167.458       86.551    28219.635    28042.292     7491.032        8.723        3.188      332.731       90.325        0.074      342.942       18.702      858.471
06/13/2014  09:18:00     -355.664      -75.654      -16.342      210.779      198.391       80.879    44427.614    39359.036     6541.368       11.139        4.516      363.621      106.559        0.086      343.040       18.867      858.478
06/13/2014  09:19:00     -390.479     -122.737      -15.585      210.463      152.355       88.365    44294.609    23212.123     7808.316       12.153        3.766      409.314       99.186        0.059      342.901       18.632      858.445
06/13/2014  09:20:00     -421.660      -15.523        0.577      202.125      170.730      109.799    40854.582    29148.624    12055.841       13.003        4.103      421.946      112.957        0.072      343.035       18.860      858.416
06/13/2014  09:21:00     -369.064     -152.251       10.345      265.896      281.236      102.137    70700.652    79093.646    10432.028       15.983        8.011      399.235      119.555        0.090      343.104       18.977      858.400
06/13/2014  09:22:00     -382.973     -223.238       -3.507      205.158      219.890      105.110    42089.775    48351.789    11048.172       14.898        5.074      443.287      110.162        0.062      343.060       18.902      858.394
06/13/2014  09:23:00     -388.805     -278.704       -9.368      255.980      242.484      112.092    65525.584    58798.726    12564.650       18.288        6.844      478.378      134.027        0.078      343.102       18.973      858.478
06/13/2014  09:24:00     -315.441     -217.588       24.309      235.394      156.385       90.162    55410.544    24456.162     8129.159       11.770        4.400      383.207      103.378        0.073      343.078       18.934      858.535
06/13/2014  09:25:00     -521.973     -245.265      -11.525      223.091      179.477      107.529    49769.391    32212.113    11562.568       21.313        4.677      576.724      124.513        0.047      342.836       18.520      858.556
06/13/2014  09:26:00     -243.930     -315.594       -9.215      142.408      178.259       71.463    20280.053    31776.131     5107.010       10.816        2.858      398.875       68.343        0.029      342.901       18.631      858.557
06/13/2014  09:27:00     -244.959     -408.114        7.394      219.195      220.321       87.907    48046.662    48541.473     7727.627       16.545        5.216      475.985       93.058        0.038      342.876       18.589      858.567
06/13/2014  09:28:00     -267.982     -224.974       -1.980      180.509      176.050       80.935    32583.645    30993.712     6550.417        9.627        3.506      349.897       87.942        0.063      342.959       18.731      858.563
06/13/2014  09:29:00     -232.425     -149.540        0.962      147.529      140.464       76.381    21764.893    19730.265     5834.018        6.185        2.366      276.376       81.907        0.088      343.161       19.075      858.558
06/13/2014  09:30:00     -340.939     -170.847      -13.128      197.583      163.164       85.325    39038.976    26622.512     7280.353       10.926        3.647      381.350       86.198        0.051      342.983       18.771      858.550
06/13/2014  09:31:00     -379.203     -153.418       22.479      240.225      159.574       95.556    57708.049    25463.995     9130.869       13.005        4.615      409.063      103.735        0.064      343.034       18.858      858.514
06/13/2014  09:32:00     -265.918     -120.604       -5.180      137.710      141.193       69.284    18963.931    19935.450     4800.332        6.448        2.185      291.989       62.102        0.045      343.194       19.130      858.542
06/13/2014  09:33:00     -396.548     -159.947      -19.554      180.234      198.638       86.129    32484.308    39457.142     7418.246       13.127        3.968      427.591       78.340        0.034      343.046       18.878      858.512
06/13/2014  09:34:00     -351.080     -297.099        8.618      196.479      155.874       87.248    38604.030    24296.755     7612.283       14.104        3.526      459.919       90.991        0.039      342.976       18.759      858.481
06/13/2014  09:35:00     -159.626     -111.913        1.383      108.548       92.117       56.234    11782.682     8485.577     3162.256        3.071        1.172      194.949       44.906        0.053      343.190       19.124      858.471
06/13/2014  09:36:00     -322.110     -221.846        7.097      187.647      163.829       84.920    35211.548    26839.987     7211.433       11.113        3.463      391.114       95.777        0.060      343.104       18.978      858.462
06/13/2014  09:37:00     -353.363     -268.658       -1.435      205.861      167.804       90.116    42378.776    28158.304     8120.948       13.784        3.933      443.895      105.802        0.057      343.022       18.837      858.462
06/13/2014  09:38:00     -440.337     -188.288       -1.527      243.266      178.432      102.119    59178.159    31838.129    10428.308       16.538        5.072      478.904      122.576        0.066      342.970       18.749      858.424
06/13/2014  09:39:00     -475.875     -256.085      -11.138      301.713      203.223       99.138    91030.474    41299.718     9828.400       21.713        7.108      540.404      113.949        0.044      342.952       18.719      858.411
06/13/2014  09:40:00     -432.332     -313.189       -5.148      253.339      169.050      108.975    64180.685    28578.054    11875.457       19.481        5.232      533.853      119.601        0.050      342.980       18.766      858.414
06/13/2014  09:41:00     -486.171     -290.188       -1.602      242.991      156.237      110.518    59044.528    24410.102    12214.265       20.810        4.783      566.190      112.987        0.040      342.947       18.710      858.412
06/13/2014  09:42:00     -493.286     -331.563       -0.921      205.262      157.547       99.488    42132.590    24820.976     9897.815       21.504        3.843      594.361      101.754        0.029      342.910       18.646      858.428
06/13/2014  09:43:00     -308.783     -289.430      -18.593      135.392      134.149       79.545    18331.117    17995.961     6327.340       11.105        2.133      423.222       80.150        0.036      342.927       18.676      858.391
06/13/2014  09:44:00     -442.556     -315.292        3.956      246.684      214.351      112.501    60852.983    45946.544    12656.541       20.734        5.973      543.382      106.613        0.038      343.017       18.829      858.378
06/13/2014  09:45:00     -498.898     -297.249       -2.891      243.295      160.955       95.070    59192.591    25906.507     9038.307       21.568        4.707      580.737      116.329        0.040      343.025       18.841      858.365
06/13/2014  09:46:00     -216.498     -148.039       15.355      144.105      122.099       72.871    20766.344    14908.233     5310.252        5.500        2.049      262.272       77.601        0.088      343.297       19.305      858.364
06/13/2014  09:47:00     -261.607     -216.263       -5.333      205.184      154.738       85.571    42100.479    23943.742     7322.465        9.429        3.668      339.423       92.619        0.074      343.185       19.115      858.353
06/13/2014  09:48:00     -387.437     -166.181       -3.035      184.176      161.802       81.810    33920.621    26179.830     6692.823       12.225        3.340      421.573       82.173        0.038      343.187       19.119      858.348
06/13/2014  09:49:00     -354.925     -151.300       -5.650      152.018      162.822       83.933    23109.566    26510.883     7044.684       10.277        2.833      385.828       80.581        0.044      343.222       19.180      858.293
06/13/2014  09:50:00     -288.877     -169.102       -0.653      152.963      158.703       74.721    23397.576    25186.791     5583.247        8.310        2.708      334.732       69.145        0.043      343.263       19.247      858.316
06/13/2014  09:51:00     -253.465     -221.484       -4.070      191.409      143.669       84.492    36637.348    20640.732     7138.937        8.885        3.221      336.600       92.002        0.075      343.399       19.479      858.306
06/13/2014  09:52:00     -214.342      -90.212       12.520      167.620      124.697       80.694    28096.600    15549.284     6511.454        5.219        2.508      232.552       86.726        0.139      343.442       19.553      858.280
06/13/2014  09:53:00     -196.838     -180.974       -4.567      108.925       92.173       56.012    11864.652     8495.897     3137.311        4.750        1.175      267.388       45.827        0.029      343.231       19.194      858.225
06/13/2014  09:54:00     -246.560     -180.443       12.869      153.417      148.506       77.291    23536.723    22054.065     5973.896        7.253        2.578      305.535       83.179        0.074      343.524       19.692      858.214
06/13/2014  09:55:00     -375.994     -284.515      -13.406      232.357      236.588       98.773    53989.937    55973.957     9756.203       17.109        5.986      471.509      115.250        0.060      343.302       19.314      858.204
06/13/2014  09:56:00     -524.368     -342.778      -16.807      274.597      213.433      107.401    75403.500    45553.789    11535.016       26.259        6.625      626.465      110.179        0.031      343.079       18.932      858.180
06/13/2014  09:57:00     -518.126     -374.323       -6.067      274.950      245.554      120.950    75597.501    60296.743    14628.854       27.954        7.526      639.196      144.469        0.051      343.131       19.023      858.173
06/13/2014  09:58:00     -444.473     -378.078        1.923      234.292      218.015      106.960    54892.537    47530.694    11440.448       22.716        5.693      583.523      120.208        0.042      343.190       19.123      858.171
06/13/2014  09:59:00     -363.010     -278.935       -3.798      209.068      175.436       95.534    43709.220    30777.954     9126.807       14.659        4.181      457.800      105.557        0.053      343.194       19.129      858.179
06/13/2014  10:00:00     -234.784     -225.975      -18.504      129.273      146.394       73.398    16711.609    21431.228     5387.282        7.502        2.177      325.865       66.175        0.041      343.356       19.406      858.155
06/13/2014  10:01:00     -259.882     -298.762       10.388      189.061      218.952      100.799    35744.239    47940.061    10160.416       12.536        4.692      395.977       91.361        0.053      343.440       19.549      858.145
06/13/2014  10:02:00     -340.626     -221.131       -3.272      178.485      164.120       90.699    31856.898    26935.237     8226.397       11.596        3.351      406.109       97.750        0.058      343.260       19.243      858.112
06/13/2014  10:03:00     -345.462     -120.982        5.949      221.818      175.988       97.597    49203.048    30971.878     9525.202       11.184        4.485      366.033      120.545        0.108      343.416       19.510      858.084
06/13/2014  10:04:00     -315.843     -183.889       -9.589      172.704      100.642       76.176    29826.697    10128.816     5802.839        8.970        2.288      365.475       71.784        0.039      343.510       19.668      858.114
06/13/2014  10:05:00     -389.662     -285.712      -21.700      230.773      142.631      105.402    53256.151    20343.626    11109.518       15.931        4.235      483.185      119.569        0.061      343.459       19.583      858.087
06/13/2014  10:06:00     -373.184     -237.112      -12.388      251.254      189.035       90.366    63128.382    35734.408     8165.980       15.131        5.351      442.141      104.700        0.056      343.511       19.672      858.087
06/13/2014  10:07:00     -500.034     -368.488       -8.202      265.155      210.454      114.878    70307.246    44290.861    13197.045       25.681        6.390      621.142      133.126        0.046      343.245       19.217      858.047
06/13/2014  10:08:00     -403.938     -252.063       -4.320      242.729      165.579       89.028    58917.368    27416.499     7926.049       16.047        4.713      476.132       94.562        0.039      343.278       19.274      858.053
06/13/2014  10:09:00     -443.854     -266.968        7.999      234.614      181.752      102.993    55043.955    33033.648    10607.610       18.349        4.934      517.956       99.007        0.037      343.371       19.432      858.046
06/13/2014  10:10:00     -462.737     -357.396       -2.111      253.383      229.144      112.444    64203.021    52506.823    12643.678       23.558        6.468      584.685      131.408        0.051      343.361       19.415      858.024
06/13/2014  10:11:00     -360.989     -322.027       11.846      273.218      240.661      142.795    74647.998    57917.871    20390.497       19.353        7.648      483.751      146.820        0.092      343.475       19.609      858.010
06/13/2014  10:12:00     -429.816     -199.744      -13.356      240.336      144.316       84.823    57761.233    20827.211     7194.953       15.528        4.289      473.961      109.151        0.053      343.515       19.677      858.060
06/13/2014  10:13:00     -328.885      -76.236      -17.139      165.763      141.803       72.081    27477.513    20108.123     5195.718        8.352        2.639      337.605       78.203        0.054      343.552       19.740      858.058
06/13/2014  10:14:00     -388.687     -170.446      -18.126      160.114      133.806       62.465    25636.640    17904.150     3901.931       11.394        2.372      424.417       66.106        0.024      343.666       19.935      858.057
06/13/2014  10:15:00     -206.152     -184.618        3.134      145.800      123.414       65.324    21257.712    15231.098     4267.183        5.867        2.038      276.735       69.159        0.062      343.685       19.968      858.062
06/13/2014  10:16:00     -138.121      -95.689       19.850      116.013      100.071       66.493    13459.126    10014.293     4421.267        2.826        1.395      168.029       71.772        0.182      344.065       20.619      858.025
06/13/2014  10:17:00     -153.061     -134.268       11.163      156.294      125.642       52.279    24427.686    15785.886     2733.131        4.225        2.147      203.606       64.841        0.101      343.959       20.438      858.028
06/13/2014  10:18:00     -418.769     -219.938       -0.114      218.461      157.509      104.776    47725.331    24809.170    10977.957       15.361        4.176      473.012      105.028        0.049      343.793       20.151      858.034
06/13/2014  10:19:00     -333.420     -184.289       -1.959      190.628      135.719      104.074    36339.171    18419.598    10831.315       10.535        3.280      380.961      103.989        0.075      343.816       20.192      858.028
06/13/2014  10:20:00     -494.194     -304.685      -17.068      220.197      177.675      106.130    48486.585    31568.489    11263.551       21.432        4.566      580.569      109.137        0.035      343.580       19.790      858.066
06/13/2014  10:21:00     -231.987     -243.290        8.335      155.150      167.568       86.167    24071.406    28079.000     7424.693        8.631        2.979      336.167       81.592        0.059      343.451       19.568      858.057
06/13/2014  10:22:00     -317.895     -155.435        0.635      186.496      158.092       65.278    34780.827    24992.924     4261.260        9.461        3.202      353.860       66.813        0.036      343.540       19.721      858.051
06/13/2014  10:23:00     -199.018      -66.911       11.146      130.729      105.398       55.570    17090.007    11108.783     3088.070        3.774        1.564      209.965       44.966        0.046      343.948       20.418      858.048
06/13/2014  10:24:00     -414.353     -313.774      -18.930      239.314      203.465       93.624    57271.031    41398.087     8765.403       18.895        5.372      519.752      116.409        0.050      343.799       20.161      858.056
06/13/2014  10:25:00     -321.783     -289.198       -4.700      194.881      168.264       97.709    37978.724    28312.823     9547.017       13.151        3.792      432.643      103.450        0.057      343.833       20.219      858.075
06/13/2014  10:26:00     -240.115     -102.470       15.819      152.144      109.323       73.847    23147.878    11951.445     5453.452        5.447        2.028      261.066       65.964        0.064      343.935       20.393      858.075
06/13/2014  10:27:00     -178.380     -107.259       18.463      136.828      136.358       70.885    18721.821    18593.381     5024.745        4.299        2.117      208.144       62.929        0.091      343.886       20.311      858.022
06/13/2014  10:28:00     -296.487     -253.213       12.962      213.661      223.478      101.612    45651.221    49942.356    10324.983       12.903        5.296      389.899       86.287        0.049      343.744       20.068      858.020
06/13/2014  10:29:00     -468.238     -285.135       -0.007      180.562      147.674       80.038    32602.485    21807.725     6406.066       18.067        3.041      548.223       85.407        0.024      343.635       19.882      858.048
06/13/2014  10:30:00     -287.585     -141.673        7.591      223.653      182.901       94.642    50020.609    33452.696     8957.169        9.761        4.622      320.588      114.210        0.127      343.849       20.250      858.093
06/13/2014  10:31:00     -299.298     -214.554        4.402      227.219      161.219       92.167    51628.609    25991.471     8494.776       11.086        4.306      368.256      110.429        0.090      343.632       19.877      858.063
06/13/2014  10:32:00     -307.072      -50.940      -21.931      121.064      129.943       58.341    14656.533    16885.186     3403.666        6.615        1.747      311.268       53.437        0.029      343.785       20.138      858.063
06/13/2014  10:33:00     -419.913     -302.382      -26.375      180.923      161.755       92.826    32733.013    26164.595     8616.646       16.797        3.376      517.457       85.887        0.028      343.736       20.053      858.076
06/13/2014  10:34:00     -332.688     -207.952      -36.584      206.231      179.981       77.776    42531.144    32393.241     6049.072       11.810        4.049      392.333       93.578        0.057      343.808       20.177      858.059
06/13/2014  10:35:00     -406.596      -65.696      -17.186      211.120      148.576       81.792    44571.537    22074.944     6689.997       12.162        3.667      411.869       76.734        0.035      343.857       20.260      858.060
06/13/2014  10:36:00     -397.160     -176.196      -24.791      211.063      173.128       88.022    44547.701    29973.223     7747.823       13.582        4.113      434.490       94.115        0.047      343.863       20.273      858.076
06/13/2014  10:37:00     -220.861      -97.279       11.934      176.974      130.887       78.048    31319.929    17131.467     6091.549        5.645        2.727      241.336       94.866        0.155      344.152       20.767      858.072
06/13/2014  10:38:00     -397.832     -240.527      -11.177      247.970      153.838       93.372    61489.226    23666.073     8718.284       15.504        4.694      464.891      106.507        0.052      343.695       19.984      858.067
06/13/2014  10:39:00     -298.432     -177.176       -6.478      172.315      190.853       87.543    29692.623    36425.025     7663.771        9.712        3.689      347.063       74.029        0.045      343.727       20.039      858.053
06/13/2014  10:40:00     -437.453     -243.597       -4.704      183.685      141.687       80.746    33740.003    20075.172     6519.916       15.552        3.017      500.704       84.041        0.028      343.604       19.829      858.034
06/13/2014  10:41:00     -560.199     -185.834      -25.589      225.401      243.549       92.054    50805.823    59315.913     8473.928       23.378        5.930      590.218       95.004        0.026      343.510       19.668      858.013
06/13/2014  10:42:00     -423.427       20.037      -11.290      215.953      144.750       74.363    46635.573    20952.552     5529.892       12.645        3.656      423.901       79.273        0.035      343.654       19.914      857.969
06/13/2014  10:43:00     -380.267     -169.348        3.482      207.212      164.622      101.220    42936.824    27100.508    10245.412       12.677        4.014      416.271      109.699        0.069      343.954       20.426      857.993
06/13/2014  10:44:00     -353.230     -170.119        5.515      164.756      121.750       70.328    27144.432    14822.956     4945.999       10.032        2.346      392.061       69.787        0.032      343.725       20.036      858.013
06/13/2014  10:45:00     -320.076     -228.282       -0.372      210.390      150.487       93.476    44264.144    22646.330     8737.749       11.509        3.782      393.142      114.386        0.085      343.752       20.083      857.992
06/13/2014  10:46:00     -325.227     -384.361       -1.447      242.839      266.702       98.531    58970.577    71129.778     9708.319       19.663        6.990      503.494       98.444        0.038      343.704       20.000      857.987
06/13/2014  10:47:00     -396.605     -272.504       -5.656      242.412      225.231      114.285    58763.338    50728.891    13061.043       17.704        6.128      481.200      123.709        0.066      343.729       20.042      858.007
06/13/2014  10:48:00     -510.261     -258.967        3.448      193.215      178.213       91.561    37332.185    31759.925     8383.402       20.244        3.874      572.215       95.397        0.028      343.705       20.001      857.985
06/13/2014  10:49:00     -360.804     -329.088      -17.254      286.267      210.548      103.087    81948.873    44330.574    10626.968       18.781        6.845      488.342      127.012        0.068      343.803       20.168      857.961
06/13/2014  10:50:00     -298.875     -332.762       -0.628      194.588      205.496      103.315    37864.461    42228.521    10674.083       14.539        4.538      447.277       94.245        0.044      343.853       20.255      857.933
06/13/2014  10:51:00     -283.076     -276.744        2.052      211.314      158.162      106.202    44653.698    25015.319    11278.900       11.882        4.047      395.878      113.713        0.083      343.949       20.416      857.921
06/13/2014  10:52:00     -326.757     -226.930       31.734      218.924      166.050      104.440    47927.528    27572.756    10907.660       12.282        4.320      397.829      105.165        0.070      344.109       20.691      857.939
06/13/2014  10:53:00     -506.967     -392.831      -25.933      198.234      192.818      111.222    39296.610    37178.591    12370.401       25.041        4.442      641.351      120.863        0.036      343.953       20.425      857.963
06/13/2014  10:54:00     -360.873     -218.576       -7.555      261.905      186.003      101.634    68594.288    34597.252    10329.488       14.577        5.676      421.906       93.971        0.050      343.757       20.090      857.978
06/13/2014  10:55:00     -502.404     -234.142       -4.231      246.471      182.922      107.723    60747.981    33460.304    11604.183       20.651        5.291      554.285      120.297        0.047      343.801       20.165      857.924
06/13/2014  10:56:00     -534.920     -184.915      -10.547      245.115      226.414      115.794    60081.214    51263.502    13408.355       22.257        6.238      565.979      129.136        0.052      343.924       20.374      857.873
06/13/2014  10:57:00     -540.729     -295.909      -17.426      240.918      230.997      114.342    58041.622    53359.524    13074.024       25.234        6.224      616.401      103.557        0.028      343.839       20.231      857.923
06/13/2014  10:58:00     -311.983     -196.097        5.694      171.783      129.207       78.320    29509.379    16694.456     6133.955        9.407        2.617      368.494       81.656        0.049      343.783       20.134      857.981
06/13/2014  10:59:00     -362.627     -151.589        9.612      226.164      147.589       73.287    51149.972    21782.625     5371.024       11.642        3.915      393.036       85.872        0.048      343.935       20.394      857.956
06/13/2014  11:00:00     -418.978     -203.467       12.263      235.282      184.247      101.890    55357.431    33946.907    10381.505       15.837        4.984      465.770      121.284        0.068      343.891       20.319      857.948
06/13/2014  11:01:00     -270.273     -299.608       -6.795      227.011      159.452       83.905    51533.821    25425.063     7040.105       12.341        4.200      403.501       82.794        0.042      343.839       20.231      857.928
06/13/2014  11:02:00     -342.059     -232.726       23.984      243.900      184.545      119.060    59487.422    34056.967    14175.399       13.971        5.386      413.721      129.277        0.098      344.068       20.621      857.963
06/13/2014  11:03:00     -453.742     -186.944      -17.353      271.044      164.227      105.653    73464.937    26970.639    11162.641       17.634        5.580      490.744      114.765        0.055      344.010       20.521      857.978
06/13/2014  11:04:00     -381.116      -82.949        3.603      180.335      145.246       88.014    32520.856    21096.395     7746.452       10.674        3.068      390.039       94.155        0.058      344.103       20.681      857.996
06/13/2014  11:05:00     -275.460     -143.374       10.269      158.870      134.605       70.306    25239.812    18118.415     4942.931        7.241        2.415      310.539       76.064        0.060      344.321       21.054      858.006
06/13/2014  11:06:00     -419.192     -259.913       -6.157      234.834      205.192      102.782    55146.905    42103.812    10564.073       17.554        5.391      493.231      111.279        0.051      344.165       20.787      858.047
06/13/2014  11:07:00     -361.170     -169.710        6.675      188.613      128.090       76.650    35574.802    16407.080     5875.181       10.856        2.893      399.056       86.478        0.047      344.258       20.946      858.088
06/13/2014  11:08:00     -150.700     -137.547       29.519      158.588      133.584       86.743    25150.079    17844.601     7524.294        4.650        2.526      204.034       98.791        0.234      344.338       21.083      858.075
06/13/2014  11:09:00     -225.941     -192.657        4.372      148.260      115.775       79.102    21981.117    13403.884     6257.065        6.491        2.082      296.928       90.208        0.092      344.347       21.099      858.057
06/13/2014  11:10:00     -291.072     -284.741      -13.976      146.220      150.942       78.504    21380.181    22783.572     6162.805       10.815        2.516      407.186       83.136        0.042      344.028       20.553      858.043
06/13/2014  11:11:00     -399.269     -246.717      -29.042      196.032      158.244       95.398    38428.595    25041.177     9100.705       14.683        3.629      469.346       97.181        0.043      344.228       20.894      858.013
06/13/2014  11:12:00     -238.166      -22.703       13.067      135.828       94.923       62.362    18449.224     9010.454     3888.987        4.437        1.567      239.245       58.249        0.059      344.336       21.080      858.053
06/13/2014  11:13:00     -494.919      -88.573      -25.410      194.621      200.585       89.954    37877.271    40234.422     8091.691       16.980        4.310      502.782       96.661        0.037      344.238       20.910      857.991
06/13/2014  11:14:00     -283.459     -178.699        1.368      173.467      147.264       84.003    30090.705    21686.678     7056.551        8.555        2.942      335.085       74.197        0.049      344.408       21.202      857.971
06/13/2014  11:15:00     -279.639     -177.241        1.877      169.872      173.226       74.112    28856.571    30007.340     5492.589        8.697        3.218      331.077       84.433        0.065      344.415       21.214      857.997
06/13/2014  11:16:00     -471.457     -342.966       -2.011      236.518      201.203      111.883    55940.836    40482.688    12517.735       22.440        5.447      583.008      134.070        0.053      344.021       20.541      857.989
06/13/2014  11:17:00     -438.111     -328.629        8.160      237.693      216.609      113.827    56497.788    46919.374    12956.507       20.817        5.819      547.666      128.760        0.055      344.028       20.553      857.988
06/13/2014  11:18:00     -334.224     -129.536       -6.650      221.080      151.173       77.846    48876.537    22853.375     6060.027       10.314        3.889      358.448       88.337        0.061      344.188       20.826      858.048
06/13/2014  11:19:00     -220.131      -85.827       -2.524      172.315      103.235       63.686    29692.324    10657.505     4055.940        5.011        2.220      236.271       87.675        0.138      344.463       21.296      858.041
06/13/2014  11:20:00     -277.353     -137.636        3.691      173.383      125.286       64.332    30061.608    15696.510     4138.566        7.288        2.495      309.626       62.679        0.041      344.449       21.273      857.999
06/13/2014  11:21:00     -416.769     -161.768       -2.905      205.929      172.541       84.730    42406.688    29770.457     7179.140       13.960        3.968      447.063       96.335        0.046      344.235       20.909      857.979
06/13/2014  11:22:00     -203.471      -74.717      -12.195      142.131      150.181       69.977    20201.359    22554.425     4896.835        4.738        2.383      216.756       69.770        0.104      344.295       21.010      857.960
06/13/2014  11:23:00      -88.406       12.913        9.870       96.494       97.853       50.344     9311.132     9575.215     2534.524        1.475        1.071       89.345       39.726        0.198      344.618       21.564      857.957
06/13/2014  11:24:00     -268.449       40.103      -15.257      152.318      111.893       63.530    23200.701    12520.087     4036.040        5.682        1.988      271.428       52.139        0.037      344.594       21.519      857.924
06/13/2014  11:25:00     -289.889     -135.356      -14.172      177.259      136.496       70.667    31420.789    18631.120     4993.775        7.879        2.752      319.932       82.775        0.067      344.651       21.618      857.927
06/13/2014  11:26:00     -206.279     -190.073       11.437      141.740      143.126       86.635    20090.142    20485.093     7505.625        6.344        2.404      280.497       95.849        0.117      344.302       21.021      857.940
06/13/2014  11:27:00     -288.284     -265.047       -8.048      136.427      193.990       71.940    18612.445    37632.055     5175.356       10.741        3.071      391.609       80.516        0.042      344.443       21.262      857.923
06/13/2014  11:28:00     -182.206     -151.833        3.498      115.717      139.958       58.440    13390.492    19588.215     3415.184        4.632        1.820      237.176       65.584        0.076      344.583       21.500      857.899
06/13/2014  11:29:00     -255.326     -141.501        2.276      165.996      142.839       68.820    27554.799    20402.922     4736.139        6.895        2.635      291.915       75.307        0.067      344.443       21.262      857.905
06/13/2014  11:30:00     -301.494     -162.207        7.952      260.738      165.674      107.930    67984.276    27447.888    11648.809       11.216        5.354      342.359      137.052        0.160      344.672       21.655      857.841
06/13/2014  11:31:00     -476.429     -303.512       -0.342      176.397      137.899       92.620    31115.853    19016.236     8578.453       18.890        2.936      564.893       89.171        0.025      344.165       20.788      857.850
06/13/2014  11:32:00     -296.724     -190.833      -13.822      130.003      106.436       59.376    16900.861    11328.607     3525.485        7.820        1.588      352.792       65.690        0.035      344.244       20.923      857.833
06/13/2014  11:33:00     -285.256     -168.175       -0.642      202.441      140.681       78.168    40982.375    19791.220     6110.227        8.826        3.344      331.140       85.565        0.067      344.447       21.270      857.782
06/13/2014  11:34:00     -348.390     -118.657      -22.981      187.453      161.963       75.418    35138.443    26231.914     5687.915       10.151        3.353      368.042       89.200        0.059      344.494       21.350      857.809
06/13/2014  11:35:00     -267.142      -84.413        9.769      220.541      158.831       79.637    48638.523    25227.280     6342.097        7.938        4.010      280.162       96.617        0.119      344.675       21.660      857.780
06/13/2014  11:36:00     -350.479     -126.100      -11.295      177.523      175.036       79.960    31514.390    30637.515     6393.567       10.369        3.427      372.474       80.097        0.046      344.667       21.646      857.807
06/13/2014  11:37:00     -563.571     -234.410      -14.289      204.071      157.759       95.273    41644.850    24888.003     9077.026       22.417        3.780      610.377       94.234        0.024      344.252       20.936      857.762
06/13/2014  11:38:00     -329.851     -209.910        5.929      204.228      131.381       81.599    41709.229    17261.076     6658.340       10.925        3.281      390.978       96.269        0.061      344.433       21.246      857.763
06/13/2014  11:39:00     -427.204     -288.043        2.478      215.924      188.691      112.956    46622.959    35604.459    12759.017       18.021        4.749      515.240      106.315        0.043      344.185       20.819      857.801
06/13/2014  11:40:00     -302.066     -209.147        6.521      162.715      133.791       80.116    26476.017    17899.971     6418.611        9.290        2.540      367.405       83.127        0.051      344.349       21.099      857.787
06/13/2014  11:41:00     -251.979     -164.573        6.860      168.430      131.747       64.094    28368.672    17357.166     4108.048        7.022        2.492      300.961       72.309        0.058      344.352       21.107      857.783
06/13/2014  11:42:00     -375.299     -274.732        1.057      235.386      183.423       97.879    55406.709    33644.146     9580.345       15.746        4.932      465.110       93.854        0.041      344.473       21.313      857.777
06/13/2014  11:43:00     -383.717     -267.456      -14.730      194.836      163.659       88.237    37960.924    26784.241     7785.839       14.575        3.627      467.731       82.761        0.031      344.446       21.267      857.794
06/13/2014  11:44:00     -473.144     -285.524        4.107      208.793      172.182       94.403    43594.416    29646.726     8911.846       19.376        4.108      552.620      108.866        0.039      344.244       20.921      857.797
06/13/2014  11:45:00     -408.131      -50.504      -32.927      142.312      114.526       72.455    20252.574    13116.139     5249.697       10.440        1.931      411.244       71.080        0.030      344.475       21.317      857.796
06/13/2014  11:46:00     -336.736      -31.973        6.835      186.899      135.152       87.909    34931.230    18266.193     7727.989        8.768        3.046      338.251       96.545        0.081      344.539       21.426      857.803
06/13/2014  11:47:00     -264.794      -85.004       -7.758      129.476      100.730       48.672    16764.026    10146.487     2368.953        5.333        1.464      278.103       48.922        0.031      344.412       21.209      857.767
06/13/2014  11:48:00     -216.792     -122.695       18.663      155.283      109.879       75.151    24112.911    12073.335     5647.672        5.211        2.092      249.104       80.848        0.105      344.726       21.745      857.734
06/13/2014  11:49:00     -268.865      -51.502      -11.755      129.332      111.078       61.491    16726.685    12338.304     3781.119        5.396        1.642      273.754       68.901        0.063      344.735       21.762      857.747
06/13/2014  11:50:00     -413.956      -64.961      -14.347      220.611      152.986       74.484    48669.327    23404.723     5547.907       12.669        3.881      419.022       82.262        0.039      344.975       22.173      857.799
06/13/2014  11:51:00     -421.979     -161.001      -18.085      208.132      133.392       74.840    43319.133    17793.556     5600.978       13.550        3.336      451.650       83.685        0.034      344.665       21.642      857.812
06/13/2014  11:52:00     -347.217     -148.723        1.306      188.976      230.670       99.922    35712.063    53208.550     9984.331       12.077        4.945      377.728       95.109        0.063      344.821       21.909      857.795
06/13/2014  11:53:00     -336.532     -302.070       -1.100      242.028      133.349       89.748    58577.793    17782.072     8054.636       14.444        4.221      452.217       90.438        0.040      344.422       21.226      857.786
06/13/2014  11:54:00     -362.896     -172.820      -20.316      172.872      149.829       75.061    29884.627    22448.582     5634.224       10.996        2.898      401.946       80.171        0.040      344.751       21.789      857.760
06/13/2014  11:55:00     -395.531     -114.101       -4.064      279.254      212.400       80.724    77982.527    45113.753     6516.374       14.952        6.481      411.660      112.233        0.074      344.696       21.695      857.782
06/13/2014  11:56:00     -358.647     -164.320      -10.344      158.188      121.260       76.013    25023.494    14704.067     5777.942       10.061        2.275      394.498       75.256        0.036      344.485       21.335      857.795
06/13/2014  11:57:00     -374.479     -128.593      -25.632      131.262      129.572       63.862    17229.739    16788.876     4078.335        9.775        1.905      395.943       58.761        0.022      344.556       21.454      857.790
06/13/2014  11:58:00     -189.242     -113.756       17.677      164.260      130.893       80.926    26981.449    17133.080     6549.031        4.985        2.533      220.801       88.287        0.160      345.006       22.225      857.804
06/13/2014  11:59:00     -400.303     -125.643       -1.633      250.269      168.030       99.734    62634.643    28234.174     9946.776       13.840        5.041      419.558      107.685        0.066      345.038       22.280      857.802
06/13/2014  12:00:00     -219.187      -85.427        1.925      198.912      107.581       59.980    39565.907    11573.644     3597.557        5.503        2.737      235.246       70.990        0.091      344.528       21.408      857.858
06/13/2014  12:01:00      -96.484      -58.682        8.064      104.937       95.393       46.523    11011.733     9099.863     2164.374        1.754        1.114      112.927       45.272        0.161      344.525       21.405      857.780
06/13/2014  12:02:00     -183.339      -74.595      -19.023       94.466       96.454       44.033     8923.863     9303.305     1938.890        2.985        1.008      197.934       34.979        0.031      344.507       21.373      857.754
06/13/2014  12:03:00     -111.752     -198.392        4.160      128.022       97.816       53.126    16389.529     9568.014     2822.424        4.032        1.439      227.702       52.978        0.054      344.857       21.970      857.741
06/13/2014  12:04:00     -266.864     -120.961       18.540      216.796      131.047       81.228    47000.429    17173.428     6598.041        7.847        3.539      292.998      102.077        0.121      345.021       22.252      857.741
06/13/2014  12:05:00     -355.428     -349.464      -15.619      211.128      227.284      100.618    44574.891    51658.204    10123.929       17.751        5.318      498.452      105.550        0.045      344.678       21.664      857.751
06/13/2014  12:06:00     -382.894     -321.700       -5.749      230.768      204.270      106.048    53253.679    41726.066    11246.231       17.816        5.311      500.099      108.597        0.047      344.647       21.611      857.756
06/13/2014  12:07:00     -265.209      -31.029       -1.204      208.484       89.042       67.739    43465.553     7928.431     4588.533        6.363        2.799      267.018       95.925        0.129      345.014       22.241      857.826
06/13/2014  12:08:00     -155.475       18.521       12.248      208.518       78.192       61.658    43479.943     6113.954     3801.747        3.902        2.670      156.575       87.578        0.313      345.349       22.815      857.781
06/13/2014  12:09:00     -101.280      -81.916        7.765      103.368      113.088       45.709    10684.912    12788.997     2089.275        2.129        1.278      130.261       40.704        0.098      345.022       22.254      857.783
06/13/2014  12:10:00     -138.501     -279.653       19.099      175.797      144.965       87.392    30904.540    21014.792     7637.293        7.864        2.978      312.071       80.013        0.066      344.714       21.726      857.792
06/13/2014  12:11:00     -346.382     -185.871      -15.562      183.178      112.285       62.722    33554.342    12607.964     3934.050       10.242        2.505      393.101       68.112        0.030      344.444       21.265      857.785
06/13/2014  12:12:00      -45.057        7.003       27.825       84.758       64.863       45.986     7183.975     4207.211     2114.682        0.818        0.675       45.598       48.813        1.146      345.337       22.796      857.733
06/13/2014  12:13:00      -69.050     -122.725       15.597       93.500       81.156       44.113     8742.286     6586.282     1945.989        1.867        0.864      140.817       46.690        0.110      344.696       21.697      857.689
06/13/2014  12:14:00     -147.025     -318.922        1.805      149.360      224.992       84.805    22308.356    50621.517     7191.937       10.171        4.006      351.180       88.998        0.064      344.795       21.864      857.747
06/13/2014  12:15:00     -221.633     -160.940       10.183      139.085      140.080       66.751    19344.744    19622.407     4455.735        5.927        2.171      273.903       63.555        0.054      344.636       21.592      857.764
06/13/2014  12:16:00     -203.702      -64.133        5.796      140.494      120.705       60.091    19738.593    14569.748     3610.947        4.177        1.896      213.559       71.444        0.112      345.020       22.249      857.710
06/13/2014  12:17:00     -213.827     -197.589       -2.054      176.715      178.917       64.085    31228.219    32011.266     4106.923        7.604        3.367      291.141       85.328        0.086      345.042       22.288      857.701
06/13/2014  12:18:00     -328.139     -358.427      -19.427      167.325      168.189       77.649    27997.519    28287.623     6029.327       14.941        3.116      485.948       71.745        0.022      344.616       21.559      857.744
06/13/2014  12:19:00     -265.300     -195.237       13.842      186.482      149.575       76.314    34775.719    22372.643     5823.838        8.582        3.149      329.396       87.524        0.071      344.834       21.929      857.722
06/13/2014  12:20:00     -229.861     -152.704        7.701      145.673      105.730       64.603    21220.488    11178.816     4173.596        5.639        1.829      275.961       74.643        0.073      345.047       22.295      857.722
06/13/2014  12:21:00     -297.276       -8.523      -15.793      172.982      104.051       66.984    29922.930    10826.572     4486.821        6.696        2.262      297.398       83.072        0.078      345.018       22.246      857.716
06/13/2014  12:22:00     -260.339      -21.574        1.446      205.890       78.726       70.176    42390.790     6197.728     4924.654        6.087        2.676      261.232       94.996        0.132      345.315       22.758      857.694
06/13/2014  12:23:00      -78.292     -106.020        5.221       75.764       69.310       41.884     5740.147     4803.893     1754.236        1.485        0.615      131.794       16.033        0.015      344.999       22.215      857.681
06/13/2014  12:24:00     -136.991       40.265       -6.359      186.059      110.006       57.197    34617.963    12101.295     3271.455        3.520        2.500      142.786       79.317        0.309      345.794       23.579      857.626
06/13/2014  12:25:00     -281.417      -18.836      -39.583      133.000      102.779       61.197    17688.919    10563.460     3745.028        5.655        1.600      282.047       53.790        0.036      345.082       22.354      857.753
06/13/2014  12:26:00     -303.534        1.609      -24.437      133.851      122.322       61.106    17916.005    14962.761     3733.888        6.467        1.831      303.538       57.909        0.036      344.959       22.145      857.735
06/13/2014  12:27:00     -377.763     -110.262      -14.645      163.195      159.848       73.523    26632.470    25551.402     5405.658       10.632        2.879      393.526       84.491        0.046      345.268       22.673      857.718
06/13/2014  12:28:00     -173.637     -145.892       16.841      179.796      119.454       66.270    32326.719    14269.204     4391.690        5.134        2.549      226.791       88.407        0.152      345.355       22.823      857.785
06/13/2014  12:29:00      -80.622     -247.182      -11.294      105.743      106.703       70.816    11181.657    11385.494     5014.914        4.765        1.379      259.998       55.430        0.045      345.193       22.545      857.777
06/13/2014  12:30:00     -214.451     -142.139       12.929      229.118      154.573       91.087    52495.113    23892.715     8296.897        7.551        4.234      257.279      105.316        0.168      345.487       23.051      857.754
06/13/2014  12:31:00      -26.478       27.770       34.845       90.609       69.533       64.793     8210.048     4834.841     4198.171        0.996        0.862       38.370       47.352        1.523      345.960       23.865      857.746
06/13/2014  12:32:00        2.613      -21.326       15.638       92.890       71.849       53.632     8628.508     5162.314     2876.383        0.868        0.833       21.485       31.465        2.145      345.626       23.291      857.727
06/13/2014  12:33:00      -58.043      -26.836      -12.049       81.398      251.526       66.146     6625.679    63265.343     4375.306        3.924        3.713       63.947       59.323        0.861      345.264       22.668      857.677
06/13/2014  12:34:00     -434.909     -341.186       -3.977      276.289      193.865      100.796    76335.744    37583.574    10159.920       21.480        6.204      552.769      128.904        0.054      344.978       22.176      857.732
06/13/2014  12:35:00     -446.366     -378.694      -12.268      269.821      186.269      119.381    72803.476    34696.137    14251.891       23.225        6.088      585.365      141.540        0.058      344.591       21.516      857.751
06/13/2014  12:36:00     -172.691     -431.449       10.072      148.581      198.190       76.496    22076.314    39279.267     5851.658       14.163        3.360      464.726       60.933        0.017      344.490       21.342      857.780
06/13/2014  12:37:00     -281.640     -236.941      -34.861      167.707      180.399       61.701    28125.493    32543.825     3807.013       10.056        3.224      368.052       88.687        0.058      344.364       21.126      857.664
06/13/2014  12:38:00     -221.578     -189.227       -5.496      188.177      122.368       62.295    35410.575    14973.821     3880.687        6.959        2.713      291.382       50.301        0.030      344.889       22.026      857.642
06/13/2014  12:39:00     -165.138     -232.738        2.417      158.262      138.353       77.157    25046.998    19141.509     5953.265        6.578        2.507      285.373       89.151        0.098      345.172       22.509      857.686
06/13/2014  12:40:00     -220.376     -166.977      -10.621      134.243      154.079       66.409    18021.311    23740.311     4410.115        6.136        2.309      276.490       78.449        0.081      345.314       22.754      857.703
06/13/2014  12:41:00     -436.830     -117.157       -0.257      247.777      193.509      109.652    61393.483    37445.673    12023.547       15.768        5.543      452.268      122.644        0.074      345.410       22.917      857.797
06/13/2014  12:42:00     -332.439     -151.110        7.705      278.086      177.356      106.039    77331.912    31455.230    11244.194       12.670        6.002      365.171      137.692        0.142      345.163       22.495      857.846
06/13/2014  12:43:00     -428.164     -130.223      -25.115      257.257      153.480       82.418    66181.072    23556.008     6792.749       14.870        4.826      447.529      104.214        0.054      345.075       22.343      857.800
06/13/2014  12:44:00     -392.667      -71.556      -31.311      165.302      154.449       70.763    27324.777    23854.398     5007.377       10.823        2.809      399.134       69.088        0.030      345.208       22.570      857.852
06/13/2014  12:45:00     -533.469      -52.192      -39.570      192.365      191.287       87.298    37004.210    36590.550     7620.902       18.503        4.061      536.016       74.525        0.019      344.953       22.135      857.823
06/13/2014  12:46:00     -330.280     -124.440        0.323      217.070      206.852      100.592    47119.561    42787.844    10118.738       11.228        5.001      352.945       90.379        0.066      345.244       22.633      857.802
06/13/2014  12:47:00     -224.394      -26.958        9.749      206.319      134.202       89.537    42567.705    18010.245     8016.835        5.987        3.430      226.007      101.496        0.202      345.721       23.451      857.825
06/13/2014  12:48:00     -642.882      -49.228      -41.823      294.493      202.816       97.966    86726.286    41134.338     9597.243       27.744        6.873      644.764       96.703        0.022      345.326       22.774      857.858
06/13/2014  12:49:00     -557.938     -176.633      -17.398      285.850      181.738       98.513    81710.252    33028.874     9704.817       23.360        6.222      585.230      100.834        0.030      344.985       22.189      857.834
06/13/2014  12:50:00     -434.701     -153.143      -17.163      217.807      211.585      102.311    47440.015    44768.290    10467.626       15.767        5.134      460.888      117.186        0.065      345.146       22.466      857.881
06/13/2014  12:51:00     -442.236      -31.222      -21.633      244.222      159.627       82.210    59644.559    25480.843     6758.435       14.443        4.594      443.337       91.851        0.043      345.041       22.285      857.898
06/13/2014  12:52:00     -219.331     -114.444       -2.586      132.615      140.629       69.265    17586.865    19776.477     4797.706        5.168        2.108      247.394       69.581        0.079      345.306       22.739      857.844
06/13/2014  12:53:00     -379.846      -46.285      -15.025      265.276      209.040       88.833    70371.461    43697.661     7891.331       13.428        6.098      382.656      100.088        0.068      345.275       22.686      857.830
06/13/2014  12:54:00     -345.034     -194.746      -10.482      204.152      152.125       93.125    41678.001    23142.060     8672.356       11.527        3.675      396.200      109.453        0.076      345.315       22.754      857.855
06/13/2014  12:55:00     -426.919     -182.780       -6.111      306.284      206.717      106.422    93810.087    42731.871    11325.639       18.176        7.393      464.401      123.336        0.071      345.540       23.142      857.835
06/13/2014  12:56:00     -341.081      -59.709      -11.325      226.180      163.815       95.158    51157.266    26835.396     9055.104       10.352        4.352      346.268      116.636        0.113      345.304       22.735      857.809
06/13/2014  12:57:00     -221.635       62.526      -20.231      118.028       92.761       75.011    13930.563     8604.523     5626.647        4.080        1.408      230.286       46.852        0.041      345.390       22.881      857.796
06/13/2014  12:58:00     -309.256       96.151      -35.472      129.765      110.488       69.464    16838.874    12207.653     4825.275        7.000        1.694      323.858       60.808        0.035      345.061       22.320      857.786
06/13/2014  12:59:00     -249.237      -23.074        6.631      207.971      167.250       85.024    43251.976    27972.420     7229.111        7.056        3.923      250.303       81.155        0.105      345.377       22.862      857.746
06/13/2014  13:00:00     -565.174      -53.894      -52.446      330.879      219.878       90.523   109480.905    48346.223     8194.418       24.552        8.301      567.738       98.153        0.030      345.231       22.611      857.736
06/13/2014  13:01:00     -607.899      -57.102      -50.070      276.751      264.663      105.825    76591.236    70046.429    11198.859       26.654        7.892      610.575      130.359        0.046      345.195       22.548      857.771
06/13/2014  13:02:00     -546.945      -50.524      -45.554      191.588      131.501       91.457    36706.135    17292.485     8364.413       18.306        3.118      549.273       84.399        0.024      344.989       22.194      857.779
06/13/2014  13:03:00     -349.178     -136.188       -6.521      243.306      133.207       72.190    59197.965    17744.140     5211.376       11.132        4.108      374.796      100.860        0.072      344.995       22.207      857.818
06/13/2014  13:04:00     -113.832      -38.359       -0.777      118.310       85.871       57.329    13997.153     7373.832     3286.601        1.954        1.233      120.121       40.287        0.112      345.544       23.146      857.827
06/13/2014  13:05:00     -362.428      -93.409      -11.941      184.388      134.704       68.051    33999.083    18145.135     4630.902        9.849        2.839      374.272       61.723        0.027      345.227       22.604      857.789
06/13/2014  13:06:00     -553.138     -151.539       -6.611      173.506      146.359       88.111    30104.348    21420.840     7763.477       19.412        2.964      573.520      100.425        0.031      345.023       22.254      857.806
06/13/2014  13:07:00     -393.976     -184.901      -10.561      197.592      185.606       83.846    39042.406    34449.439     7030.226       13.500        4.026      435.207       99.312        0.052      344.991       22.199      857.799
06/13/2014  13:08:00      -96.518     -107.903        9.622      120.982       82.331       55.370    14636.669     6778.324     3065.835        2.276        1.224      144.771       52.749        0.133      345.441       22.970      857.779
06/13/2014  13:09:00     -154.812     -147.671        7.103      138.850      127.042       65.431    19279.279    16139.674     4281.238        4.275        1.985      213.947       66.379        0.096      345.639       23.311      857.778
06/13/2014  13:10:00     -201.055      -38.218        4.457      151.355      196.711       80.136    22908.373    38695.286     6421.795        5.495        3.401      204.655       81.660        0.159      345.796       23.580      857.772
06/13/2014  13:11:00     -444.595      -42.760        2.611      323.580      192.420      104.862   104703.791    37025.299    10996.103       17.608        7.636      446.647      153.163        0.118      345.563       23.180      857.792
06/13/2014  13:12:00     -630.550      -95.262      -48.299      168.712      159.984       88.787    28463.906    25594.921     7883.071       23.546        3.097      637.705       87.606        0.019      345.065       22.326      857.876
06/13/2014  13:13:00     -439.391       32.623      -27.982      255.721      180.243       82.864    65393.466    32487.716     6866.403       14.981        5.237      440.601       97.954        0.049      344.975       22.172      857.840
06/13/2014  13:14:00     -199.652     -192.495       -8.575      193.698       94.924       68.636    37518.957     9010.612     4710.963        6.410        2.562      277.336       72.414        0.068      345.297       22.724      857.850
06/13/2014  13:15:00     -358.618      -17.689        1.185      168.551      135.248       77.974    28409.410    18291.914     6079.874        9.084        2.639      359.054       80.565        0.050      345.251       22.644      857.819
06/13/2014  13:16:00     -201.769      -25.557        2.138      143.972      104.029       66.910    20727.974    10822.044     4476.931        3.869        1.801      203.381       76.927        0.143      345.472       23.024      857.810
06/13/2014  13:17:00     -278.812      -49.184      -14.746      136.894       86.629       53.079    18740.017     7504.567     2817.327        5.471        1.453      283.117       50.556        0.032      345.359       22.828      857.830
06/13/2014  13:18:00     -151.360     -168.804       -5.982      118.863       87.382       62.032    14128.444     7635.602     3848.008        3.852        1.281      226.726       60.364        0.071      345.123       22.426      857.731
06/13/2014  13:19:00     -269.320     -134.521       -5.776      190.972      133.554       64.960    36470.286    17836.781     4219.787        7.458        2.926      301.046       47.450        0.025      345.398       22.898      857.629
06/13/2014  13:20:00     -470.951     -379.278      -10.013      309.373      224.185      133.225    95711.522    50258.775    17749.026       26.470        8.186      604.688      165.082        0.075      345.294       22.719      857.680
06/13/2014  13:21:00     -502.290      -50.284       -6.634      299.519      217.893      116.686    89711.390    47477.414    13615.571       20.281        7.540      504.800      144.511        0.082      345.550       23.157      857.754
06/13/2014  13:22:00     -435.333     -376.362        5.944      260.039      199.464      148.752    67620.524    39785.788    22127.183       23.034        6.477      575.468      159.616        0.077      345.113       22.409      857.818
06/13/2014  13:23:00     -516.480     -304.673        8.162      220.359      162.307      114.619    48558.189    26343.690    13137.591       22.382        4.402      599.648      122.006        0.041      344.930       22.095      857.803
06/13/2014  13:24:00     -314.438      -92.698      -14.885      142.988      139.833       63.807    20445.541    19553.346     4071.281        7.587        2.204      327.817       65.663        0.040      345.381       22.868      857.848
06/13/2014  13:25:00     -139.172      -77.022       15.108      146.317      190.322       55.825    21408.786    36222.465     3116.385        4.313        3.037      159.064       46.999        0.087      345.743       23.490      857.874
06/13/2014  13:26:00     -395.349     -213.432       -0.241      255.969      232.168      108.194    65520.133    53902.167    11706.006       16.646        6.556      449.282      126.463        0.079      345.468       23.017      857.879
06/13/2014  13:27:00     -514.945     -100.045      -29.490      236.162      159.190       96.998    55772.343    25341.388     9408.648       18.327        4.526      524.574      112.631        0.046      345.440       22.969      857.942
06/13/2014  13:28:00     -296.046     -127.219      -10.659      287.589      147.187       97.884    82707.443    21664.019     9581.367       10.892        5.698      322.223       89.852        0.078      345.147       22.467      857.844
06/13/2014  13:29:00     -258.889        1.390       -9.563      183.075      115.489       74.805    33516.403    13337.674     5595.826        5.977        2.622      258.893       78.643        0.092      345.476       23.031      857.875
06/13/2014  13:30:00     -457.705      -68.706      -37.558      204.038      143.827       90.281    41631.547    20686.097     8150.603       14.303        3.523      462.833       96.623        0.044      345.479       23.036      857.902
06/13/2014  13:31:00     -461.173      -21.448      -31.267      212.456      161.973       92.105    45137.673    26235.368     8483.316       14.697        3.993      461.671       94.119        0.042      345.435       22.959      857.920
06/13/2014  13:32:00     -588.801      -31.010      -55.191      173.066      150.338       72.257    29951.906    22601.661     5221.056       20.422        2.889      589.617       78.502        0.018      345.147       22.465      857.914
06/13/2014  13:33:00     -412.423     -107.081      -11.667      163.124      181.771       89.418    26609.464    33040.658     7995.499       12.466        3.382      426.098      103.395        0.059      345.447       22.980      857.932
06/13/2014  13:34:00     -337.234     -261.772       24.688      263.449      180.725      121.001    69405.598    32661.470    14641.168       14.976        5.835      426.909      126.754        0.088      345.251       22.646      857.929
06/13/2014  13:35:00     -274.529     -110.775       -2.095      179.246      149.401       80.082    32129.023    22320.532     6413.143        7.424        3.043      296.036       88.626        0.090      345.464       23.010      857.877
06/13/2014  13:36:00     -231.185      -79.025       -1.587      193.158      141.697       71.082    37309.849    20077.992     5052.610        6.105        3.122      244.319       67.103        0.075      345.533       23.130      857.856
06/13/2014  13:37:00     -364.497     -255.414        1.985      284.084      183.866      112.924    80703.566    33806.701    12751.815       16.265        6.363      445.077      137.779        0.096      345.491       23.055      857.857
06/13/2014  13:38:00     -369.552     -197.011      -11.978      238.409      161.249      111.177    56838.819    26001.112    12360.272       13.534        4.760      418.787      128.950        0.095      345.245       22.636      857.886
06/13/2014  13:39:00     -469.732     -339.910       -5.258      274.895      217.380      131.936    75567.309    47253.879    17407.236       23.819        7.011      579.816      139.904        0.058      345.088       22.365      857.850
06/13/2014  13:40:00     -377.300     -276.526      -13.076      210.178      181.738       90.352    44174.633    33028.738     8163.459       15.216        4.268      467.784      109.456        0.055      345.335       22.789      857.905
06/13/2014  13:41:00     -362.454     -260.117        6.409      274.720      201.267      101.654    75470.843    40508.487    10333.525       16.267        6.316      446.132      122.563        0.075      345.403       22.906      857.889
06/13/2014  13:42:00     -382.108     -242.310       -9.987      233.725      163.575       92.657    54627.274    26756.706     8585.287       14.738        4.498      452.461       74.838        0.027      345.120       22.420      857.864
06/13/2014  13:43:00     -428.526     -329.214       -7.644      213.227      191.642       93.165    45465.774    36726.526     8679.769       19.146        4.544      540.386      105.185        0.038      345.013       22.239      857.848
06/13/2014  13:44:00     -442.182     -302.692       -5.234      241.767      184.687      103.671    58451.282    34109.127    10747.744       19.522        5.165      535.861      129.103        0.058      344.854       21.965      857.807
06/13/2014  13:45:00     -442.119     -256.799      -16.791      231.147      184.376      106.473    53428.712    33994.652    11336.451       18.021        4.938      511.287      121.420        0.056      345.134       22.444      857.792
06/13/2014  13:46:00     -427.752     -249.215       18.099      281.333      204.545      112.239    79148.456    41838.803    12597.586       18.947        6.679      495.056      124.168        0.063      344.959       22.145      857.807
06/13/2014  13:47:00     -406.001     -275.052       -5.543      246.227      148.539       86.988    60627.555    22063.702     7566.855       16.537        4.513      490.398      112.097        0.052      344.818       21.902      857.816
06/13/2014  13:48:00     -281.154     -189.123      -13.023      150.290       92.156       52.358    22587.137     8492.793     2741.324        7.440        1.691      338.844       40.014        0.014      344.616       21.556      857.775
06/13/2014  13:49:00     -424.006     -222.437      -10.655      158.197      159.437       87.201    25026.346    25420.059     7604.022       14.370        2.903      478.811       81.247        0.029      344.917       22.073      857.757
06/13/2014  13:50:00     -148.408      -67.690       17.107      157.001       83.161       61.668    24649.331     6915.833     3802.997        3.113        1.768      163.116       73.465        0.203      345.464       23.011      857.779
06/13/2014  13:51:00     -334.558     -255.559       -4.494      193.388      147.005       93.830    37398.831    21610.437     8804.125       12.252        3.391      420.999       90.936        0.047      345.370       22.848      857.815
06/13/2014  13:52:00     -497.567     -330.094        1.754      227.752      192.513      108.922    51871.085    37061.177    11864.081       22.865        5.040      597.106      111.298        0.035      345.364       22.840      857.831
06/13/2014  13:53:00     -357.800     -279.145       -0.813      315.591      205.430      119.071    99597.940    42201.604    14178.009       18.093        7.799      453.809      162.915        0.129      345.431       22.953      857.791
06/13/2014  13:54:00     -280.302     -182.366       28.245      294.312      178.713      105.951    86619.708    31938.453    11225.575       12.118        6.489      334.405      133.816        0.160      345.673       23.368      857.772
06/13/2014  13:55:00     -313.776     -184.967       14.311      222.548      162.241      104.198    49527.541    26322.298    10857.322       10.977        4.335      364.236      110.849        0.093      345.496       23.066      857.793
06/13/2014  13:56:00     -489.152     -270.233       -1.737      293.263      206.029      108.365    86003.065    42448.030    11742.882       22.622        7.010      558.834      138.276        0.061      345.250       22.644      857.802
06/13/2014  13:57:00     -497.500     -306.623      -38.350      263.395      201.173       92.659    69377.130    40470.693     8585.758       23.069        5.922      584.400      114.140        0.038      345.298       22.724      857.825
06/13/2014  13:58:00     -486.719     -337.827       13.263      305.278      239.842      141.930    93194.632    57523.952    20144.133       26.100        8.543      592.472      172.719        0.085      345.198       22.553      857.811
06/13/2014  13:59:00     -437.660     -255.582      -14.423      233.788      178.923      101.889    54656.999    32013.550    10381.397       17.705        4.853      506.822      106.708        0.044      345.096       22.379      857.872
06/13/2014  14:00:00     -451.740     -238.941       -8.555      215.400      171.181       98.848    46397.347    29302.915     9770.903       17.334        4.274      511.040      111.527        0.048      344.999       22.213      857.870
06/13/2014  14:01:00     -297.044     -215.154       -0.619      142.562      181.396       76.490    20323.794    32904.606     5850.731        9.679        2.954      366.779       62.041        0.029      345.192       22.543      857.835
06/13/2014  14:02:00     -495.994     -261.170       -6.577      254.987      192.823      106.183    65018.353    37180.762    11274.791       21.385        5.674      560.553      128.479        0.053      345.256       22.653      857.808
06/13/2014  14:03:00     -443.559     -223.053      -11.464      212.014      149.301       83.940    44950.072    22290.708     7045.841       16.044        3.714      496.485       86.373        0.030      345.636       23.304      857.855
06/13/2014  14:04:00     -499.564     -161.691      -16.844      239.928      153.484       93.232    57565.327    23557.229     8692.227       18.289        4.491      525.079       97.011        0.034      345.158       22.486      857.877
06/13/2014  14:05:00     -356.108      -50.557      -13.637      170.698      139.153       68.414    29137.911    19363.465     4680.456        9.136        2.659      359.679       70.405        0.038      345.329       22.778      857.859
06/13/2014  14:06:00     -199.690     -113.133       -7.032      144.817       97.477       65.077    20971.914     9501.713     4234.979        4.371        1.735      229.511       62.221        0.073      345.194       22.548      857.853
06/13/2014  14:07:00     -166.023     -106.066       10.768      146.526      127.716       65.852    21469.729    16311.373     4336.451        4.052        2.106      197.012       60.851        0.095      345.339       22.796      857.793
06/13/2014  14:08:00     -270.173     -213.322       16.255      187.117      196.576       93.486    35012.890    38642.287     8739.547       10.056        4.120      344.238      110.261        0.103      345.436       22.963      857.757
06/13/2014  14:09:00     -356.273     -233.032      -15.479      198.042      164.722       99.589    39220.574    27133.436     9917.995       12.886        3.814      425.717       95.087        0.050      345.378       22.862      857.811
06/13/2014  14:10:00     -328.343      -95.660      -14.214      168.303      155.966       91.058    28325.841    24325.535     8291.636        8.904        3.047      341.994       95.510        0.078      345.379       22.865      857.781
06/13/2014  14:11:00     -506.744     -383.118       -1.061      293.058      203.171      135.051    85882.743    41278.271    18238.673       27.446        7.270      635.271      151.965        0.057      345.214       22.580      857.722
06/13/2014  14:12:00     -456.885     -295.944       -5.351      274.841      189.444      113.158    75537.596    35888.973    12804.717       21.027        6.212      544.359      125.241        0.053      345.388       22.879      857.762
06/13/2014  14:13:00     -383.554     -320.803       -2.725      256.500      202.634      119.109    65792.472    41060.587    14187.046       18.551        6.052      500.028      149.770        0.090      345.506       23.082      857.807
06/13/2014  14:14:00     -274.281     -201.566        0.767      198.764      157.584       87.900    39507.123    24832.735     7726.324        9.395        3.603      340.380      109.146        0.103      345.409       22.916      857.840
06/13/2014  14:15:00     -321.557     -213.233       -7.459      212.050      130.137       80.520    44965.138    16935.730     6483.428       10.864        3.419      385.833       91.857        0.057      345.036       22.278      857.809
06/13/2014  14:16:00     -251.511     -289.393       -5.053      163.639      158.620       88.670    26777.605    25160.154     7862.417       10.340        2.990      383.414       94.637        0.061      345.106       22.397      857.852
06/13/2014  14:17:00     -321.053     -305.488       -0.106      242.502      185.912      103.208    58807.190    34563.254    10651.908       15.019        5.201      443.168      120.404        0.074      345.159       22.488      857.897
06/13/2014  14:18:00     -305.831     -230.412       10.434      144.403      109.269       73.315    20852.328    11939.746     5375.097        9.244        1.908      382.913       73.063        0.036      344.929       22.094      857.826
06/13/2014  14:19:00     -217.986     -160.289        8.290      148.289      123.440       64.468    21989.752    15237.377     4156.104        5.732        2.069      270.574       73.703        0.074      345.241       22.628      857.780
06/13/2014  14:20:00     -175.651     -143.410        5.709      127.936       97.057       54.321    16367.498     9419.985     2950.753        4.009        1.437      226.760       61.676        0.074      345.414       22.923      857.759
06/13/2014  14:21:00     -472.643     -113.674      -24.242      238.130      149.988       73.839    56705.923    22496.526     5452.269       16.076        4.233      486.121       68.412        0.020      345.332       22.782      857.807
06/13/2014  14:22:00     -466.095     -242.984      -23.052      226.473      173.629       98.176    51290.148    30146.951     9638.606       18.393        4.554      525.629      104.682        0.040      345.430       22.952      857.827
06/13/2014  14:23:00     -519.808     -327.060        5.701      262.602      207.031      114.088    68959.580    42862.006    13015.969       25.099        6.242      614.141      122.663        0.040      345.264       22.668      857.826
06/13/2014  14:24:00     -481.142     -239.805      -22.448      225.103      209.330       92.490    50671.172    43818.968     8554.361       19.626        5.152      537.591      101.860        0.036      345.478       23.035      857.824
06/13/2014  14:25:00     -533.146     -276.433      -19.103      296.292      208.961      118.304    87788.852    43664.714    13995.811       25.321        7.272      600.550      140.814        0.055      345.268       22.671      857.829
06/13/2014  14:26:00     -525.688     -103.016      -19.358      338.617      185.674      122.750   114661.252    34474.758    15067.533       22.574        8.210      535.687      170.308        0.101      345.436       22.963      857.858
06/13/2014  14:27:00     -406.195     -281.517        0.364      237.773      210.519      101.675    56535.978    44318.381    10337.738       17.770        5.560      494.213      117.719        0.057      345.362       22.835      857.846
06/13/2014  14:28:00     -566.967     -296.962      -11.790      266.807      227.412      119.769    71186.240    51716.185    14344.643       27.348        6.862      640.029      142.989        0.050      345.371       22.850      857.840
06/13/2014  14:29:00     -403.254     -237.570       27.546      358.553      202.856      127.496   128560.219    41150.552    16255.175       20.285        9.298      468.032      167.323        0.128      345.332       22.782      857.823
06/13/2014  14:30:00     -474.372     -394.028      -16.453      269.687      237.778      118.055    72731.158    56538.206    13937.084       26.185        7.160      616.674      138.814        0.051      345.141       22.456      857.835
06/13/2014  14:31:00     -349.712     -167.012       10.054      274.068      167.238       99.040    75113.416    27968.480     9808.997       13.157        5.645      387.545      121.587        0.098      345.417       22.929      857.820
06/13/2014  14:32:00     -484.218     -340.129       11.763      275.005      204.230      136.471    75627.614    41709.880    18624.333       24.310        6.798      591.739      142.965        0.058      345.170       22.506      857.832
06/13/2014  14:33:00     -424.097     -302.780      -11.439      275.814      195.383      106.895    76073.601    38174.521    11426.464       19.864        6.284      521.090      121.800        0.055      345.231       22.609      857.815
06/13/2014  14:34:00     -368.907     -228.178       -0.043      201.148      184.225       87.984    40460.527    33938.840     7741.177       13.513        4.107      433.771       93.199        0.046      345.248       22.639      857.860
06/13/2014  14:35:00     -458.419     -156.446       -4.124      243.123      217.374       92.371    59108.921    47251.248     8532.338       17.474        5.745      484.379      102.921        0.045      345.397       22.895      857.877
06/13/2014  14:36:00     -421.519     -124.494       -9.972      275.509      158.765      107.147    75905.332    25206.400    11480.566       15.291        5.630      439.519      122.017        0.077      345.384       22.872      857.871
06/13/2014  14:37:00     -604.339     -164.738      -32.850      229.136      201.883       84.470    52503.284    40756.684     7135.162       24.690        5.020      626.390       85.845        0.019      345.356       22.824      857.889
06/13/2014  14:38:00     -535.974     -118.032      -11.937      188.968      116.862       79.071    35709.001    13656.774     6252.169       17.847        2.781      548.817       87.220        0.025      345.021       22.250      857.917
06/13/2014  14:39:00     -340.497      -58.867       -7.358      228.754      116.235       81.474    52328.599    13510.657     6638.027        9.595        3.624      345.548      107.065        0.096      345.532       23.125      857.907
06/13/2014  14:40:00     -236.754      -53.200       -0.076      142.409      132.626       69.735    20280.446    17589.653     4862.944        5.080        2.137      242.657       71.297        0.086      345.519       23.106      857.886
06/13/2014  14:41:00     -202.964     -141.606       -0.588      153.839      146.826       60.885    23666.403    21557.814     3707.006        5.508        2.447      247.481       59.549        0.058      345.539       23.139      857.884
06/13/2014  14:42:00     -410.113     -167.802       -6.116      248.291      226.319       85.885    61648.248    51220.462     7376.171       15.829        6.012      443.114      124.831        0.079      345.579       23.207      857.879
06/13/2014  14:43:00     -309.967     -221.678       -3.120      224.782      135.950       80.170    50526.821    18482.299     6427.250       11.032        3.772      381.079      100.975        0.070      345.397       22.896      857.878
06/13/2014  14:44:00     -364.098     -184.361      -16.012      234.976      166.511       86.381    55213.747    27725.889     7461.757       12.859        4.520      408.113      104.657        0.066      345.488       23.051      857.855
06/13/2014  14:45:00     -514.926     -331.998      -22.990      308.752      165.311      106.884    95327.931    27327.745    11424.236       25.496        6.704      612.675      126.694        0.043      345.401       22.902      857.887
06/13/2014  14:46:00     -459.806     -255.868       10.360      247.347      158.091       93.256    61180.606    24992.627     8696.755       18.591        4.743      526.203      102.090        0.038      345.193       22.546      857.934
06/13/2014  14:47:00     -336.956     -164.988       -6.812      220.458      131.290       79.912    48601.525    17237.047     6385.979       10.650        3.611      375.180      102.161        0.074      345.182       22.527      857.919
06/13/2014  14:48:00     -206.114     -205.206        4.734      143.980      123.432       63.039    20730.171    15235.356     3973.894        6.227        1.997      290.848       68.500        0.055      345.315       22.753      857.877
06/13/2014  14:49:00     -233.829     -197.449       12.778      224.287      185.422      101.722    50304.567    34381.238    10347.360        9.441        4.752      306.042       92.441        0.091      345.441       22.969      857.855
06/13/2014  14:50:00     -184.869     -156.746        4.764      152.054      123.050       77.424    23120.323    15141.258     5994.498        5.150        2.213      242.376       82.813        0.117      345.738       23.481      857.852
06/13/2014  14:51:00     -338.938     -281.619       17.080      232.804      211.417      104.219    54197.629    44696.991    10861.556       15.210        5.488      440.668      118.868        0.073      345.483       23.043      857.867
06/13/2014  14:52:00     -416.938     -251.166       -5.278      233.438      140.807       84.052    54493.187    19826.593     7064.718       15.915        4.069      486.746       95.831        0.039      345.149       22.470      857.834
06/13/2014  14:53:00     -314.829     -196.029       -5.787      217.816      160.874       88.971    47443.970    25880.491     7915.820       10.939        4.062      370.870       99.192        0.072      345.370       22.849      857.861
06/13/2014  14:54:00     -468.824     -313.856       -7.516      256.423      197.105      103.492    65752.735    38850.448    10710.508       21.681        5.766      564.182      120.517        0.046      345.276       22.689      857.875
06/13/2014  14:55:00     -511.186     -234.719       -1.943      231.978      175.449      104.493    53813.717    30782.523    10918.702       20.594        4.776      562.498      110.340        0.038      345.236       22.620      857.899
06/13/2014  14:56:00     -528.381     -196.428      -19.399      315.069      186.217      108.162    99268.708    34676.746    11699.067       23.187        7.282      563.712      130.330        0.053      345.315       22.754      857.881
06/13/2014  14:57:00     -471.851     -188.410      -15.576      246.192      230.871      108.634    60610.437    53301.632    11801.409       19.202        6.286      508.076      118.926        0.055      345.282       22.698      857.914
06/13/2014  14:58:00     -213.541     -111.351       15.758      214.188      137.736       84.477    45876.604    18971.256     7136.307        6.510        3.599      240.830       90.611        0.142      345.448       22.982      857.893
06/13/2014  14:59:00     -244.084     -109.738       12.383      218.549      138.681       78.879    47763.795    19232.495     6221.969        7.248        3.661      267.618       95.857        0.128      345.409       22.917      857.914
06/13/2014  15:00:00     -588.681     -118.218      -33.691      192.504      237.787       86.266    37057.720    56542.742     7441.761       23.133        5.052      600.434       84.481        0.020      345.048       22.297      857.923
06/13/2014  15:01:00     -286.273      -93.357        4.145      164.712      127.491       75.334    27129.978    16253.862     5675.178        6.986        2.453      301.111       89.324        0.088      345.452       22.989      857.890
06/13/2014  15:02:00     -199.307     -261.738        1.210      177.671      176.098       77.488    31567.013    31010.663     6004.416        8.839        3.429      328.984       56.575        0.030      345.331       22.781      857.917
06/13/2014  15:03:00     -531.966     -204.831      -30.035      158.964      170.384       93.706    25269.701    29030.667     8780.826       19.445        3.154      570.038       80.534        0.020      345.092       22.372      857.909
06/13/2014  15:04:00     -395.794     -247.078       -4.285      229.813      167.397      113.967    52814.006    28021.646    12988.420       15.575        4.691      466.584      116.627        0.062      345.265       22.670      857.892
06/13/2014  15:05:00     -398.692     -272.242      -27.216      213.261      142.086       85.041    45480.355    20188.557     7232.002       15.334        3.645      482.775      101.422        0.044      345.267       22.672      857.912
06/13/2014  15:06:00     -344.742      -42.473      -13.015      173.169      137.980       59.743    29987.417    19038.354     3569.200        8.670        2.630      347.349       80.164        0.053      345.483       23.043      857.896
06/13/2014  15:07:00     -257.775     -198.675       10.356      202.421      192.971       95.797    40974.085    37237.958     9176.984        9.669        4.369      325.453      111.170        0.117      345.625       23.286      857.946
06/13/2014  15:08:00     -459.894     -331.713       -5.793      251.875      184.750      113.553    63440.863    34132.517    12894.200       21.600        5.523      567.041      126.240        0.050      345.247       22.637      857.982
06/13/2014  15:09:00     -393.775      -57.701      -19.002      184.771      157.043       81.664    34140.474    24662.351     6668.984       11.210        3.274      397.980       85.704        0.046      345.369       22.846      857.949
06/13/2014  15:10:00     -383.453     -129.290       -7.061      221.776      180.667       99.796    49184.505    32640.724     9959.206       12.777        4.589      404.663      104.197        0.066      345.364       22.838      857.900
06/13/2014  15:11:00     -331.167     -221.190      -10.637      236.740      183.388       96.343    56045.849    33631.187     9281.939       12.881        4.948      398.242      108.576        0.074      345.324       22.772      857.940
06/13/2014  15:12:00     -463.408     -183.533      -34.688      170.475      262.019       80.656    29061.620    68653.894     6505.341       17.691        5.211      498.429       69.688        0.020      345.122       22.423      857.909
06/13/2014  15:13:00     -192.548     -167.522      -19.717      105.435      174.431       55.245    11116.564    30426.214     3052.026        5.505        2.230      255.222       54.520        0.046      345.296       22.722      857.874
06/13/2014  15:14:00     -286.998      248.791      -31.075      174.092      247.711      104.421    30308.181    61360.746    10903.703       12.388        5.129      379.822      121.813        0.103      345.370       22.848      857.881
06/13/2014  15:15:00     -339.768     -146.120        6.568      161.603      142.330       71.855    26115.498    20257.722     5163.185        9.418        2.577      369.855       78.885        0.045      345.583       23.214      857.976
06/13/2014  15:16:00     -183.978      -51.478        4.589      131.616      143.529       68.913    17322.756    20600.649     4749.054        3.959        2.134      191.044       65.807        0.119      345.856       23.682      858.027
06/13/2014  15:17:00     -251.265     -119.811        5.068      156.992      147.586       70.751    24646.441    21781.628     5005.676        6.446        2.572      278.368       67.745        0.059      345.697       23.412      858.010
06/13/2014  15:18:00     -336.463      -82.301       -8.254      150.373      135.498       65.457    22612.014    18359.838     4284.617        8.264        2.263      346.383       75.331        0.047      345.270       22.676      857.942
06/13/2014  15:19:00     -168.969     -136.302       18.503      157.558      108.489       69.199    24824.535    11769.931     4788.475        4.442        2.069      217.091       88.808        0.167      345.345       22.808      857.920
06/13/2014  15:20:00     -167.060     -122.619      -11.675      106.552       90.833       49.497    11353.255     8250.696     2449.941        3.256        1.103      207.230       50.118        0.058      345.503       23.077      857.919
06/13/2014  15:21:00     -252.086     -135.006       18.350      235.357      138.701       88.829    55392.683    19237.845     7890.629        8.230        4.126      285.961      113.949        0.159      345.485       23.045      857.940
06/13/2014  15:22:00     -299.039     -179.157      -18.397      187.206      139.470       87.147    35045.947    19451.982     7594.585        9.196        3.105      348.600       79.545        0.052      345.261       22.661      857.924
06/13/2014  15:23:00     -104.393     -192.244       33.575      137.692      161.502       66.208    18959.103    26082.957     4383.534        4.919        2.471      218.760       60.534        0.077      345.503       23.077      857.924
06/13/2014  15:24:00     -320.893     -237.967       10.387      220.189      200.270      106.102    48483.003    40108.141    11257.681       12.976        4.992      399.500      107.949        0.073      345.366       22.841      857.941
06/13/2014  15:25:00     -481.279     -252.100        1.121      258.223      184.008      106.766    66679.300    33858.819    11399.074       20.354        5.597      543.309      118.593        0.048      345.173       22.511      857.915
06/13/2014  15:26:00     -409.740     -129.489      -10.030      176.585      180.359       86.072    31182.211    32529.490     7408.461       12.792        3.556      429.714       72.668        0.029      345.422       22.937      857.968
06/13/2014  15:27:00     -437.261      -86.471      -28.272      178.571      136.343       81.626    31887.729    18589.415     6662.749       12.830        2.857      445.729       86.335        0.038      345.428       22.947      857.980
06/13/2014  15:28:00     -453.699      -62.580      -13.997      166.886      167.630       88.010    27850.789    28099.649     7745.771       13.681        3.185      457.995       80.328        0.031      345.570       23.192      857.980
06/13/2014  15:29:00     -216.395      -75.756        5.028      211.170      157.467       95.745    44592.893    24795.767     9167.112        6.556        3.928      229.273      114.820        0.251      345.918       23.790      858.033
06/13/2014  15:30:00     -544.276       74.019      -59.138      234.193      162.782       76.430    54846.418    26498.021     5841.618       19.618        4.359      549.286       89.151        0.026      345.470       23.020      858.072
06/13/2014  15:31:00     -476.160     -145.424      -17.223      248.558      154.104       92.942    61780.987    23747.959     8638.133       17.115        4.708      497.872      103.644        0.043      345.431       22.953      858.079
06/13/2014  15:32:00     -416.389        1.277      -24.093      182.634      161.151       70.981    33355.064    25969.796     5038.354       11.915        3.218      416.391       78.495        0.036      345.552       23.161      858.123
06/13/2014  15:33:00     -256.011      -64.389       -4.014      130.520      125.722       74.197    17035.447    15805.911     5505.254        5.402        1.917      263.984       67.916        0.066      345.638       23.309      858.135
06/13/2014  15:34:00     -104.639      -81.043        9.307      110.696      108.144       48.962    12253.609    11695.080     2397.275        2.197        1.317      132.353       55.383        0.175      345.653       23.336      858.131
06/13/2014  15:35:00     -196.375      -68.845       -5.895      159.278      132.066       73.627    25369.429    17441.401     5420.906        4.578        2.412      208.093       79.951        0.148      345.258       22.657      858.107
06/13/2014  15:36:00     -355.624     -124.616      -14.731      131.516       86.614       43.595    17296.501     7502.021     1900.531        8.445        1.335      376.826       33.470        0.008      345.053       22.305      858.090
06/13/2014  15:37:00     -263.376      -49.890      -26.830       63.238       54.731       39.015     3999.032     2995.439     1522.162        4.054        0.426      268.059       23.912        0.008      345.117       22.414      858.049
06/13/2014  15:38:00     -213.064      -39.655      -25.639       76.353       63.207       45.073     5829.735     3995.175     2031.580        2.974        0.593      216.723       43.906        0.041      345.054       22.308      858.021
06/13/2014  15:39:00      -62.537      -65.555       17.150       86.372       58.538       44.622     7460.134     3426.729     1991.127        1.069        0.644       90.600       48.644        0.288      345.648       23.328      858.031
06/13/2014  15:40:00      -94.635      -95.100       -3.820      166.655      116.431       45.046    27773.874    13556.272     2029.159        3.068        2.168      134.163       55.736        0.173      345.622       23.284      858.014
06/13/2014  15:41:00     -196.328     -231.492        2.874      179.355      124.989       85.445    32168.141    15622.141     7300.846        7.361        2.755      303.535       92.377        0.093      345.504       23.078      858.022
06/13/2014  15:42:00     -286.979     -174.583        6.986      164.549      137.421       66.769    27076.450    18884.646     4458.073        8.164        2.521      335.911       68.603        0.042      345.512       23.093      857.987
06/13/2014  15:43:00     -131.531     -156.747       12.055      159.084      126.717       61.571    25307.801    16057.278     3790.955        4.358        2.258      204.622       58.188        0.081      345.385       22.874      857.984
06/13/2014  15:44:00      -42.741     -154.226       10.090      122.474      143.521       77.887    14999.957    20598.195     6066.365        3.368        2.083      160.038       66.594        0.173      345.329       22.779      857.902
06/13/2014  15:45:00     -100.988     -119.972       10.303      135.606      109.983       63.863    18388.968    12096.193     4078.429        2.962        1.728      156.818       53.270        0.115      345.564       23.183      857.878
06/13/2014  15:46:00      -91.495      -84.170        0.924       95.879       87.260       50.555     9192.845     7614.277     2555.817        1.741        0.968      124.322       34.270        0.076      345.564       23.183      857.899
06/13/2014  15:47:00     -148.983     -127.973       -1.023      133.940      108.287       58.250    17939.803    11726.030     3393.050        3.581        1.653      196.401       52.235        0.071      345.487       23.052      857.910
06/13/2014  15:48:00     -180.874     -286.088       -2.662      135.455      142.190       62.993    18348.097    20217.981     3968.067        7.854        2.127      338.470       53.468        0.025      345.276       22.688      857.921
06/13/2014  15:49:00     -273.406     -191.444      -13.605      161.983      134.983       70.835    26238.646    18220.283     5017.574        8.052        2.474      333.769       51.282        0.024      345.323       22.769      857.914
06/13/2014  15:50:00     -418.891     -208.195      -18.396      130.027      126.326       71.421    16906.927    15958.282     5100.919       12.855        1.898      467.777       66.587        0.020      345.084       22.358      857.930
06/13/2014  15:51:00     -312.519     -204.368       -4.981      187.416      153.613       64.601    35124.930    23597.096     4173.311       10.116        3.145      373.409       77.508        0.043      345.473       23.027      857.884
06/13/2014  15:52:00     -262.018     -206.358       12.270      186.086      162.519       83.915    34628.132    26412.512     7041.776        8.972        3.404      333.522       96.527        0.084      345.308       22.743      857.911
06/13/2014  15:53:00     -459.197     -216.975       -9.218      234.678      162.572       90.885    55073.842    26429.494     8260.126       17.388        4.488      507.878       98.182        0.037      345.198       22.556      857.901
06/13/2014  15:54:00     -643.757     -180.676       -4.242      337.919      229.163      119.339   114189.533    52515.608    14241.840       31.398        9.047      668.631      148.086        0.049      345.157       22.485      857.874
06/13/2014  15:55:00     -588.918     -299.785      -27.050      250.067      202.890      114.566    62533.686    41164.505    13125.279       27.710        5.841      660.829      121.487        0.034      345.065       22.328      857.948
06/13/2014  15:56:00     -582.499     -179.707      -23.919      309.051      219.283      118.224    95512.277    48085.221    13976.957       26.484        7.879      609.590      128.600        0.045      345.007       22.227      857.916
06/13/2014  15:57:00     -349.080     -288.803       -4.886      202.488      166.922      102.858    41001.452    27863.031    10579.710       14.235        3.972      453.061      111.210        0.060      345.131       22.439      857.921
06/13/2014  15:58:00     -150.977     -116.454       10.875      137.313      120.090       70.304    18854.751    14421.622     4942.674        3.734        1.911      190.671       65.536        0.118      345.416       22.928      857.950
06/13/2014  15:59:00     -314.846      -46.017      -15.139      201.781      110.914       82.615    40715.604    12302.002     6825.296        8.065        2.992      318.191      101.932        0.103      345.361       22.833      857.910
06/13/2014  16:00:00     -336.381      -37.653      -11.257      142.397      127.659       64.253    20276.848    16296.936     4128.470        7.769        2.035      338.482       72.703        0.046      345.571       23.192      857.910
06/13/2014  16:01:00     -577.947     -213.105      -26.374      277.605      253.166      129.245    77064.639    64093.267    16704.157       26.897        7.893      615.984      139.399        0.051      345.453       22.990      857.907
06/13/2014  16:02:00     -507.232     -164.894      -27.430      164.665      165.782       90.472    27114.490    27483.801     8185.184       17.399        3.139      533.361       79.707        0.022      345.265       22.668      857.921
06/13/2014  16:03:00     -488.635     -187.193      -11.747      248.172      176.939       99.909    61589.565    31307.523     9981.891       18.839        5.144      523.264      116.970        0.050      345.197       22.551      857.924
06/13/2014  16:04:00     -350.236     -105.075       -9.810      219.201      161.328       84.413    48048.997    26026.818     7125.484       10.749        4.060      365.658       63.303        0.030      345.256       22.654      857.929
06/13/2014  16:05:00     -449.845     -173.369      -20.358      156.958      105.765       66.931    24635.954    11186.143     4479.799       13.656        2.015      482.097       55.019        0.013      345.171       22.508      857.907
06/13/2014  16:06:00     -342.025     -188.426      -21.080      159.241      181.296       82.108    25357.837    32868.304     6741.743       10.894        3.248      390.494       83.741        0.046      345.331       22.782      857.898
06/13/2014  16:07:00     -421.645     -239.746      -13.370      181.040      160.589       77.826    32775.318    25788.811     6056.839       15.002        3.231      485.039       77.323        0.025      345.283       22.698      857.900
06/13/2014  16:08:00     -492.009      -81.876      -26.590      203.516      141.353       89.930    41418.621    19980.789     8087.412       15.947        3.474      498.775      105.178        0.044      345.107       22.398      857.869
06/13/2014  16:09:00     -392.719      -69.335      -15.298      206.196      164.837       77.273    42516.990    27171.319     5971.163       11.745        3.783      398.793       72.142        0.033      345.347       22.809      857.866
06/13/2014  16:10:00     -516.345     -241.259      -18.258      211.240      208.008      111.769    44622.470    43267.184    12492.417       21.275        5.019      569.928      117.812        0.043      345.119       22.418      857.890
06/13/2014  16:11:00     -324.254     -183.103       -1.045      216.556      152.997       87.446    46896.315    23408.069     7646.757       10.829        3.898      372.381      113.009        0.092      345.028       22.263      857.906
06/13/2014  16:12:00     -276.560     -148.666       24.729      220.837      182.644      106.614    48769.073    33358.894    11366.644        9.633        4.675      313.985      121.032        0.149      345.154       22.480      857.895
06/13/2014  16:13:00     -222.689      -81.138        1.512      114.395       79.331       57.606    13086.255     6293.359     3318.462        3.943        1.135      237.010       51.658        0.048      345.428       22.948      857.885
06/13/2014  16:14:00     -163.936     -121.236        8.666      126.131       91.467       55.669    15909.135     8366.220     3098.985        3.451        1.369      203.895       57.355        0.079      345.465       23.011      857.864
06/13/2014  16:15:00     -412.801     -147.983       10.027      239.064      196.795       95.780    57151.489    38728.375     9173.852       14.871        5.253      438.525      111.186        0.064      345.538       23.137      857.842
06/13/2014  16:16:00     -439.972     -247.544        1.270      227.967      224.813      114.351    51968.729    50540.752    13076.257       18.520        5.779      504.831      119.499        0.056      345.014       22.238      857.871
06/13/2014  16:17:00     -533.376     -316.841        0.730      271.840      246.565      124.465    73897.030    60794.348    15491.659       26.750        7.509      620.385      133.479        0.046      344.995       22.206      857.832
06/13/2014  16:18:00     -294.109      -90.233       13.892      218.558      183.920       82.255    47767.576    33826.602     6765.913        9.158        4.418      307.640       96.816        0.099      345.285       22.703      857.872
06/13/2014  16:19:00     -291.246     -184.451        7.139      208.390      129.345       73.104    43426.435    16730.239     5344.224        9.219        3.275      344.741      102.034        0.088      345.229       22.608      857.856
06/13/2014  16:20:00     -218.197     -167.541       10.814      186.224      139.574       74.786    34679.304    19480.970     5592.946        6.776        2.988      275.099       75.256        0.075      345.421       22.936      857.859
06/13/2014  16:21:00     -385.637     -212.430       16.919      263.373      160.164       88.903    69365.512    25652.600     7903.749       14.850        5.146      440.276      109.094        0.061      345.236       22.619      857.863
06/13/2014  16:22:00     -184.632     -133.167       13.924      173.786      166.711       73.962    30201.579    27792.664     5470.419        5.773        3.173      227.645       94.502        0.172      345.245       22.635      857.872
06/13/2014  16:23:00     -176.884      -84.075       27.731      176.581      154.958       80.307    31180.953    24012.121     6449.240        5.037        3.082      195.849       85.577        0.191      345.317       22.759      857.870
06/13/2014  16:24:00     -312.262     -314.757       -1.111      264.969      191.108       88.524    70208.725    36522.371     7836.461       15.555        5.728      443.373       89.816        0.041      345.284       22.701      857.840
06/13/2014  16:25:00     -553.209     -324.843      -31.532      238.549      190.211       98.585    56905.678    36180.163     9718.975       25.766        5.140      641.532      112.528        0.031      344.958       22.142      857.837
06/13/2014  16:26:00     -383.564     -345.967       -9.193      219.890      183.816      107.775    48351.747    33788.226    11615.454       18.031        4.688      516.541      117.018        0.051      345.147       22.466      857.862
06/13/2014  16:27:00     -429.742     -318.038      -20.534      254.903      209.654       99.764    64975.657    43954.752     9952.910       20.254        5.944      534.628       87.158        0.027      345.037       22.277      857.853
06/13/2014  16:28:00     -569.808     -430.487        8.514      277.738      251.269      136.203    77138.594    63136.141    18551.286       33.442        7.941      714.143      145.035        0.041      344.957       22.142      857.827
06/13/2014  16:29:00     -441.512     -258.709       25.630      249.114      207.983      117.365    62057.888    43257.089    13774.604       19.078        5.954      511.726      115.924        0.051      344.772       21.825      857.882
06/13/2014  16:30:00     -454.743     -297.120      -11.136      236.563      157.207       90.992    55962.253    24713.891     8279.575       19.206        4.448      543.205      106.050        0.038      344.898       22.041      857.863
06/13/2014  16:31:00     -486.546     -228.312      -23.866      201.277      151.371       88.345    40512.578    22913.251     7804.814       18.031        3.562      537.451       84.308        0.025      344.992       22.201      857.881
06/13/2014  16:32:00     -514.536     -252.556      -17.254      263.533      184.720       93.758    69449.393    34121.509     8790.515       22.057        5.618      573.177      112.259        0.038      344.886       22.020      857.869
06/13/2014  16:33:00     -332.115     -129.471        6.839      211.758      155.758       90.963    44841.454    24260.672     8274.201       10.223        3.869      356.459      102.739        0.083      345.033       22.272      857.881
06/13/2014  16:34:00     -484.629     -277.989      -10.042      249.583      185.858      103.577    62291.743    34543.174    10728.126       20.988        5.378      558.698      118.340        0.045      344.906       22.053      857.863
06/13/2014  16:35:00     -436.386     -325.848        1.945      227.959      187.172      124.889    51965.303    35033.319    15597.356       19.958        5.130      544.619      126.508        0.054      344.861       21.977      857.878
06/13/2014  16:36:00     -537.994     -354.216      -11.493      278.939      200.408      113.572    77807.025    40163.452    12898.591       27.293        6.543      644.132      128.374        0.040      344.794       21.861      857.872
06/13/2014  16:37:00     -370.029     -206.055       -6.727      243.805      191.339       95.918    59440.991    36610.484     9200.238       14.232        5.263      423.533      123.824        0.085      345.067       22.329      857.929
06/13/2014  16:38:00     -268.878     -163.067       12.150      161.101      133.732       80.151    25953.668    17884.233     6424.222        7.464        2.513      314.461       82.019        0.068      345.155       22.479      857.931
06/13/2014  16:39:00     -330.389     -144.611        2.668      217.194      148.184      102.845    47173.071    21958.402    10577.129       10.488        3.985      360.651      115.927        0.103      345.226       22.602      857.863
06/13/2014  16:40:00     -380.524     -276.649      -11.107      204.964      187.565      104.029    42010.155    35180.497    10822.010       15.472        4.401      470.460      101.512        0.047      345.311       22.748      857.910
06/13/2014  16:41:00     -443.933     -425.881      -11.890      293.708      252.196      140.426    86264.673    63602.710    19719.487       27.406        8.479      615.184      164.096        0.071      344.867       21.988      857.878
06/13/2014  16:42:00     -619.403     -325.395       -6.129      327.966      215.769      114.022   107561.994    46556.359    13000.962       32.832        8.356      699.672      130.983        0.035      344.849       21.956      857.902
06/13/2014  16:43:00     -529.848     -280.324      -19.678      243.789      165.151      108.263    59432.865    27274.766    11720.915       22.905        4.921      599.433      107.093        0.032      344.777       21.834      857.926
06/13/2014  16:44:00     -386.810     -106.767        2.969      293.265      194.741      107.770    86004.592    37923.889    11614.450       14.826        6.777      401.274      133.991        0.111      345.055       22.310      857.938
06/13/2014  16:45:00     -397.416     -296.284       -2.991      313.786      217.321      124.528    98461.346    47228.261    15507.209       20.343        8.060      495.705      138.187        0.078      345.029       22.265      857.961
06/13/2014  16:46:00     -461.689     -139.595       -3.264      227.580      163.478      102.902    51792.600    26725.214    10588.899       16.086        4.455      482.332      114.887        0.057      345.046       22.295      858.005
06/13/2014  16:47:00     -398.054     -275.522       -0.148      224.323      186.886      108.384    50320.803    34926.304    11747.157       16.566        4.850      484.107      114.008        0.055      344.785       21.846      858.012
06/13/2014  16:48:00     -474.369     -173.134       -3.533      263.615      179.158       94.723    69492.957    32097.682     8972.471       18.277        5.528      504.977      105.339        0.044      344.893       22.033      858.000
06/13/2014  16:49:00     -306.015      -27.887       -6.655      187.088      167.142       81.488    35001.918    27936.497     6640.276        8.201        3.479      307.283       78.486        0.065      345.091       22.372      858.025
06/13/2014  16:50:00     -150.055     -136.107       11.163      136.077      110.854       74.336    18517.037    12288.502     5525.768        3.874        1.817      202.587       76.362        0.142      345.215       22.585      858.002
06/13/2014  16:51:00     -178.169      -99.042       18.060      160.213      106.788       57.876    25668.158    11403.710     3349.615        4.114        2.021      203.847       65.057        0.102      345.032       22.270      857.957
06/13/2014  16:52:00     -182.273     -217.428        4.905      116.336      132.658       65.286    13534.119    17598.090     4262.261        5.795        1.770      283.723       51.600        0.033      345.090       22.368      857.960
06/13/2014  16:53:00     -287.388     -241.086        2.975      151.862      145.676       72.839    23062.014    21221.593     5305.546        9.515        2.479      375.119       65.906        0.031      344.936       22.106      857.941
06/13/2014  16:54:00     -340.812     -143.605       -3.087      234.549      164.423      107.712    55013.138    27035.063    11601.951       11.520        4.683      369.831      120.390        0.106      345.021       22.250      857.962
06/13/2014  16:55:00     -175.713      -91.647       54.263      222.446      173.844      102.263    49482.095    30221.626    10457.625        6.617        4.508      198.177      112.667        0.323      345.215       22.583      857.920
06/13/2014  16:56:00     -445.535     -229.852      -19.215      249.886      211.180      100.014    62442.966    44596.902    10002.768       18.435        5.852      501.331      107.380        0.046      345.026       22.259      857.921
06/13/2014  16:57:00     -359.175     -205.751      -12.475      191.433      147.677       88.377    36646.647    21808.630     7810.575       11.887        3.313      413.932      100.340        0.059      345.095       22.377      857.938
06/13/2014  16:58:00     -233.086     -174.500        4.940      178.396      157.121       78.205    31825.193    24687.080     6115.982        7.370        3.131      291.169       74.074        0.065      345.296       22.721      857.968
06/13/2014  16:59:00     -269.849      -49.158        2.632      181.817      161.737       76.853    33057.403    26158.701     5906.410        7.017        3.256      274.290       72.915        0.071      345.405       22.909      857.988
06/13/2014  17:00:00     -243.127     -215.552       10.749      197.594      145.749       98.743    39043.565    21242.832     9750.141        8.785        3.502      324.921       95.490        0.086      345.174       22.512      858.007
06/13/2014  17:01:00     -443.402     -279.307      -14.592      308.253      251.256      125.233    95019.619    63129.409    15683.383       22.430        8.692      524.040      159.936        0.093      344.940       22.112      858.002
06/13/2014  17:02:00     -614.799     -303.332      -28.924      301.098      280.201      123.385    90659.976    78512.692    15223.927       32.757        9.220      685.557      135.872        0.039      344.838       21.937      857.987
06/13/2014  17:03:00     -592.352     -356.824      -28.084      252.411      248.198      130.895    63711.475    61602.430    17133.489       31.069        7.122      691.523      135.875        0.039      344.756       21.796      857.994
06/13/2014  17:04:00     -594.707     -335.519      -26.572      275.450      208.904      123.348    75872.460    43640.779    15214.670       30.082        6.736      682.825      138.725        0.041      344.701       21.703      858.010
06/13/2014  17:05:00     -336.536     -224.692        3.151      255.878      211.934      115.239    65473.399    44916.094    13280.135       14.369        6.183      404.651      124.641        0.095      344.840       21.940      858.030
06/13/2014  17:06:00     -412.835     -249.966       -3.487      237.401      192.142      122.068    56359.030    36918.706    14900.647       17.053        5.409      482.614      125.881        0.068      344.797       21.869      858.048
06/13/2014  17:07:00     -456.762     -249.272      -26.961      244.214      197.070      120.166    59640.273    38836.577    14439.862       19.218        5.646      520.354      124.352        0.057      344.743       21.774      858.072
06/13/2014  17:08:00     -376.289     -129.822      -15.390      218.838      210.462      103.886    47889.938    44294.425    10792.401       13.081        5.149      398.054      123.257        0.096      344.810       21.891      858.099
06/13/2014  17:09:00     -201.918     -117.269       -0.913      155.476      109.060       59.501    24172.780    11894.149     3540.349        4.706        1.980      233.501       56.276        0.058      344.940       22.112      858.062
06/13/2014  17:10:00     -347.122     -195.607       -2.917      164.971      112.604       71.529    27215.571    12679.762     5116.373       10.188        2.251      398.441       76.413        0.037      344.707       21.714      858.020
06/13/2014  17:11:00     -419.186       24.569      -37.607      199.287      116.440       71.081    39715.311    13558.230     5052.536       11.802        2.916      419.905       76.070        0.033      344.871       21.994      858.056
06/13/2014  17:12:00     -523.860      -85.633      -55.717      211.732      125.865       85.176    44830.577    15841.876     7254.984       17.638        3.396      530.813       97.525        0.034      344.863       21.979      858.070
06/13/2014  17:13:00     -412.414     -132.818      -13.794      222.503      157.251       96.503    49507.647    24727.911     9312.796       13.572        4.177      433.273      115.047        0.071      344.848       21.955      858.070
06/13/2014  17:14:00     -446.778      -56.655      -15.544      193.365      138.800       79.493    37390.208    19265.441     6319.174       13.301        3.149      450.356       81.775        0.033      344.889       22.025      858.101
06/13/2014  17:15:00     -560.230     -230.651       -9.781      264.339      202.954      109.056    69875.296    41190.236    11893.292       24.503        6.148      605.852      106.442        0.031      344.700       21.702      858.081
06/13/2014  17:16:00     -588.961     -221.479      -18.107      201.479      167.628       90.279    40593.833    28099.090     8150.244       23.653        3.842      629.228       88.733        0.020      344.597       21.525      858.070
06/13/2014  17:17:00     -477.308     -329.753      -10.736      336.502      231.862      140.883   113233.777    53759.947    19848.048       26.172        9.342      580.138      185.739        0.103      344.588       21.510      858.065
06/13/2014  17:18:00     -494.950     -204.663      -29.087      238.427      184.768      107.943    56847.621    34139.104    11651.720       19.515        5.132      535.596      106.390        0.039      344.601       21.531      858.088
06/13/2014  17:19:00     -417.491     -126.916      -35.782      143.608      140.050       69.959    20623.215    19613.915     4894.259       11.840        2.257      436.355       49.513        0.013      344.765       21.812      858.105
06/13/2014  17:20:00     -338.481       -2.297        3.630      177.672      170.515       88.716    31567.359    29075.519     7870.543        9.154        3.426      338.489       77.126        0.052      344.962       22.150      858.102
06/13/2014  17:21:00     -582.199     -208.161      -17.848      206.070      158.185       88.697    42464.781    25022.525     7867.183       22.896        3.768      618.294       81.038        0.017      344.632       21.585      858.079
06/13/2014  17:22:00     -444.749      -39.268      -28.591      164.663      147.491       74.143    27114.058    21753.720     5497.227       12.725        2.718      446.479       79.169        0.031      344.641       21.601      858.020
06/13/2014  17:23:00     -229.852     -166.890      -10.806      184.294      111.872       69.710    33964.220    12515.363     4859.539        6.606        2.567      284.050       90.940        0.102      344.749       21.785      858.010
06/13/2014  17:24:00     -244.123     -118.253       15.983      178.755      110.862       69.426    31953.199    12290.380     4819.919        6.144        2.453      271.256       83.330        0.094      345.035       22.276      858.015
06/13/2014  17:25:00     -338.317     -137.080        2.842      223.277      144.999       74.920    49852.786    21024.723     5613.005       10.486        3.825      365.033       78.731        0.047      344.885       22.020      858.014
06/13/2014  17:26:00     -337.493      -89.482       -6.458      178.985      132.924       81.766    32035.729    17668.720     6685.710        8.916        2.820      349.154       92.060        0.070      344.986       22.192      858.026
06/13/2014  17:27:00     -308.036     -204.678        1.131      206.418      192.455      110.995    42608.525    37038.810    12319.974       11.436        4.598      369.836      121.828        0.109      344.921       22.081      858.014
06/13/2014  17:28:00     -204.303     -122.914       15.195      184.710      155.442       95.467    34117.776    24162.177     9113.892        6.222        3.370      238.427      103.334        0.188      344.986       22.190      857.991
06/13/2014  17:29:00     -353.730     -199.758       -8.818      195.722      161.438       82.119    38307.209    26062.292     6743.529       11.810        3.556      406.237       90.954        0.050      344.982       22.184      857.997
06/13/2014  17:30:00     -386.276     -306.310        3.877      249.081      188.685      114.899    62041.124    35601.880    13201.707       17.692        5.542      492.986      121.759        0.061      344.808       21.885      857.971
06/13/2014  17:31:00     -464.826     -225.908      -17.633      295.956      200.191      126.984    87589.859    40076.388    16125.037       20.557        7.190      516.815      146.746        0.081      344.828       21.919      858.004
06/13/2014  17:32:00     -416.996     -213.098      -16.543      201.675      159.916       86.329    40672.624    25573.074     7452.711       14.662        3.685      468.291       96.635        0.043      344.722       21.739      858.041
06/13/2014  17:33:00     -297.957     -154.107      -20.117      191.275      165.980       78.673    36586.056    27549.336     6189.491        9.161        3.516      335.451       78.751        0.055      344.703       21.706      858.023
06/13/2014  17:34:00     -292.938     -141.027       -8.254      191.671      132.574       73.580    36737.885    17575.893     5414.031        8.274        2.986      325.117       88.727        0.074      344.651       21.619      858.009
06/13/2014  17:35:00     -260.524      -44.834       -8.288      127.518      128.559       72.582    16260.713    16527.405     5268.195        5.400        1.903      264.353       78.203        0.088      344.765       21.813      857.980
06/13/2014  17:36:00     -240.972     -129.382       -1.577      128.169      107.816       58.452    16427.366    11624.392     3416.657        5.313        1.573      273.509       56.012        0.042      344.971       22.165      857.987
06/13/2014  17:37:00     -349.680     -140.251       -5.811      288.246      170.009      109.201    83085.924    28903.053    11924.872       13.292        6.196      376.757      134.254        0.127      344.865       21.985      857.988
06/13/2014  17:38:00     -449.363     -206.709      -22.899      198.271      166.755       82.862    39311.509    27807.333     6866.165       15.957        3.699      494.627       76.560        0.024      344.779       21.836      858.015
06/13/2014  17:39:00     -294.657     -144.421        1.537      196.288      135.158       89.023    38529.074    18267.742     7925.164        8.619        3.236      328.147       98.446        0.090      344.820       21.908      858.038
06/13/2014  17:40:00     -245.043      -12.258       13.838      220.117      141.803      112.317    48451.290    20108.071    12615.101        7.076        4.059      245.350      129.397        0.278      344.829       21.922      858.002
06/13/2014  17:41:00     -308.462       63.825      -33.390      161.846      155.217       72.580    26194.158    24092.249     5267.786        7.793        2.778      314.996       75.912        0.058      344.788       21.852      857.987
06/13/2014  17:42:00     -174.240      -37.032        4.450       96.985       85.427       58.468     9406.173     7297.733     3418.495        2.593        1.006      178.131       49.613        0.078      345.055       22.310      857.993
06/13/2014  17:43:00     -116.753      -28.690       -2.608      163.101       89.189       62.667    26601.877     7954.669     3927.185        2.646        1.924      120.226       68.192        0.322      345.064       22.326      857.977
06/13/2014  17:44:00     -265.765       18.391       -7.962      233.018      135.330       91.530    54297.339    18314.240     8377.768        7.599        4.049      266.401      109.335        0.168      345.072       22.338      857.976
06/13/2014  17:45:00     -346.602      -89.310      -13.586      165.628      146.947       79.311    27432.645    21593.491     6290.191        9.179        2.766      357.924       88.345        0.061      344.948       22.126      857.993
06/13/2014  17:46:00     -558.772      -85.123      -20.354      303.096      195.687      115.045    91867.241    38293.586    13235.427       23.161        7.170      565.219      158.653        0.079      344.782       21.842      857.998
06/13/2014  17:47:00     -388.987      -72.890       -2.262      167.084      186.356       95.891    27917.082    34728.470     9195.164       11.422        3.592      395.757       93.307        0.056      344.732       21.756      858.017
06/13/2014  17:48:00     -505.720      -87.880      -24.063      225.650      147.066      100.845    50917.886    21628.285    10169.731       17.337        4.136      513.299      117.384        0.052      344.781       21.841      858.035
06/13/2014  17:49:00     -456.587      -66.830      -21.336      185.347      178.254       75.423    34353.370    31774.558     5688.670       14.259        3.591      461.452       73.106        0.025      344.672       21.654      858.028
06/13/2014  17:50:00     -286.553       -4.775      -28.402      136.414      106.508       62.717    18608.884    11344.028     3933.427        5.841        1.694      286.593       57.948        0.041      344.901       22.045      857.997
06/13/2014  17:51:00     -312.874      -71.789      -12.908      197.147      107.941       80.752    38867.115    11651.277     6520.849        8.011        2.852      321.005      100.959        0.099      344.907       22.057      857.977
06/13/2014  17:52:00     -174.775      -55.884        6.975      117.322       82.519       54.623    13764.392     6809.365     2983.631        2.863        1.178      183.492       59.182        0.104      345.078       22.349      857.977
06/13/2014  17:53:00     -401.816      -90.939      -36.172      297.999      145.670       95.570    88803.171    21219.692     9133.692       14.507        5.958      411.979      108.290        0.069      344.836       21.934      857.987
06/13/2014  17:54:00     -362.065     -109.497       -3.954      222.974      151.778       91.143    49717.553    23036.481     8306.966       11.206        4.053      378.260      106.652        0.079      344.664       21.639      857.988
06/13/2014  17:55:00     -351.626      -60.058       -8.328      202.831      160.271       96.746    41140.577    25686.701     9359.771       10.174        3.809      356.718      100.905        0.080      344.712       21.720      858.022
06/13/2014  17:56:00     -266.565      -22.855        2.252      203.554      123.446       81.334    41434.401    15238.956     6615.154        6.742        3.164      267.543       96.903        0.131      344.934       22.104      858.016
06/13/2014  17:57:00     -463.176       10.755      -39.788      248.119      159.867       92.139    61563.206    25557.606     8489.523       15.590        4.781      463.301      112.648        0.059      344.655       21.624      858.014
06/13/2014  17:58:00     -534.962        8.746      -47.634      238.592      162.163       94.554    56926.031    26296.985     8940.464       19.033        4.608      535.033      107.744        0.041      344.644       21.606      857.976
06/13/2014  17:59:00     -264.770     -112.236       14.587      178.257      167.452       84.156    31775.533    28040.285     7082.270        7.489        3.345      287.576       96.978        0.114      344.869       21.990      858.034
06/13/2014  18:00:00     -314.884     -244.123       -1.427      200.454      121.046       93.909    40181.925    14652.192     8818.885       11.119        3.183      398.432       99.037        0.062      344.537       21.423      858.035
06/13/2014  18:01:00     -152.635     -156.699       19.779      195.885      241.412      129.734    38371.019    58279.950    16831.002        8.084        5.674      218.750      126.195        0.333      344.703       21.706      857.998
06/13/2014  18:02:00     -229.924      -98.086        9.218      203.810      120.030       76.903    41538.562    14407.132     5914.032        6.220        3.093      249.972       94.651        0.143      344.918       22.075      858.050
06/13/2014  18:03:00     -415.590     -113.111       -5.198      278.628      154.201       91.056    77633.786    23777.813     8291.160       14.760        5.485      430.708      125.644        0.085      344.697       21.697      858.067
06/13/2014  18:04:00     -420.489     -131.061       -1.606      200.334      179.721       90.257    40133.702    32299.643     8146.400       13.727        4.029      440.441       94.042        0.046      344.584       21.503      858.046
06/13/2014  18:05:00     -367.449     -149.401       -8.253      215.020      123.719       71.826    46233.480    15306.414     5158.961       11.204        3.335      396.660       88.477        0.050      344.620       21.566      858.033
06/13/2014  18:06:00     -309.733     -224.889       -2.577      184.975      173.520       95.350    34215.650    30109.210     9091.676       10.995        3.671      382.766       90.977        0.056      344.655       21.625      858.027
06/13/2014  18:07:00     -588.210     -274.219      -26.702      244.803      222.842      122.028    59928.301    49658.693    14890.752       27.316        6.224      648.990      127.042        0.038      344.455       21.281      858.005
06/13/2014  18:08:00     -473.317     -170.592      -24.240      216.765      208.749       91.784    46987.064    43576.110     8424.256       17.633        4.949      503.121       97.435        0.038      344.390       21.170      858.064
06/13/2014  18:09:00     -489.742     -261.332        3.833      262.228      214.500      103.950    68763.448    46010.187    10805.561       21.684        6.279      555.105      132.675        0.057      344.405       21.198      858.051
06/13/2014  18:10:00     -356.078     -172.963      -22.523      272.847      179.687      103.072    74445.455    32287.334    10623.888       13.726        5.868      395.863      113.855        0.083      344.542       21.431      858.041
06/13/2014  18:11:00     -418.924      -81.973       -8.180      217.487      174.552       87.584    47300.621    30468.330     7671.001       13.384        4.272      426.869      105.613        0.061      344.500       21.359      858.054
06/13/2014  18:12:00     -267.053     -140.565       -1.723      130.212      152.966       69.389    16955.247    23398.732     4814.800        6.811        2.258      301.787       53.098        0.031      344.633       21.586      858.064
06/13/2014  18:13:00     -394.253     -255.543      -11.698      162.615      139.650       79.569    26443.670    19502.088     6331.264       13.657        2.614      469.827       73.216        0.024      344.559       21.461      858.062
06/13/2014  18:14:00     -433.288     -211.862       -8.871      244.414      228.676      116.208    59738.336    52292.534    13504.319       17.909        6.277      482.311      122.567        0.065      344.464       21.299      858.064
06/13/2014  18:15:00     -429.571     -303.677       -5.638      235.833      206.896      105.508    55617.440    42805.809    11131.886       19.315        5.478      526.072      114.805        0.048      344.412       21.209      858.061
06/13/2014  18:16:00     -534.874     -173.734      -18.489      241.921      209.151       98.502    58525.643    43744.320     9702.604       21.427        5.599      562.382      111.851        0.040      344.348       21.100      858.056
06/13/2014  18:17:00     -423.809      -78.783      -22.993      243.861      152.114       77.450    59468.165    23138.539     5998.449       13.746        4.430      431.069       99.478        0.053      344.495       21.350      858.090
06/13/2014  18:18:00     -411.576     -104.782       -2.046      230.744      141.690       89.073    53242.736    20076.112     7934.055       13.080        4.063      424.705      115.030        0.073      344.422       21.226      858.072
06/13/2014  18:19:00     -300.315     -172.620      -10.819      173.977      163.588       77.685    30268.149    26760.908     6034.914        9.157        3.153      346.391       80.632        0.054      344.513       21.383      858.063
06/13/2014  18:20:00     -548.156     -307.597       -8.600      252.117      188.335      114.024    63562.804    35469.963    13001.560       25.358        5.602      628.563      144.233        0.053      344.302       21.021      858.070
06/13/2014  18:21:00     -494.191     -199.975      -12.182      213.538      136.624       90.996    45598.458    18666.131     8280.289       17.844        3.627      533.118      102.043        0.037      344.294       21.008      858.075
06/13/2014  18:22:00     -420.595     -282.686      -23.853      195.671      179.595      112.522    38287.072    32254.225    12661.243       17.027        4.160      506.766      118.406        0.055      344.314       21.040      858.066
06/13/2014  18:23:00     -447.035     -204.377        1.026      199.038      120.840       69.174    39616.184    14602.203     4785.043       15.030        2.950      491.539       81.723        0.028      344.304       21.025      858.032
06/13/2014  18:24:00     -467.211     -291.949      -12.719      200.731      148.624       90.776    40293.084    22089.113     8240.284       18.714        3.531      550.926       97.319        0.031      344.409       21.204      858.050
06/13/2014  18:25:00     -377.206     -183.330       -2.749      233.750      186.357       82.461    54639.176    34729.101     6799.842       13.602        4.808      419.398       83.573        0.040      344.530       21.411      858.092
06/13/2014  18:26:00     -255.491      -95.393       18.048      165.498      175.871       94.705    27389.527    30930.549     8969.130        7.098        3.364      272.719       95.997        0.124      344.515       21.386      858.117
06/13/2014  18:27:00     -472.670     -231.115      -18.766      227.531      195.947       85.362    51770.270    38395.270     7286.622       18.730        4.873      526.148       92.677        0.031      344.424       21.230      858.110
06/13/2014  18:28:00     -363.272      -40.387      -13.144      184.673      126.322       66.612    34104.120    15957.247     4437.189        9.412        2.725      365.510       54.922        0.023      344.483       21.330      858.133
06/13/2014  18:29:00     -517.421     -324.230       -4.489      278.632      185.868      115.373    77635.812    34546.766    13310.979       24.916        6.275      610.614      136.871        0.050      344.327       21.063      858.116
06/13/2014  18:30:00     -452.419     -336.591      -21.277      246.504      194.714      121.919    60764.227    37913.368    14864.154       21.596        5.677      563.894      133.187        0.056      344.292       21.006      858.133
06/13/2014  18:31:00     -502.539     -288.619      -10.218      269.642      225.144      114.965    72706.762    50689.713    13216.901       23.626        6.831      579.523      136.027        0.055      344.312       21.039      858.134
06/13/2014  18:32:00     -495.629     -108.089      -25.755      227.297      163.346       86.123    51663.883    26682.015     7417.208       17.186        4.288      507.278       98.505        0.038      344.299       21.015      858.189
06/13/2014  18:33:00     -473.436      -35.109      -44.785      247.277      165.839       86.453    61146.081    27502.724     7474.048       16.173        4.806      474.736       96.923        0.042      344.308       21.031      858.186
06/13/2014  18:34:00     -492.882     -106.894       -8.398      176.384      142.756       78.802    31111.283    20379.165     6209.722       15.605        2.885      504.340       89.572        0.032      344.337       21.079      858.182
06/13/2014  18:35:00     -265.642     -133.727        2.468      180.300      133.243       70.588    32508.244    17753.579     4982.722        7.184        2.762      297.403       76.425        0.066      344.523       21.399      858.203
06/13/2014  18:36:00     -325.759     -209.171        1.670      185.061      188.417       97.374    34247.424    35500.842     9481.789       11.454        3.962      387.133      117.005        0.091      344.384       21.161      858.213
06/13/2014  18:37:00     -310.076     -260.915       -9.844      177.582      145.111       89.232    31535.542    21057.316     7962.388       11.243        3.028      405.245      103.778        0.066      344.423       21.228      858.205
06/13/2014  18:38:00     -435.819      -38.667      -28.273      210.946      140.286       70.173    44498.277    19680.143     4924.239       13.065        3.455      437.531       83.460        0.036      344.420       21.223      858.216
06/13/2014  18:39:00     -508.212     -120.976       -6.903      220.568      156.482       95.896    48650.401    24486.703     9196.013       17.763        4.117      522.412       91.364        0.031      344.287       20.995      858.204
06/13/2014  18:40:00     -384.356     -103.554      -10.321      214.199      181.678       88.544    45881.146    33006.876     7840.122       12.263        4.336      398.062       83.175        0.044      344.351       21.105      858.208
06/13/2014  18:41:00     -228.980      -50.755        1.221      134.910      107.760       70.377    18200.707    11612.207     4952.890        4.488        1.738      234.538       71.888        0.094      344.449       21.272      858.238
06/13/2014  18:42:00     -162.280      -12.609       12.438      227.169      121.900       81.783    51605.671    14859.516     6688.535        4.989        3.658      162.769      105.274        0.418      344.504       21.368      858.231
06/13/2014  18:43:00     -481.342      -67.086       -4.018      271.841      173.235      106.390    73897.651    30010.207    11318.919       17.569        5.761      485.994      114.950        0.056      344.271       20.969      858.246
06/13/2014  18:44:00     -487.990      -67.496      -13.573      216.876      221.358      109.761    47035.054    48999.315    12047.387       17.546        5.404      492.636      124.788        0.064      344.215       20.873      858.263
06/13/2014  18:45:00     -390.174     -298.252      -35.675      273.478      207.288      100.608    74790.428    42968.403    10121.887       18.515        6.394      491.111      104.834        0.046      344.167       20.790      858.232
06/13/2014  18:46:00     -316.707     -276.713       -8.887      214.633      175.582      101.284    46067.304    30828.981    10258.366       13.204        4.358      420.564      119.041        0.080      344.218       20.878      858.241
06/13/2014  18:47:00     -280.496     -159.375       -3.224      179.650      115.509       88.981    32273.948    13342.428     7917.608        7.880        2.677      322.612       87.754        0.074      344.345       21.094      858.278
06/13/2014  18:48:00     -407.792     -127.261       -2.599      203.314      208.928       96.626    41336.480    43651.050     9336.644       13.839        4.716      427.188       98.054        0.053      344.307       21.030      858.303
06/13/2014  18:49:00     -289.358      -70.877       17.425      212.267      165.563      103.331    45057.329    27411.065    10677.305        8.608        4.157      297.912      109.803        0.136      344.306       21.029      858.342
06/13/2014  18:50:00     -500.212     -168.813      -24.088      262.200      163.382       91.378    68748.651    26693.521     8349.850       19.152        5.190      527.930      107.406        0.041      344.156       20.773      858.372
06/13/2014  18:51:00     -387.705      -73.145      -26.425      215.115      172.150       96.826    46274.606    29635.630     9375.214       12.081        4.264      394.544       92.331        0.055      344.286       20.995      858.390
06/13/2014  18:52:00     -302.550     -191.585       -4.819      261.733      190.747      100.700    68503.950    36384.540    10140.549       12.162        5.751      358.108      128.289        0.128      344.224       20.888      858.380
06/13/2014  18:53:00     -269.181      -15.749       -1.504      139.788      116.783       74.953    19540.783    13638.321     5617.934        5.575        1.940      269.641       57.718        0.046      344.289       20.998      858.428
06/13/2014  18:54:00     -230.432     -144.952        7.253      185.750      128.099       87.931    34503.047    16409.362     7731.843        6.639        2.932      272.232       85.421        0.098      344.315       21.043      858.450
06/13/2014  18:55:00     -453.978     -233.808      -13.807      254.941      172.229      103.416    64994.694    29662.715    10694.950       18.313        5.268      510.649      127.392        0.062      344.170       20.797      858.456
06/13/2014  18:56:00     -323.980     -121.926        4.073      188.600      156.337       87.608    35570.136    24441.144     7675.123        9.375        3.384      346.163       97.819        0.080      344.216       20.874      858.469
06/13/2014  18:57:00     -219.205      -44.251        4.457      195.837      135.639       74.102    38352.267    18397.920     5491.062        5.612        3.112      223.627       80.435        0.129      344.240       20.915      858.480
06/13/2014  18:58:00     -322.160     -105.455      -13.342      197.010      128.673       69.623    38812.990    16556.777     4847.354        8.764        3.011      338.981       91.782        0.073      344.208       20.861      858.498
06/13/2014  18:59:00     -331.085      -66.065      -18.738      148.817      160.000       77.554    22146.574    25600.033     6014.624        8.404        2.688      337.612       80.802        0.057      344.181       20.815      858.503
06/13/2014  19:00:00     -440.015     -106.425      -12.076      186.104      149.050       71.916    34634.541    22216.045     5171.983       13.354        3.101      452.703       69.775        0.024      344.113       20.698      858.530
06/13/2014  19:01:00     -398.445     -108.863      -28.991      241.415      153.634       81.362    58281.343    23603.538     6619.717       12.996        4.425      413.049       74.996        0.033      344.104       20.683      858.525
06/13/2014  19:02:00     -338.564      -93.416       -1.285      224.516      147.865       93.866    50407.219    21864.044     8810.798       10.220        4.054      351.215      115.572        0.108      344.183       20.818      858.534
06/13/2014  19:03:00     -304.298     -135.296       19.802      240.613      162.178       91.762    57894.449    26301.800     8420.215       10.194        4.631      333.020      102.799        0.095      344.123       20.716      858.541
06/13/2014  19:04:00     -247.096     -243.561        1.850      183.085      124.182       90.897    33520.106    15421.216     8262.275        8.878        2.860      346.955       96.988        0.078      344.111       20.695      858.560
06/13/2014  19:05:00     -406.172     -125.816       -0.816      255.782      158.991       90.042    65424.665    25278.018     8107.537       13.979        4.941      425.212      114.404        0.072      344.050       20.591      858.553
06/13/2014  19:06:00     -279.245     -194.519       -3.711      200.825      141.283      104.654    40330.713    19960.943    10952.514        9.352        3.562      340.317      119.511        0.123      344.095       20.668      858.549
06/13/2014  19:07:00     -356.094     -124.737       -9.622      219.105      172.217       85.373    48006.925    29658.845     7288.595       11.369        4.248      377.310       95.381        0.064      344.131       20.729      858.604
06/13/2014  19:08:00     -361.807      -58.605       -7.423      238.693      138.195       85.093    56974.449    19097.855     7240.758       10.884        4.166      366.523      102.430        0.078      344.156       20.772      858.605
06/13/2014  19:09:00     -400.462     -140.003      -20.839      257.123      149.213       99.992    66112.436    22264.472     9998.326       13.937        4.919      424.229      119.399        0.079      344.066       20.619      858.599
06/13/2014  19:10:00     -374.092     -171.979        0.219      258.897      172.447      110.587    67027.652    29737.945    12229.420       13.924        5.450      411.730      130.547        0.101      344.052       20.594      858.617
06/13/2014  19:11:00     -371.200     -226.714       -9.258      250.352      163.948      103.670    62676.037    26878.887    10747.467       14.477        5.015      434.959      116.169        0.071      344.039       20.570      858.610
06/13/2014  19:12:00     -342.314     -237.240      -26.815      191.389      214.339       96.010    36629.710    45941.063     9217.926       13.297        4.589      416.488       95.755        0.053      344.056       20.603      858.606
06/13/2014  19:13:00     -440.674     -355.589      -17.461      266.891      185.066      116.701    71230.982    34249.527    13619.155       22.000        5.955      566.249      141.085        0.062      343.985       20.479      858.595
06/13/2014  19:14:00     -279.059     -184.253       -1.665      225.737      179.949      105.875    50957.364    32381.590    11209.423       10.317        4.727      334.399       98.802        0.087      344.056       20.602      858.626
06/13/2014  19:15:00     -273.561     -109.124        2.977      159.932      116.257       76.839    25578.180    13515.696     5904.166        6.587        2.250      294.523       75.085        0.065      344.105       20.685      858.667
06/13/2014  19:16:00     -390.636     -292.309      -10.945      192.809      191.750      104.819    37175.323    36768.005    10986.951       16.153        4.247      487.895      112.216        0.053      343.948       20.417      858.647
06/13/2014  19:17:00     -314.337     -217.610        0.377      178.147      134.498       83.277    31736.322    18089.837     6935.134       10.145        2.838      382.311       85.993        0.051      344.033       20.562      858.645
06/13/2014  19:18:00     -202.687     -169.165       23.567      195.779      163.920      104.089    38329.259    26869.736    10834.607        7.313        3.802      264.005      115.153        0.190      343.998       20.502      858.642
06/13/2014  19:19:00     -315.303     -131.570      -11.993      154.512      147.135       66.761    23874.069    21648.569     4457.020        8.342        2.499      341.653       61.851        0.033      344.008       20.519      858.683
06/13/2014  19:20:00     -263.917        2.028        9.135      208.416      126.282       68.283    43437.321    15947.070     4662.606        6.688        3.202      263.925       96.655        0.134      343.998       20.501      858.704
06/13/2014  19:21:00     -514.003      -30.257      -27.058      192.368      197.243       86.262    37005.519    38904.936     7441.156       17.458        4.168      514.893       78.550        0.023      343.891       20.319      858.700
06/13/2014  19:22:00     -434.384      -29.835       -9.517      169.167      179.311       84.328    28617.528    32152.266     7111.257       12.876        3.394      435.407       79.674        0.033      343.891       20.319      858.711
06/13/2014  19:23:00     -257.243      -60.675       18.958      210.225      120.580       89.822    44194.708    14539.638     8068.051        6.850        3.340      264.302      106.378        0.162      343.867       20.279      858.737
06/13/2014  19:24:00     -370.864      -90.460      -18.482      210.066      222.673       92.689    44127.559    49583.487     8591.277       12.416        5.115      381.737       87.854        0.053      343.828       20.213      858.721
06/13/2014  19:25:00     -448.834     -157.076       -8.966      251.811      145.431       95.634    63408.985    21150.183     9145.939       15.994        4.685      475.526      115.940        0.059      343.810       20.181      858.743
06/13/2014  19:26:00     -388.342      -99.597        3.550      258.260      140.105       97.762    66698.042    19629.370     9557.499       12.829        4.794      400.911      119.620        0.089      343.788       20.143      858.737
06/13/2014  19:27:00     -534.809     -109.346      -17.801      231.148      206.072      100.668    53429.554    42465.581    10134.028       20.214        5.301      545.872      114.531        0.044      343.747       20.071      858.723
06/13/2014  19:28:00     -375.422     -133.854      -20.924      233.713      169.539       90.396    54621.565    28743.431     8171.482       12.540        4.577      398.571      109.683        0.076      343.775       20.122      858.755
06/13/2014  19:29:00     -263.538      -17.295        8.141      174.693      174.636       89.935    30517.495    30497.711     8088.225        6.945        3.455      264.105       89.008        0.114      343.792       20.150      858.762
06/13/2014  19:30:00     -222.605      -35.642       13.992      183.840      132.997       76.310    33797.289    17688.269     5823.249        5.415        2.865      225.440       96.202        0.182      343.796       20.157      858.784
06/13/2014  19:31:00     -310.631      -80.883      -11.357      142.335       99.325       54.568    20259.197     9865.509     2977.660        6.813        1.655      320.988       56.454        0.031      343.795       20.155      858.811
06/13/2014  19:32:00     -278.743      -91.691       -5.984      147.891      171.410       86.395    21871.791    29381.489     7464.060        7.242        2.936      293.436       78.025        0.071      343.778       20.127      858.819
06/13/2014  19:33:00     -433.026     -198.642        9.969      322.367      203.499      110.212   103920.661    41411.892    12146.790       19.224        7.874      476.414      150.562        0.100      343.676       19.952      858.797
06/13/2014  19:34:00     -413.600     -256.461      -16.589      161.595      146.649       85.168    26112.840    21505.853     7253.634       14.598        2.744      486.660       79.037        0.026      343.693       19.979      858.816
06/13/2014  19:35:00     -333.266     -154.692      -20.129      237.478      134.258       85.319    56395.788    18025.186     7279.289       10.853        4.085      367.418       99.989        0.074      343.691       19.976      858.825
06/13/2014  19:36:00     -324.694     -196.621      -10.315      158.733      131.435       85.128    25196.128    17275.132     7246.828        9.695        2.486      379.586       94.234        0.062      343.700       19.992      858.832
06/13/2014  19:37:00     -441.189     -272.396      -15.826      242.899      137.428       86.317    58999.798    18886.347     7450.671       17.720        4.267      518.505       71.760        0.019      343.678       19.954      858.833
06/13/2014  19:38:00     -334.805      -97.619        4.167      221.266      154.967       76.335    48958.547    24014.860     5827.031       10.021        3.940      348.746       90.457        0.067      343.679       19.957      858.831
06/13/2014  19:39:00     -366.482     -115.881      -14.876      154.575      146.529       69.693    23893.492    21470.727     4857.055        9.908        2.511      384.366       63.211        0.027      343.719       20.026      858.851
06/13/2014  19:40:00     -372.424     -160.778      -21.607      181.946      133.190       81.100    33104.518    17739.446     6577.212       11.121        2.871      405.646       76.833        0.036      343.715       20.018      858.868
06/13/2014  19:41:00     -269.859       16.311        1.487      144.573      114.881       69.530    20901.435    13197.533     4834.469        5.601        1.947      270.352       62.853        0.054      343.754       20.085      858.890
06/13/2014  19:42:00     -271.300     -100.661        1.789      214.520      118.286       83.940    46018.891    13991.608     7045.940        7.538        3.353      289.372      104.340        0.130      343.691       19.978      858.925
06/13/2014  19:43:00     -212.340      -67.933       25.938      270.388      155.814       75.788    73109.524    24277.899     5743.786        7.673        5.157      222.942      106.691        0.229      343.747       20.074      858.929
06/13/2014  19:44:00     -313.910      -97.811       -1.587      178.608      127.596       74.226    31900.721    16280.663     5509.434        8.089        2.685      328.795       83.358        0.064      343.706       20.003      858.946
06/13/2014  19:45:00     -208.341      -95.323        5.223      163.197      139.298       79.697    26633.378    19403.850     6351.623        5.244        2.619      229.112       84.566        0.136      343.730       20.043      858.944
06/13/2014  19:46:00     -232.822      -79.478       -4.891      175.178      138.663       85.084    30687.354    19227.473     7239.356        5.884        2.858      246.014       70.338        0.082      343.727       20.038      858.957
06/13/2014  19:47:00     -234.084     -132.346        4.977      186.790      135.441       80.200    34890.654    18344.310     6432.024        6.599        2.983      268.906       84.120        0.098      343.698       19.990      858.985
06/13/2014  19:48:00     -358.640     -195.599       -1.709      212.409      206.798       94.504    45117.611    42765.508     8930.996       13.183        4.841      408.512       94.404        0.053      343.645       19.898      858.993
06/13/2014  19:49:00     -436.630     -126.462      -12.228      199.257      153.113       83.878    39703.220    23443.698     7035.480       13.847        3.509      454.575       89.506        0.039      343.585       19.797      859.003
06/13/2014  19:50:00     -360.808      -64.678        2.781      246.803      164.595       90.105    60911.649    27091.594     8118.866       11.523        4.806      366.559      108.755        0.088      343.574       19.779      859.014
06/13/2014  19:51:00     -240.737     -125.881       13.862      199.214      131.793       78.403    39686.236    17369.459     6147.024        6.858        3.160      271.662       99.476        0.134      343.618       19.854      859.022
06/13/2014  19:52:00     -294.960     -153.688        1.392      159.792      191.653       96.540    25533.556    36730.769     9320.008        9.109        3.579      332.598       89.236        0.072      343.602       19.825      859.038
06/13/2014  19:53:00     -264.654     -105.359        6.189      151.760      133.273       69.504    23031.054    17761.566     4830.829        6.339        2.281      284.855       67.492        0.056      343.582       19.792      859.049
06/13/2014  19:54:00     -313.952     -232.349       -0.823      169.987      172.136       99.291    28895.461    29630.844     9858.768       11.046        3.419      390.579       84.804        0.047      343.552       19.741      859.064
06/13/2014  19:55:00     -364.392     -179.540        0.512      231.826      197.545       93.632    53743.230    39023.830     8767.024       13.325        5.077      406.222      108.716        0.072      343.528       19.700      859.082
06/13/2014  19:56:00     -342.469     -225.385      -13.376      177.121      162.256       79.731    31371.685    26326.950     6357.035       11.615        3.203      409.980       73.158        0.032      343.548       19.733      859.107
06/13/2014  19:57:00     -356.860     -117.128      -13.972      135.040      135.228       70.631    18235.924    18286.575     4988.799        9.138        2.076      375.590       63.705        0.029      343.535       19.712      859.138
06/13/2014  19:58:00     -262.284      -74.649      -14.229      172.858      127.526       63.045    29879.780    16262.987     3974.630        6.233        2.506      272.700       61.377        0.051      343.541       19.723      859.178
06/13/2014  19:59:00     -233.874     -149.604       -1.189      170.308      110.784       74.392    29004.894    12273.067     5534.227        6.194        2.341      277.630       82.266        0.088      343.538       19.717      859.174
06/13/2014  20:00:00     -219.916      -85.818        2.731      130.902      126.733       62.949    17135.439    16061.186     3962.609        4.644        1.858      236.067       64.057        0.074      343.551       19.739      859.193
06/13/2014  20:01:00     -215.468      -19.035        2.225      124.004      125.189       61.675    15377.011    15672.227     3803.777        4.082        1.743      216.308       41.938        0.038      343.506       19.663      859.219
06/13/2014  20:02:00     -356.501      -27.083        3.404      215.995      135.012       81.106    46653.815    18228.340     6578.204        9.963        3.573      357.528      100.628        0.079      343.477       19.613      859.203
06/13/2014  20:03:00     -451.032     -195.333      -22.761      182.375      130.553       71.476    33260.602    17044.140     5108.808       14.875        2.771      491.513       78.378        0.025      343.468       19.598      859.196
06/13/2014  20:04:00     -346.153     -169.420        1.620      258.085      127.434       87.982    66607.681    16239.515     7740.846       11.954        4.529      385.389      120.724        0.098      343.452       19.571      859.216
06/13/2014  20:05:00     -284.914     -182.994       -8.680      211.940      162.935       85.501    44918.657    26547.936     7310.425        9.674        3.939      338.619       97.709        0.083      343.465       19.593      859.246
06/13/2014  20:06:00     -306.624     -133.321       -6.758      181.957      130.498       79.051    33108.240    17029.829     6249.018        8.410        2.819      334.354       86.276        0.067      343.469       19.600      859.276
06/13/2014  20:07:00     -161.030     -127.221        9.147      173.084      162.270       85.013    29958.078    26331.486     7227.189        5.285        3.176      205.222       99.722        0.236      343.470       19.603      859.296
06/13/2014  20:08:00     -185.511     -113.176       14.393      164.149      138.759       85.523    26944.927    19254.186     7314.239        5.046        2.676      217.309       81.878        0.142      343.478       19.614      859.301
06/13/2014  20:09:00     -167.728      -84.084       17.379      180.428      140.853       92.918    32554.282    19839.654     8633.664        4.825        3.051      187.624      102.267        0.297      343.455       19.575      859.319
06/13/2014  20:10:00     -197.937     -114.643        7.145      156.322      192.830       66.065    24436.606    37183.542     4364.621        5.917        3.299      228.740       72.679        0.101      343.453       19.572      859.347
06/13/2014  20:11:00     -323.447      -18.699      -18.195      160.064      130.243       75.172    25620.353    16963.337     5650.775        7.676        2.412      323.987       72.795        0.050      343.408       19.496      859.391
06/13/2014  20:12:00     -195.576      -89.364       -0.026      169.657      140.340       72.705    28783.566    19695.226     5286.088        4.999        2.688      215.025       82.061        0.146      343.431       19.537      859.397
06/13/2014  20:13:00     -141.460      -23.711        8.426      139.180       94.621       55.431    19371.136     8953.228     3072.636        2.601        1.570      143.433       64.532        0.202      343.442       19.554      859.425
06/13/2014  20:14:00     -135.239      -95.021        8.244      114.229       81.470       45.905    13048.285     6637.381     2107.286        2.459        1.090      165.283       53.149        0.103      343.455       19.576      859.443
06/13/2014  20:15:00     -205.596      -88.626       -5.145      112.891      102.267       47.840    12744.346    10458.631     2288.656        3.782        1.275      223.884       27.705        0.015      343.464       19.590      859.456
06/13/2014  20:16:00     -359.008      -82.266      -16.832      136.362      117.454       69.285    18594.609    13795.458     4800.362        8.656        1.860      368.313       72.232        0.038      343.358       19.410      859.481
06/13/2014  20:17:00     -396.743      -54.240      -19.003      173.700      146.134       77.478    30171.657    21355.264     6002.799       10.911        2.876      400.434       77.010        0.037      343.337       19.373      859.488
06/13/2014  20:18:00     -333.114      -50.151        4.358      194.781      123.375       75.517    37939.691    15221.312     5702.876        8.617        2.943      336.868       88.502        0.069      343.348       19.393      859.511
06/13/2014  20:19:00     -305.963     -165.209       -1.676      159.082      148.888       73.244    25307.101    22167.506     5364.644        8.686        2.642      347.718       70.379        0.041      343.358       19.411      859.526
06/13/2014  20:20:00     -228.883      -96.973      -11.574       94.555       95.827       49.166     8940.576     9182.878     2417.269        4.123        1.027      248.578       44.785        0.032      343.386       19.457      859.546
06/13/2014  20:21:00     -197.711      -94.369        4.682      176.943      129.766       62.167    31308.877    16839.305     3864.768        5.000        2.601      219.078       71.733        0.107      343.380       19.449      859.542
06/13/2014  20:22:00     -259.341      -34.176      -14.150       97.208      102.410       59.857     9449.377    10487.847     3582.910        4.607        1.176      261.583       52.916        0.041      343.357       19.409      859.571
06/13/2014  20:23:00     -387.099     -106.359      -25.219      140.142      145.910       65.522    19639.765    21289.798     4293.115       10.350        2.261      401.445       51.596        0.017      343.334       19.369      859.570
06/13/2014  20:24:00     -185.169      -98.679        1.929      165.901      121.972       71.065    27522.979    14877.120     5050.273        4.573        2.373      209.822       94.337        0.202      343.355       19.404      859.566
06/13/2014  20:25:00     -288.949      -54.197        6.694      131.803       90.131       63.584    17372.099     8123.528     4042.895        5.800        1.477      293.987       72.804        0.061      343.327       19.356      859.582
06/13/2014  20:26:00     -240.053       -7.334       -6.924      155.434      101.354       61.954    24159.850    10272.617     3838.338        4.799        1.914      240.165       71.122        0.088      343.337       19.375      859.582
06/13/2014  20:27:00     -348.833      -55.143      -13.093      185.236      108.356       73.741    34312.472    11741.084     5437.690        8.818        2.575      353.164       78.691        0.050      343.291       19.295      859.590
06/13/2014  20:28:00     -298.711      -91.783      -21.990      187.570      132.051       55.855    35182.526    17437.372     3119.786        7.693        2.787      312.493       56.637        0.033      343.291       19.295      859.579
06/13/2014  20:29:00     -296.846        0.961      -10.286      162.555      122.544       85.788    26424.207    15017.001     7359.641        6.850        2.440      296.848       92.554        0.097      343.272       19.264      859.575
06/13/2014  20:30:00     -320.971      -53.109      -11.902      141.628      118.944       73.072    20058.543    14147.769     5339.475        7.276        1.977      325.335       75.004        0.053      343.235       19.198      859.588
06/13/2014  20:31:00     -313.205      -27.570       -9.798      149.263      105.657       65.930    22279.496    11163.382     4346.753        6.836        1.889      314.416       75.852        0.058      343.213       19.162      859.578
06/13/2014  20:32:00     -228.388      -41.778        8.845      145.590      110.832       71.060    21196.522    12283.652     5049.549        4.625        1.926      232.177       65.185        0.079      343.211       19.160      859.583
06/13/2014  20:33:00     -218.545      -71.633       -3.422      186.831      116.871       69.768    34905.911    13658.851     4867.638        5.316        2.672      229.985       71.531        0.097      343.264       19.251      859.577
06/13/2014  20:34:00     -303.156     -134.116       -6.216      102.434       93.439       54.029    10492.730     8730.761     2919.179        6.603        1.107      331.498       47.129        0.020      343.177       19.100      859.587
06/13/2014  20:35:00     -203.094      -56.118        4.600      142.488      112.180       76.467    20302.751    12584.247     5847.160        4.157        1.937      210.704       86.919        0.170      343.183       19.113      859.574
06/13/2014  20:36:00     -188.065      -40.571        5.521      120.922       86.224       59.206    14622.213     7434.572     3505.382        3.130        1.278      192.391       72.112        0.140      343.143       19.043      859.598
06/13/2014  20:37:00     -284.310       -8.952      -31.882      132.465       95.450       57.546    17547.058     9110.781     3311.580        5.594        1.498      284.451       49.633        0.030      343.135       19.029      859.596
06/13/2014  20:38:00     -332.116      -46.743      -13.400      136.258      108.667       57.551    18566.128    11808.560     3312.119        7.317        1.684      335.389       62.649        0.035      343.080       18.935      859.594
06/13/2014  20:39:00     -309.889      -73.218      -18.038      139.091      113.577       58.151    19346.244    12899.649     3381.511        6.867        1.781      318.421       61.320        0.037      343.064       18.909      859.592
06/13/2014  20:40:00     -139.945      -18.824        8.593      101.038       92.560       50.547    10208.624     8567.353     2555.040        2.067        1.067      141.205       34.085        0.058      343.044       18.877      859.591
06/13/2014  20:41:00     -261.980      -36.411      -14.282       99.445       98.007       46.932     9889.333     9605.278     2202.569        4.593        1.085      264.498       41.154        0.024      343.042       18.870      859.596
06/13/2014  20:42:00     -232.663      -21.313       -4.560      104.052       95.431       58.377    10826.845     9107.031     3407.840        3.897        1.167      233.637       60.031        0.066      343.043       18.874      859.576
06/13/2014  20:43:00     -349.978      -55.797      -19.985      122.204       85.793       57.055    14933.696     7360.416     3255.312        7.577        1.277      354.398       52.701        0.022      343.028       18.848      859.583
06/13/2014  20:44:00     -360.841      -36.625      -16.525      129.024      112.871       59.204    16647.133    12739.852     3505.099        8.235        1.645      362.695       54.514        0.023      342.969       18.745      859.589
06/13/2014  20:45:00     -278.483      -75.560       10.904      149.277      127.636       65.283    22283.735    16290.823     4261.858        6.310        2.142      288.552       67.293        0.054      342.950       18.717      859.589
06/13/2014  20:46:00     -248.527      -83.327        8.090      123.862      103.591       61.695    15341.779    10731.081     3806.271        4.932        1.494      262.124       66.120        0.064      342.973       18.754      859.604
06/13/2014  20:47:00     -233.232      -18.644       -0.908      119.652       87.617       52.720    14316.664     7676.796     2779.369        3.975        1.239      233.976       57.941        0.061      342.928       18.678      859.620
06/13/2014  20:48:00     -199.013      -69.153       -6.346       78.090       84.971       49.542     6098.072     7219.992     2454.422        3.010        0.789      210.685       42.226        0.040      342.956       18.725      859.628
06/13/2014  20:49:00     -336.404      -25.734      -11.261      134.185      110.132       59.568    18005.664    12129.075     3548.323        7.381        1.684      337.387       54.581        0.026      342.903       18.635      859.649
06/13/2014  20:50:00     -246.945     -115.195       -2.504      151.749      124.529       62.634    23027.812    15507.471     3923.036        5.835        2.123      272.492       73.813        0.073      342.934       18.688      859.633
06/13/2014  20:51:00     -183.957      -60.394        3.629      152.709      122.358       74.850    23320.178    14971.564     5602.523        4.069        2.195      193.617       72.382        0.140      342.917       18.659      859.641
06/13/2014  20:52:00     -301.094     -131.777       -2.369      156.864      112.383       71.146    24606.444    12629.907     5061.740        7.515        2.115      328.668       79.406        0.058      342.904       18.637      859.647
06/13/2014  20:53:00     -263.674      -46.583      -17.762      108.087       83.818       55.007    11682.757     7025.465     3025.745        4.687        1.087      267.757       41.395        0.024      342.944       18.705      859.670
06/13/2014  20:54:00     -262.019     -156.241        5.899      164.051      163.335       88.908    26912.706    26678.233     7904.618        7.729        3.075      305.066       82.386        0.073      342.906       18.641      859.668
06/13/2014  20:55:00     -292.678     -136.464       -6.196      159.465      113.847       67.864    25429.079    12961.213     4605.560        7.365        2.150      322.929       79.072        0.060      342.891       18.615      859.691
06/13/2014  20:56:00     -266.873      -86.293        0.987      112.368       90.376       53.446    12626.562     8167.742     2856.453        5.116        1.183      280.478       53.874        0.037      342.866       18.573      859.713
06/13/2014  20:57:00     -244.234      -79.334       -4.519      129.703      105.362       56.635    16822.833    11101.209     3207.559        4.854        1.557      256.796       59.104        0.053      342.867       18.574      859.743
06/13/2014  20:58:00     -166.711      -39.275       14.790      129.574       96.860       63.190    16789.359     9381.784     3993.033        2.985        1.508      171.275       66.812        0.152      342.883       18.602      859.742
06/13/2014  20:59:00     -273.966     -101.035       -3.823      140.757      104.221       65.416    19812.585    10861.961     4279.218        6.011        1.748      292.002       47.362        0.026      342.848       18.543      859.770
06/13/2014  21:00:00     -215.642      -36.548        1.722      113.652       93.336       51.985    12916.734     8711.700     2702.438        3.608        1.217      218.717       51.860        0.056      342.786       18.439      859.794
06/13/2014  21:01:00     -138.946      -51.302        3.827       78.883       86.428       40.233     6222.483     7469.852     1618.709        1.863        0.766      148.115       36.104        0.059      342.833       18.518      859.820
06/13/2014  21:02:00     -192.733      -62.020       -0.458      138.881      125.477       65.784    19288.063    15744.449     4327.499        4.017        1.968      202.466       71.751        0.126      342.788       18.440      859.827
06/13/2014  21:03:00     -291.626     -222.589      -10.238      156.960      137.226       78.594    24636.438    18830.940     6176.982        9.216        2.482      366.867       74.577        0.041      342.767       18.404      859.830
06/13/2014  21:04:00     -168.286     -141.543        4.850      145.514      139.795       70.192    21174.215    19542.708     4926.949        4.700        2.282      219.897       77.177        0.123      342.733       18.346      859.843
06/13/2014  21:05:00     -205.002      -91.951        3.286      110.681       98.387       58.429    12250.193     9680.018     3413.913        3.791        1.267      224.680       61.853        0.076      342.726       18.335      859.867
06/13/2014  21:06:00     -220.092     -157.754       -5.835      138.681       91.010       61.539    19232.435     8282.883     3787.034        5.233        1.565      270.789       70.476        0.068      342.720       18.324      859.887
06/13/2014  21:07:00     -245.620     -165.469        9.774      164.272      142.153       81.584    26985.158    20207.425     6655.998        7.082        2.692      296.157       85.698        0.084      342.691       18.273      859.900
06/13/2014  21:08:00     -311.912      -31.722      -21.146      127.217       96.908       64.162    16184.159     9391.158     4116.799        6.421        1.485      313.521       70.855        0.051      342.684       18.262      859.935
06/13/2014  21:09:00     -196.435     -129.457        0.982      156.460      101.553       63.515    24479.837    10313.035     4034.200        4.708        1.941      235.257       71.046        0.091      342.668       18.236      859.958
06/13/2014  21:10:00     -207.533     -100.149        4.487      180.599       97.335       68.187    32616.083     9474.075     4649.513        4.992        2.337      230.434       77.003        0.112      342.662       18.225      859.966
06/13/2014  21:11:00     -169.646      -85.082       -1.447       96.305       87.547       50.915     9274.583     7664.427     2592.340        2.777        0.977      189.786       51.582        0.074      342.636       18.182      859.993
06/13/2014  21:12:00     -129.221     -106.171       -4.034      124.243      116.183       69.610    15436.258    13498.529     4845.572        3.088        1.689      167.243       70.294        0.177      342.614       18.144      859.998
06/13/2014  21:13:00     -158.586     -123.219        7.645      150.725      101.349       78.528    22718.008    10271.713     6166.716        3.977        1.958      200.830       88.823        0.196      342.599       18.118      860.020
06/13/2014  21:14:00     -199.758      -55.796        3.778      138.314       94.422       53.144    19130.717     8915.585     2824.271        3.694        1.544      207.404       67.528        0.106      342.588       18.101      860.047
06/13/2014  21:15:00     -300.370     -111.665      -18.083      111.598       81.788       55.277    12454.057     6689.252     3055.591        6.260        1.110      320.455       56.698        0.031      342.577       18.081      860.057
06/13/2014  21:16:00     -174.094     -104.087      -20.717      127.046       80.317       52.024    16140.576     6450.786     2706.539        3.343        1.265      202.837       56.298        0.077      342.577       18.082      860.081
06/13/2014  21:17:00     -197.144     -137.446       12.123      150.251      115.368       71.297    22575.500    13309.802     5083.318        4.943        2.048      240.327       64.626        0.072      342.539       18.018      860.084
06/13/2014  21:18:00     -342.169     -167.259       -6.703      161.471      117.728       83.369    26072.772    13859.868     6950.372        9.598        2.344      380.862       91.054        0.057      342.506       17.962      860.101
06/13/2014  21:19:00     -269.336     -148.705      -10.073      154.083      136.372       81.876    23741.617    18597.453     6703.758        7.189        2.452      307.661       93.342        0.092      342.503       17.955      860.097
06/13/2014  21:20:00     -309.102      -85.155       -0.962      157.715      118.444       62.000    24874.073    14028.997     3843.949        7.276        2.137      320.617       71.326        0.049      342.445       17.855      860.124
06/13/2014  21:21:00     -198.025     -126.258       -2.980      150.301       96.742       74.156    22590.277     9359.099     5499.061        4.630        1.872      234.851       75.187        0.102      342.475       17.908      860.138
06/13/2014  21:22:00     -254.163     -107.443        2.281      159.077      116.131       60.517    25305.541    13486.372     3662.311        5.929        2.123      275.940       72.779        0.070      342.455       17.874      860.148
06/13/2014  21:23:00     -222.752     -152.100        3.597      193.611      147.645       93.169    37485.147    21799.055     8680.442        7.035        3.398      269.728      114.488        0.180      342.450       17.867      860.145
06/13/2014  21:24:00     -275.754     -151.865        7.961      162.868      127.026       92.731    26525.918    16135.604     8599.062        7.520        2.563      314.806      103.333        0.108      342.440       17.847      860.167
06/13/2014  21:25:00     -229.770      -79.373       -2.676      145.594      100.806       68.136    21197.509    10161.859     4642.475        4.754        1.800      243.094       75.184        0.096      342.412       17.801      860.167
06/13/2014  21:26:00      -98.978      -84.202        6.951      137.977      136.569       78.303    19037.726    18651.027     6131.404        3.037        2.191      129.949       77.460        0.355      342.434       17.838      860.177
06/13/2014  21:27:00     -232.872     -119.742       -4.571      139.242      108.828       67.022    19388.381    11843.558     4491.925        5.215        1.786      261.854       64.039        0.060      342.400       17.780      860.195
06/13/2014  21:28:00     -297.065     -170.905      -10.915      131.523      109.349       66.380    17298.173    11957.295     4406.299        7.561        1.683      342.718       69.432        0.041      342.384       17.753      860.209
06/13/2014  21:29:00     -140.068      -47.472       22.486      130.583      114.286       67.821    17051.999    13061.400     4599.622        2.854        1.736      147.894       68.792        0.216      342.355       17.705      860.207
06/13/2014  21:30:00     -266.907     -144.323      -10.926      113.586      102.063       54.322    12901.776    10416.851     2950.834        5.922        1.313      303.428       48.637        0.026      342.358       17.707      860.232
06/13/2014  21:31:00     -273.338     -101.806      -11.818      153.404      116.181       62.689    23532.851    13498.066     3929.939        6.308        2.048      291.681       77.451        0.071      342.341       17.679      860.248
06/13/2014  21:32:00     -326.228     -159.625      -13.886      168.756      140.044       70.823    28478.729    19612.383     5015.961        9.259        2.655      363.187       80.159        0.049      342.309       17.626      860.271
06/13/2014  21:33:00     -210.836      -71.166       -8.286      144.677      146.600       77.941    20931.393    21491.656     6074.797        4.903        2.425      222.523       87.659        0.155      342.314       17.633      860.278
06/13/2014  21:34:00     -276.077     -145.261       -6.249       97.916      106.270       55.620     9587.575    11293.244     3093.573        6.066        1.199      311.961       51.102        0.027      342.303       17.613      860.296
06/13/2014  21:35:00     -289.140      -84.740       -7.887      135.527       97.403       55.341    18367.560     9487.358     3062.579        6.088        1.546      301.302       59.734        0.039      342.273       17.564      860.302
06/13/2014  21:36:00     -258.982     -193.597       -1.068      167.317      140.604       75.010    27995.121    19769.506     5626.534        7.896        2.670      323.344       88.961        0.076      342.289       17.591      860.310
06/13/2014  21:37:00     -254.524     -165.686       -8.719      153.632      108.120       65.654    23602.717    11689.958     4310.485        6.595        1.980      303.700       64.992        0.046      342.302       17.614      860.313
06/13/2014  21:38:00     -308.768     -141.419      -29.294      132.524      117.816       58.746    17562.569    13880.586     3451.109        7.554        1.745      339.613       56.150        0.027      342.296       17.604      860.336
06/13/2014  21:39:00     -267.419     -119.143       -0.143      186.152      103.157       69.834    34652.425    10641.461     4876.755        6.793        2.509      292.759       82.867        0.080      342.285       17.585      860.335
06/13/2014  21:40:00     -329.843     -176.071      -13.102      182.920      130.308       87.087    33459.673    16980.253     7584.130        9.899        2.901      373.896       86.409        0.053      342.213       17.462      860.350
06/13/2014  21:41:00     -372.266      -56.609      -24.302      224.177      121.178       79.972    50255.237    14684.016     6395.496       10.684        3.567      376.546      104.618        0.077      342.213       17.463      860.364
06/13/2014  21:42:00     -209.842      -50.219        7.304      161.007      120.089       76.874    25923.185    14421.392     5909.554        4.642        2.313      215.767       78.865        0.134      342.237       17.504      860.380
06/13/2014  21:43:00     -301.817     -144.018      -22.093      160.296      106.195       68.639    25694.941    11277.398     4711.299        7.700        2.084      334.417       62.644        0.035      342.228       17.488      860.387
06/13/2014  21:44:00     -243.557      -92.429      -20.611      142.118       97.411       59.767    20197.649     9488.839     3572.046        5.077        1.663      260.506       33.137        0.016      342.232       17.495      860.414
06/13/2014  21:45:00     -246.065      -91.056       -1.716      130.208       95.073       47.639    16954.189     9038.931     2269.472        4.855        1.413      262.372       57.606        0.048      342.226       17.485      860.437
06/13/2014  21:46:00     -204.270      -99.159        3.458      136.487       81.163       59.484    18628.599     6587.419     3538.300        4.016        1.438      227.066       61.304        0.073      342.212       17.461      860.443
06/13/2014  21:47:00     -192.934      -70.059       -2.150      105.439       91.281       48.162    11117.284     8332.259     2319.560        3.195        1.088      205.260       32.950        0.026      342.209       17.457      860.463
06/13/2014  21:48:00     -367.708      -73.529      -14.787      131.877       96.631       55.614    17391.638     9337.487     3092.879        8.532        1.491      374.987       57.047        0.023      342.153       17.359      860.466
06/13/2014  21:49:00     -250.518      -41.285       -1.632      101.596       92.606       47.582    10321.833     8575.873     2264.013        4.281        1.058      253.897       47.035        0.034      342.127       17.317      860.477
06/13/2014  21:50:00     -132.922      -53.126       -9.668       77.422       74.446       43.594     5994.150     5542.181     1900.428        1.701        0.672      143.145       40.425        0.080      342.152       17.361      860.483
06/13/2014  21:51:00     -207.889      -62.131       -5.622      100.623       87.167       52.500    10124.898     7598.055     2756.279        3.379        1.024      216.975       41.118        0.036      342.147       17.350      860.502
06/13/2014  21:52:00     -240.671     -100.885       -5.040      108.077       99.515       57.598    11680.542     9903.195     3317.552        4.651        1.245      260.961       57.276        0.048      342.111       17.288      860.531
06/13/2014  21:53:00     -251.920      -89.458       -3.244      124.656       83.176       51.806    15539.068     6918.259     2683.880        4.830        1.257      267.332       61.555        0.053      342.145       17.348      860.545
06/13/2014  21:54:00     -185.302     -104.748       -1.098      127.688       93.723       52.798    16304.135     8784.023     2787.624        3.659        1.394      212.859       63.829        0.090      342.124       17.313      860.566
06/13/2014  21:55:00     -188.382     -117.758       -2.645       70.643       84.364       41.690     4990.489     7117.250     1738.066        3.160        0.692      222.159       15.319        0.005      342.127       17.318      860.577
06/13/2014  21:56:00     -166.164      -99.167        3.223      126.970      107.617       64.463    16121.455    11581.445     4155.525        3.465        1.593      193.506       61.475        0.101      342.074       17.228      860.596
06/13/2014  21:57:00     -173.546      -76.618       -3.105      108.963       86.135       43.341    11872.928     7419.200     1878.464        2.858        1.059      189.707       50.099        0.070      342.076       17.230      860.606
06/13/2014  21:58:00     -240.010      -79.744       -9.678       83.633       89.183       47.981     6994.487     7953.529     2302.137        4.065        0.863      252.911       47.227        0.035      342.042       17.172      860.614
06/13/2014  21:59:00     -227.355        0.333        1.815      110.021       93.288       46.837    12104.700     8702.618     2193.741        3.734        1.150      227.355       51.639        0.052      341.998       17.098      860.629
06/13/2014  22:00:00     -243.615      -20.921       -6.659      116.918       71.986       54.179    13669.782     5182.004     2935.360        4.080        1.089      244.512       64.262        0.069      341.958       17.028      860.636
06/13/2014  22:01:00     -222.466      -61.932      -10.687      104.690       80.702       39.523    10960.055     6512.776     1562.051        3.623        0.952      230.926       36.528        0.025      341.996       17.093      860.638
06/13/2014  22:02:00      -48.904      -35.374       30.089      112.072       88.394       61.604    12560.107     7813.507     3795.071        1.435        1.208       60.357       70.418        1.361      341.932       16.989      860.652
06/13/2014  22:03:00     -231.235      -39.620      -12.287      119.245       89.815       48.860    14219.399     8066.792     2387.290        3.993        1.234      234.605       41.928        0.032      341.990       17.083      860.674
06/13/2014  22:04:00     -219.122      -31.127      -11.677      118.854       74.461       53.755    14126.215     5544.381     2889.602        3.584        1.128      221.322       60.316        0.074      341.987       17.079      860.680
06/13/2014  22:05:00     -206.153      -99.214      -15.528       71.007       81.360       44.885     5042.062     6619.502     2014.692        3.313        0.684      228.785       46.155        0.041      342.000       17.100      860.690
06/13/2014  22:06:00     -139.608      -10.474       15.889      107.682       85.063       55.527    11595.494     7235.680     3083.251        2.088        1.096      140.000       53.123        0.144      341.902       16.936      860.707
06/13/2014  22:07:00     -238.601      -22.069      -14.284       96.523       71.321       44.185     9316.673     5086.709     1952.329        3.699        0.818      239.620       50.254        0.044      341.949       17.013      860.726
06/13/2014  22:08:00     -220.621      -52.563       -7.166       99.532       76.959       46.746     9906.631     5922.722     2185.154        3.475        0.901      226.796       49.413        0.047      341.890       16.912      860.750
06/13/2014  22:09:00     -242.477      -51.178        2.886      104.426       72.557       44.685    10904.869     5264.570     1996.718        3.979        0.908      247.819       41.305        0.028      341.883       16.903      860.783
06/13/2014  22:10:00     -247.416       -2.723      -12.664       99.502       77.546       50.139     9900.590     6013.433     2513.947        3.990        0.921      247.431       57.498        0.054      341.934       16.988      860.781
06/13/2014  22:11:00     -151.990       18.488      -10.998       61.623       65.970       38.320     3797.337     4351.979     1468.433        1.659        0.481      153.110       34.643        0.051      341.964       17.041      860.780
06/13/2014  22:12:00     -213.268      -10.711      -17.700       64.812       58.784       34.388     4200.557     3455.596     1182.554        2.737        0.442      213.537       27.371        0.016      341.917       16.961      860.798
06/13/2014  22:13:00     -240.162       13.272      -30.086       95.394       57.611       37.061     9099.960     3319.028     1373.520        3.627        0.690      240.529       40.736        0.029      341.924       16.971      860.823
06/13/2014  22:14:00     -225.603      -35.237      -11.237      100.375       86.425       46.792    10075.143     7469.203     2189.523        3.600        0.987      228.339       50.690        0.049      341.901       16.932      860.835
06/13/2014  22:15:00     -193.844      -73.257       -5.036      104.954       94.867       56.230    11015.393     8999.704     3161.764        3.307        1.159      207.225       52.829        0.065      341.910       16.948      860.828
06/13/2014  22:16:00     -209.581      -78.230      -13.825       87.774       73.449       35.685     7704.323     5394.709     1273.399        3.230        0.719      223.706       25.567        0.013      341.878       16.894      860.835
06/13/2014  22:17:00     -150.741      -48.430       -7.476       82.670       49.809       33.430     6834.345     2480.937     1117.596        1.778        0.522      158.329       27.591        0.030      341.862       16.867      860.851
06/13/2014  22:18:00     -231.581      -53.658      -24.664       79.417       64.612       38.180     6307.117     4174.760     1457.680        3.453        0.597      237.716       21.564        0.008      341.841       16.829      860.857
06/13/2014  22:19:00     -160.322      -90.940       -8.174       81.317       81.635       35.527     6612.504     6664.308     1262.152        2.429        0.727      184.318       36.085        0.038      341.845       16.837      860.855
06/13/2014  22:20:00     -313.444      -73.970      -17.558       82.713       55.886       41.593     6841.486     3123.239     1729.986        5.786        0.585      322.054       38.696        0.014      341.882       16.898      860.864
06/13/2014  22:21:00     -210.447      -29.102      -17.117       53.036       44.401       34.640     2812.771     1971.475     1199.900        2.570        0.299      212.450       33.033        0.024      341.836       16.823      860.877
06/13/2014  22:22:00     -195.632        9.321      -20.228       48.017       45.549       28.425     2305.632     2074.723      807.957        2.198        0.259      195.854       15.206        0.006      341.837       16.826      860.882
06/13/2014  22:23:00     -165.418      -34.339      -16.547       41.895       37.076       24.385     1755.176     1374.662      594.640        1.627        0.186      168.945       24.567        0.021      341.820       16.797      860.881
06/13/2014  22:24:00     -126.920        6.257       -5.753       41.352       45.241       25.288     1709.970     2046.709      639.490        1.029        0.220      127.074       22.965        0.033      341.848       16.845      860.884
06/13/2014  22:25:00     -132.348      -26.086       -5.558       62.490       63.665       26.413     3904.999     4053.194      697.656        1.344        0.433      134.895       16.942        0.016      341.805       16.771      860.884
06/13/2014  22:26:00     -112.618        3.561      -24.252       32.655       57.671       27.770     1066.358     3325.957      771.167        0.922        0.258      112.674       14.504        0.017      341.828       16.812      860.880
06/13/2014  22:27:00      -48.284       -3.358        0.971       79.122       62.049       39.037     6260.295     3850.122     1523.919        0.699        0.582       48.400       42.755        0.780      341.757       16.691      860.883
06/13/2014  22:28:00     -144.490      -30.705      -15.638       57.607       41.447       33.378     3318.518     1717.889     1114.067        1.411        0.308      147.717       32.359        0.048      341.745       16.670      860.885
06/13/2014  22:29:00     -188.124      -36.816      -20.030       52.132       43.512       29.045     2717.739     1893.260      843.615        2.130        0.273      191.692       27.726        0.021      341.700       16.592      860.890
06/13/2014  22:30:00     -174.534      -51.851      -19.601       57.671       50.816       31.837     3325.925     2582.276     1013.575        2.023        0.346      182.073       26.670        0.021      341.695       16.585      860.899
06/13/2014  22:31:00     -178.216      -41.098       -6.859      108.816       68.033       47.308    11840.932     4628.444     2238.073        2.610        0.935      182.893       49.991        0.075      341.650       16.508      860.913
06/13/2014  22:32:00     -193.804       -9.599       -6.944       64.749       64.807       33.535     4192.390     4199.926     1124.568        2.361        0.476      194.042       21.695        0.013      341.744       16.667      860.919
06/13/2014  22:33:00     -205.580       -8.653      -20.345       66.920       70.020       32.490     4478.276     4902.775     1055.629        2.659        0.522      205.762       26.367        0.016      341.705       16.602      860.931
06/13/2014  22:34:00     -149.485       -9.079      -20.606       48.108       51.517       29.610     2314.378     2654.034      876.754        1.435        0.292      149.761       20.631        0.019      341.716       16.622      860.946
06/13/2014  22:35:00     -123.970        0.800      -24.269       37.429       42.439       25.140     1400.951     1801.072      631.995        0.990        0.192      123.973       15.734        0.016      341.693       16.586      860.963
06/13/2014  22:36:00      -39.483      -23.720        2.716       46.788       32.938       29.244     2189.123     1084.914      855.194        0.313        0.206       46.061       26.763        0.338      341.641       16.495      860.978
06/13/2014  22:37:00      -63.642       47.983      -12.250       45.332       40.506       25.636     2054.952     1640.700      657.223        0.543        0.218       79.704       30.796        0.149      341.689       16.576      860.997
06/13/2014  22:38:00      -78.970      133.438      -20.365       42.996       55.754       31.378     1848.672     3108.538      984.606        1.520        0.297      155.055       27.937        0.032      341.614       16.448      861.020
06/13/2014  22:39:00      -76.526      145.911      -21.862       42.259       45.622       30.542     1785.827     2081.362      932.800        1.621        0.240      164.762       28.342        0.030      341.637       16.488      861.044
06/13/2014  22:40:00      -21.907      119.559      -23.000       52.738       26.511       19.465     2781.255      702.811      378.884        0.958        0.193      121.549       15.109        0.015      341.668       16.540      861.072
06/13/2014  22:41:00       -1.726      158.235      -29.210       30.364       27.496       14.063      921.969      756.004      197.776        1.388        0.094      158.244       14.464        0.008      341.675       16.553      861.088
06/13/2014  22:42:00       17.971       96.120      -15.751       30.364       21.379       14.732      921.998      457.054      217.017        0.570        0.080       97.786       12.644        0.017      341.580       16.388      861.102
06/13/2014  22:43:00      -21.050      110.402      -15.626       45.057       53.004       25.547     2030.094     2809.396      652.673        0.918        0.275      112.390       30.707        0.075      341.627       16.472      861.112
06/13/2014  22:44:00      -26.228       85.573      -10.251       42.090       52.535       24.351     1771.588     2759.960      592.964        0.662        0.256       89.502       28.657        0.103      341.560       16.357      861.117
06/13/2014  22:45:00      -40.162      113.517      -11.589       48.989       54.904       29.731     2399.881     3014.469      883.904        1.046        0.315      120.412       32.521        0.073      341.570       16.373      861.124
06/13/2014  22:46:00      -13.550      135.438      -30.980       46.100       49.317       24.130     2125.212     2432.176      582.257        1.231        0.257      136.114       18.068        0.018      341.526       16.298      861.133
06/13/2014  22:47:00      -67.484      126.758      -23.997       39.893       46.510       28.477     1591.422     2163.203      810.963        1.288        0.228      143.603       26.571        0.034      341.545       16.330      861.147
06/13/2014  22:48:00      -53.446       96.254      -11.100       37.460       50.204       24.539     1403.248     2520.393      602.163        0.838        0.226      110.097       20.518        0.035      341.524       16.297      861.152
06/13/2014  22:49:00        4.958      129.163      -23.751       43.203       44.975       21.150     1866.521     2022.752      447.338        1.080        0.217      129.258       21.006        0.026      341.536       16.317      861.163
06/13/2014  22:50:00       47.431      240.049      -38.103       51.789       55.564       31.151     2682.114     3087.330      970.378        3.403        0.337      244.690       30.898        0.016      341.596       16.413      861.163
06/13/2014  22:51:00      -51.714      109.627      -16.749       41.382       62.124       31.595     1712.429     3859.357      998.237        1.077        0.329      121.213       33.390        0.076      341.573       16.380      861.155
06/13/2014  22:52:00      -41.023      116.126      -14.522       33.579       42.356       22.313     1127.559     1794.050      497.888        0.940        0.171      123.159       24.257        0.039      341.632       16.477      861.153
06/13/2014  22:53:00      -89.633       89.495      -18.411       37.399       37.004       24.222     1398.679     1369.323      586.682        0.987        0.168      126.662       17.809        0.020      341.663       16.534      861.151
06/13/2014  22:54:00      -75.853       29.409        1.159       56.348       36.614       24.872     3175.117     1340.589      618.599        0.588        0.257       81.355       33.409        0.169      341.621       16.462      861.147
06/13/2014  22:55:00      -40.698       41.212       -6.962       35.688       29.550       19.376     1273.632      873.197      375.436        0.296        0.126       57.920       22.530        0.151      341.696       16.590      861.140
06/13/2014  22:56:00      -50.359       70.676       -9.364       46.299       35.908       29.320     2143.630     1289.376      859.683        0.595        0.215       86.782       29.417        0.115      341.742       16.666      861.132
06/13/2014  22:57:00     -101.602       84.580      -16.885       28.821       49.560       18.535      830.674     2456.169      343.545        1.070        0.182      132.200       19.677        0.022      341.722       16.631      861.121
06/13/2014  22:58:00      -64.455       64.720      -15.732       24.462       26.120       17.770      598.369      682.271      315.772        0.509        0.080       91.341       14.144        0.024      341.711       16.615      861.118
06/13/2014  22:59:00     -115.720      102.065      -28.366       39.497       39.145       24.690     1560.028     1532.299      609.619        1.416        0.185      154.300       21.056        0.019      341.766       16.707      861.122
06/13/2014  23:00:00      -55.963       97.738      -16.254       23.123       37.122       19.572      534.683     1378.076      383.059        0.762        0.115      112.625       12.997        0.013      341.796       16.757      861.108
06/13/2014  23:01:00      -55.356       73.544      -13.903       19.969       30.203       15.538      398.755      912.213      241.444        0.511        0.078       92.049       10.478        0.013      341.763       16.703      861.097
06/13/2014  23:02:00      -75.180       72.584       -9.181       31.446       57.164       23.770      988.823     3267.763      565.001        0.791        0.241      104.501       27.825        0.071      341.761       16.697      861.081
06/13/2014  23:03:00      -85.962       99.683      -18.053       28.936       40.356       16.720      837.318     1628.628      279.547        1.020        0.137      131.629       13.775        0.011      341.737       16.658      861.071
06/13/2014  23:04:00      -51.402       99.751      -10.480       30.300       43.494       20.274      918.063     1891.749      411.043        0.796        0.161      112.216       12.848        0.013      341.683       16.566      861.063
06/13/2014  23:05:00      -57.484       53.690      -10.715       22.867       25.243       16.990      522.912      637.209      288.662        0.388        0.072       78.657       13.711        0.030      341.704       16.601      861.070
06/13/2014  23:06:00      -57.678        9.443       -1.045       37.408       37.494       19.746     1399.366     1405.785      389.923        0.331        0.160       58.446       19.497        0.111      341.679       16.560      861.083
06/13/2014  23:07:00      -79.469       68.670      -12.287       34.885       52.053       29.117     1216.993     2709.511      847.784        0.798        0.239      105.028       33.682        0.103      341.661       16.529      861.092
06/13/2014  23:08:00     -111.416       90.334      -23.169       46.361       34.755       26.397     2149.310     1207.919      696.778        1.258        0.203      143.436       27.443        0.037      341.572       16.378      861.087
06/13/2014  23:09:00     -103.769       29.820       -9.147       32.001       34.848       26.583     1024.093     1214.413      706.647        0.734        0.147      107.969       20.003        0.034      341.634       16.484      861.087
06/13/2014  23:10:00      -77.043        5.034      -12.114       31.826       26.724       22.046     1012.907      714.193      486.006        0.416        0.111       77.207       16.210        0.044      341.630       16.474      861.076
06/13/2014  23:11:00      -97.647       52.211      -20.644       35.281       35.774       22.859     1244.716     1279.798      522.543        0.787        0.152      110.729        5.199        0.002      341.573       16.379      861.078
06/13/2014  23:12:00      -43.908      -21.006       -8.700       33.776       27.026       18.192     1140.794      730.393      330.958        0.232        0.110       48.674       16.684        0.117      341.588       16.404      861.084
06/13/2014  23:13:00      -54.811       -1.146       -8.170       36.092       27.661       24.458     1302.608      765.135      598.172        0.287        0.133       54.823       20.037        0.134      341.446       16.165      861.110
06/13/2014  23:14:00      -39.621       33.134       -1.910       29.232       34.743       18.093      854.512     1207.049      327.375        0.253        0.119       51.650       20.302        0.155      341.496       16.250      861.124
06/13/2014  23:15:00      -55.993       85.250       -7.260       28.653       36.873       25.292      821.003     1359.635      639.665        0.664        0.141      101.994       19.271        0.036      341.378       16.050      861.145
06/13/2014  23:16:00      -71.276      133.506      -19.822       24.893       38.295       21.897      619.648     1466.492      479.487        1.293        0.128      151.341       11.904        0.006      341.344       15.991      861.163
06/13/2014  23:17:00      -47.503       53.308       -5.598       27.121       35.463       22.668      735.553     1257.628      513.845        0.382        0.125       71.402       19.108        0.072      341.250       15.832      861.180
06/13/2014  23:18:00      -88.707      109.376      -26.077       34.591       51.668       22.707     1196.532     2669.599      515.626        1.245        0.219      140.826       20.599        0.021      341.187       15.725      861.195
06/13/2014  23:19:00     -112.388       57.632      -11.014       45.832       33.313       32.702     2100.577     1109.788     1069.400        1.018        0.214      126.303       28.568        0.051      341.251       15.833      861.219
06/13/2014  23:20:00     -103.289      108.117      -23.650       59.065       61.537       30.735     3488.709     3786.831      944.613        1.557        0.411      149.526       36.291        0.059      341.178       15.711      861.239
06/13/2014  23:21:00      -73.887       55.737       -5.796       36.143       35.882       28.392     1306.347     1287.537      806.111        0.600        0.170       92.552       22.204        0.058      341.254       15.840      861.251
06/13/2014  23:22:00      -92.413      119.100      -24.967       33.097       46.189       22.862     1095.441     2133.467      522.652        1.355        0.188      150.748       19.615        0.017      341.207       15.761      861.260
06/13/2014  23:23:00      -76.168       90.001      -18.848       39.586       28.477       21.379     1567.014      810.937      457.079        0.855        0.142      117.906       22.389        0.036      341.156       15.672      861.264
06/13/2014  23:24:00      -77.139       98.964      -26.948       50.265       31.715       21.762     2526.527     1005.848      473.564        1.024        0.200      125.476       25.706        0.042      341.200       15.747      861.275
06/13/2014  23:25:00      -83.186       81.628      -18.210       69.119       38.969       21.331     4777.452     1518.612      455.006        1.033        0.338      116.546       10.490        0.008      341.307       15.928      861.268
06/13/2014  23:26:00      -71.748       49.458      -19.856       15.331       32.927       18.721      235.043     1084.218      350.463        0.483        0.083       87.143       12.820        0.022      341.301       15.918      861.273
06/13/2014  23:27:00      -91.336       79.475      -14.646       38.862       44.663       23.495     1510.263     1994.803      552.023        0.946        0.203      121.072       20.312        0.028      341.294       15.909      861.279
06/13/2014  23:28:00      -89.408      101.054      -23.433       44.104       33.587       24.696     1945.196     1128.085      609.877        1.122        0.184      134.928       23.525        0.030      341.246       15.826      861.284
06/13/2014  23:29:00      -84.454       78.646      -19.732       33.255       33.251       22.353     1105.871     1105.632      499.639        0.821        0.136      115.402       18.025        0.024      341.267       15.861      861.279
06/13/2014  23:30:00      -81.510       71.388      -23.554       28.417       37.823       17.669      807.523     1430.565      312.188        0.742        0.128      108.352       21.107        0.038      341.277       15.878      861.268
06/13/2014  23:31:00      -48.791       90.725      -14.990       43.865       46.638       29.641     1924.158     2175.146      878.568        0.791        0.249      103.012       22.578        0.048      341.199       15.746      861.267
06/13/2014  23:32:00      -21.115      170.181      -27.715       23.449       27.988       21.222      549.866      783.307      450.360        1.598        0.089      171.486       16.359        0.009      341.215       15.773      861.259
06/13/2014  23:33:00      -30.891      192.801      -27.588       41.500       56.152       27.134     1722.221     3153.042      736.240        2.225        0.281      195.260       31.987        0.027      341.128       15.623      861.256
06/13/2014  23:34:00      -61.708      147.933      -10.402       51.015       68.438       34.705     2602.544     4683.738     1204.436        1.714        0.425      160.288       21.461        0.018      341.119       15.608      861.244
06/13/2014  23:35:00      -62.202      140.693      -20.732       64.240       98.339       39.783     4126.794     9670.537     1582.694        1.973        0.769      153.830       45.934        0.089      341.224       15.786      861.242
06/13/2014  23:36:00      -99.888       63.883      -10.765       49.613       48.454       29.784     2461.496     2347.758      887.100        0.993        0.285      118.570       29.638        0.062      341.242       15.819      861.235
06/13/2014  23:37:00     -138.632      131.176      -29.630       60.665       68.111       40.389     3680.290     4639.072     1631.274        2.363        0.498      190.855       42.603        0.050      341.170       15.695      861.240
06/13/2014  23:38:00     -126.303       82.944       -4.473       52.812       52.201       35.448     2789.107     2724.911     1256.542        1.481        0.339      151.103       23.366        0.024      341.097       15.574      861.241
06/13/2014  23:39:00      -86.841       90.751      -15.044       49.646       46.424       30.550     2464.678     2155.164      933.299        1.078        0.278      125.606       24.925        0.039      341.080       15.545      861.224
06/13/2014  23:40:00     -106.097      172.248      -27.234       53.258       74.223       38.245     2836.464     5509.040     1462.670        2.574        0.490      202.301       34.425        0.029      341.019       15.439      861.208
06/13/2014  23:41:00     -136.514      149.664      -19.487       64.359       86.230       43.697     4142.023     7435.532     1909.442        2.745        0.674      202.572       46.786        0.053      341.013       15.429      861.194
06/13/2014  23:42:00     -153.905      152.084      -32.642       65.832       68.421       39.284     4333.889     4681.462     1543.207        2.922        0.528      216.371       45.379        0.044      340.996       15.402      861.202
06/13/2014  23:43:00     -124.069      164.938      -29.485       66.747       66.092       42.775     4455.105     4368.137     1829.661        2.706        0.533      206.392       42.995        0.043      340.981       15.375      861.204
06/13/2014  23:44:00     -165.392      189.302      -31.614       64.033       99.798       40.370     4100.265     9959.664     1629.715        3.994        0.784      251.375       33.465        0.018      340.998       15.403      861.203
06/13/2014  23:45:00     -119.848      162.967      -24.576       65.568       69.487       51.197     4299.123     4828.394     2621.162        2.663        0.587      202.291       39.876        0.039      340.945       15.313      861.210
06/13/2014  23:46:00     -103.707      138.203      -21.875       62.818       65.170       37.824     3946.119     4247.081     1430.645        1.998        0.481      172.786       33.373        0.037      340.930       15.288      861.227
06/13/2014  23:47:00     -116.665      154.740      -25.135       62.064       59.469       41.868     3851.966     3536.560     1752.898        2.366        0.457      193.792       38.595        0.040      340.925       15.279      861.227
06/13/2014  23:48:00     -143.867      205.968      -28.081       61.539       79.702       46.203     3787.060     6352.377     2134.673        3.809        0.614      251.238       44.344        0.031      340.909       15.252      861.231
06/13/2014  23:49:00      -84.694      141.473      -14.991       50.956       59.592       43.943     2596.468     3551.254     1931.024        1.774        0.404      164.887       41.624        0.064      340.923       15.276      861.248
06/13/2014  23:50:00     -139.762      163.498      -29.663       74.868       58.612       41.084     5605.271     3435.368     1687.857        2.893        0.536      215.093       39.548        0.034      340.921       15.273      861.246
06/13/2014  23:51:00      -75.201      102.733      -11.558       47.932       64.282       30.973     2297.493     4132.134      959.322        1.186        0.369      127.315       29.890        0.055      340.961       15.343      861.244
06/13/2014  23:52:00     -118.276      199.253      -31.376       65.043       64.499       41.569     4230.584     4160.164     1728.002        3.239        0.506      231.713       39.044        0.028      340.930       15.287      861.256
06/13/2014  23:53:00     -146.357      216.160      -39.836       69.980       55.797       42.757     4897.159     3113.275     1828.144        3.978        0.492      261.047       41.457        0.025      340.937       15.298      861.255
06/13/2014  23:54:00     -122.420      225.246      -29.330       68.491       89.866       46.511     4691.041     8075.949     2163.267        4.075        0.747      256.363       40.123        0.024      340.978       15.368      861.251
06/13/2014  23:55:00      -82.218      179.688      -13.214       76.618      100.764       53.034     5870.310    10153.307     2812.621        2.903        0.942      197.604       45.060        0.052      340.978       15.371      861.258
06/13/2014  23:56:00      -90.228      146.199      -15.827       66.192       85.467       43.747     4381.317     7304.606     1913.820        2.168        0.680      171.800       43.932        0.065      340.990       15.390      861.269
06/13/2014  23:57:00     -101.538      159.347      -25.966       60.177       95.075       33.930     3621.228     9039.304     1151.216        2.509        0.691      188.948       39.750        0.044      340.991       15.389      861.271
06/13/2014  23:58:00      -84.940      104.867      -18.445       49.281       59.766       28.899     2428.616     3571.976      835.167        1.269        0.342      134.951       28.128        0.043      341.037       15.471      861.286
06/13/2014  23:59:00     -132.693      177.226      -31.867       76.795      121.358       50.871     5897.453    14727.690     2587.860        3.662        1.161      221.397       64.198        0.084      341.013       15.428      861.290
